<?xml version="1.0" encoding="UTF-8" standalone="no" ?>
<gpx xmlns="http://www.topografix.com/GPX/1/1" xmlns:xsi="http://www.w3.org/2001/XMLSchema-instance" xsi:schemaLocation="http://www.topografix.com/GPX/1/1 http://www.topografix.com/GPX/1/1/gpx.xsd" version="1.1" creator="VisuGPX - https://www.visugpx.com">
  <metadata>
    <name>Wallabies Tet Adriatique Juillet 2025/1</name>
    <desc><![CDATA[Les Wallabies Adriatique 2025]]></desc>
  </metadata>
  <trk>
    <name><![CDATA[1 Alt Easy ACT MNE_AL]]></name>
    <extensions>
      <line xmlns="http://www.topografix.com/GPX/gpx_style/0/2">
        <color>ff2600</color>
        <width>4</width>
      </line>
    </extensions>
    <trkseg>
      <trkpt lat="42.94406" lon="19.10527">
        <ele>1134.9699707031</ele>
        <time>2023-10-03T11:41:30.000Z</time>
      </trkpt>
      <trkpt lat="42.94411" lon="19.10528">
        <ele>1135.4499511719</ele>
        <time>2023-10-03T11:41:29.000Z</time>
      </trkpt>
      <trkpt lat="42.94416" lon="19.10528">
        <ele>1135.9399414062</ele>
        <time>2023-10-03T11:41:28.000Z</time>
      </trkpt>
      <trkpt lat="42.94419" lon="19.10527">
        <ele>1136.4200439453</ele>
        <time>2023-10-03T11:41:27.000Z</time>
      </trkpt>
      <trkpt lat="42.94427" lon="19.10523">
        <ele>1136.4200439453</ele>
        <time>2023-10-03T11:41:26.000Z</time>
      </trkpt>
      <trkpt lat="42.94434" lon="19.1052">
        <ele>1136.4200439453</ele>
        <time>2023-10-03T11:41:25.000Z</time>
      </trkpt>
      <trkpt lat="42.94441" lon="19.10519">
        <ele>1136.9000244141</ele>
        <time>2023-10-03T11:41:24.000Z</time>
      </trkpt>
      <trkpt lat="42.94448" lon="19.1052">
        <ele>1136.9000244141</ele>
        <time>2023-10-03T11:41:23.000Z</time>
      </trkpt>
      <trkpt lat="42.94454" lon="19.10522">
        <ele>1136.9000244141</ele>
        <time>2023-10-03T11:41:22.000Z</time>
      </trkpt>
      <trkpt lat="42.94459" lon="19.10526">
        <ele>1137.3800048828</ele>
        <time>2023-10-03T11:41:21.000Z</time>
      </trkpt>
      <trkpt lat="42.94462" lon="19.1053">
        <ele>1137.3800048828</ele>
        <time>2023-10-03T11:41:20.000Z</time>
      </trkpt>
      <trkpt lat="42.94464" lon="19.10537">
        <ele>1137.8599853516</ele>
        <time>2023-10-03T11:41:19.000Z</time>
      </trkpt>
      <trkpt lat="42.94463" lon="19.10543">
        <ele>1138.3399658203</ele>
        <time>2023-10-03T11:41:18.000Z</time>
      </trkpt>
      <trkpt lat="42.94463" lon="19.10549">
        <ele>1138.8199462891</ele>
        <time>2023-10-03T11:41:17.000Z</time>
      </trkpt>
      <trkpt lat="42.94461" lon="19.10555">
        <ele>1139.3000488281</ele>
        <time>2023-10-03T11:41:16.000Z</time>
      </trkpt>
      <trkpt lat="42.9446" lon="19.1056">
        <ele>1139.7800292969</ele>
        <time>2023-10-03T11:41:15.000Z</time>
      </trkpt>
      <trkpt lat="42.94457" lon="19.10566">
        <ele>1140.2600097656</ele>
        <time>2023-10-03T11:41:14.000Z</time>
      </trkpt>
      <trkpt lat="42.94456" lon="19.1057">
        <ele>1140.7399902344</ele>
        <time>2023-10-03T11:41:13.000Z</time>
      </trkpt>
      <trkpt lat="42.94452" lon="19.10577">
        <ele>1141.6999511719</ele>
        <time>2023-10-03T11:41:12.000Z</time>
      </trkpt>
      <trkpt lat="42.94449" lon="19.10582">
        <ele>1142.6600341797</ele>
        <time>2023-10-03T11:41:11.000Z</time>
      </trkpt>
      <trkpt lat="42.94445" lon="19.10589">
        <ele>1144.1099853516</ele>
        <time>2023-10-03T11:41:10.000Z</time>
      </trkpt>
      <trkpt lat="42.9444" lon="19.10596">
        <ele>1145.0699462891</ele>
        <time>2023-10-03T11:41:09.000Z</time>
      </trkpt>
      <trkpt lat="42.94435" lon="19.10602">
        <ele>1146.0300292969</ele>
        <time>2023-10-03T11:41:08.000Z</time>
      </trkpt>
      <trkpt lat="42.9443" lon="19.10609">
        <ele>1146.9899902344</ele>
        <time>2023-10-03T11:41:07.000Z</time>
      </trkpt>
      <trkpt lat="42.94424" lon="19.10618">
        <ele>1147.9499511719</ele>
        <time>2023-10-03T11:41:06.000Z</time>
      </trkpt>
      <trkpt lat="42.94418" lon="19.10629">
        <ele>1148.9100341797</ele>
        <time>2023-10-03T11:41:05.000Z</time>
      </trkpt>
      <trkpt lat="42.94414" lon="19.1064">
        <ele>1149.8699951172</ele>
        <time>2023-10-03T11:41:04.000Z</time>
      </trkpt>
      <trkpt lat="42.94411" lon="19.10653">
        <ele>1150.8399658203</ele>
        <time>2023-10-03T11:41:03.000Z</time>
      </trkpt>
      <trkpt lat="42.94411" lon="19.10666">
        <ele>1151.8000488281</ele>
        <time>2023-10-03T11:41:02.000Z</time>
      </trkpt>
      <trkpt lat="42.94411" lon="19.10674">
        <ele>1152.2800292969</ele>
        <time>2023-10-03T11:41:01.000Z</time>
      </trkpt>
      <trkpt lat="42.94413" lon="19.10701">
        <ele>1153.2399902344</ele>
        <time>2023-10-03T11:41:00.000Z</time>
      </trkpt>
      <trkpt lat="42.94414" lon="19.1072">
        <ele>1153.7199707031</ele>
        <time>2023-10-03T11:40:59.000Z</time>
      </trkpt>
      <trkpt lat="42.94413" lon="19.10738">
        <ele>1154.6800537109</ele>
        <time>2023-10-03T11:40:58.000Z</time>
      </trkpt>
      <trkpt lat="42.94412" lon="19.10756">
        <ele>1155.1600341797</ele>
        <time>2023-10-03T11:40:57.000Z</time>
      </trkpt>
      <trkpt lat="42.94411" lon="19.10761">
        <ele>1155.1600341797</ele>
        <time>2023-10-03T11:40:56.000Z</time>
      </trkpt>
      <trkpt lat="42.94407" lon="19.10786">
        <ele>1154.1999511719</ele>
        <time>2023-10-03T11:40:55.000Z</time>
      </trkpt>
      <trkpt lat="42.94404" lon="19.10795">
        <ele>1153.7199707031</ele>
        <time>2023-10-03T11:40:54.000Z</time>
      </trkpt>
      <trkpt lat="42.94397" lon="19.10815">
        <ele>1154.1999511719</ele>
        <time>2023-10-03T11:40:53.000Z</time>
      </trkpt>
      <trkpt lat="42.94393" lon="19.10829">
        <ele>1155.6400146484</ele>
        <time>2023-10-03T11:40:52.000Z</time>
      </trkpt>
      <trkpt lat="42.94391" lon="19.10842">
        <ele>1156.5999755859</ele>
        <time>2023-10-03T11:40:51.000Z</time>
      </trkpt>
      <trkpt lat="42.94392" lon="19.10854">
        <ele>1157.5600585938</ele>
        <time>2023-10-03T11:40:50.000Z</time>
      </trkpt>
      <trkpt lat="42.94392" lon="19.10866">
        <ele>1158.5300292969</ele>
        <time>2023-10-03T11:40:49.000Z</time>
      </trkpt>
      <trkpt lat="42.94395" lon="19.10885">
        <ele>1159.9699707031</ele>
        <time>2023-10-03T11:40:48.000Z</time>
      </trkpt>
      <trkpt lat="42.94397" lon="19.10895">
        <ele>1160.4499511719</ele>
        <time>2023-10-03T11:40:47.000Z</time>
      </trkpt>
      <trkpt lat="42.94401" lon="19.1091">
        <ele>1161.4100341797</ele>
        <time>2023-10-03T11:40:46.000Z</time>
      </trkpt>
      <trkpt lat="42.94407" lon="19.10933">
        <ele>1162.8499755859</ele>
        <time>2023-10-03T11:40:45.000Z</time>
      </trkpt>
      <trkpt lat="42.94414" lon="19.10953">
        <ele>1163.3299560547</ele>
        <time>2023-10-03T11:40:44.000Z</time>
      </trkpt>
      <trkpt lat="42.94417" lon="19.10962">
        <ele>1163.8100585938</ele>
        <time>2023-10-03T11:40:43.000Z</time>
      </trkpt>
      <trkpt lat="42.94425" lon="19.1098">
        <ele>1164.7700195312</ele>
        <time>2023-10-03T11:40:42.000Z</time>
      </trkpt>
      <trkpt lat="42.94431" lon="19.10993">
        <ele>1165.2600097656</ele>
        <time>2023-10-03T11:40:41.000Z</time>
      </trkpt>
      <trkpt lat="42.94433" lon="19.11004">
        <ele>1165.2600097656</ele>
        <time>2023-10-03T11:40:40.000Z</time>
      </trkpt>
      <trkpt lat="42.94431" lon="19.11015">
        <ele>1165.7399902344</ele>
        <time>2023-10-03T11:40:39.000Z</time>
      </trkpt>
      <trkpt lat="42.94427" lon="19.11025">
        <ele>1166.2199707031</ele>
        <time>2023-10-03T11:40:38.000Z</time>
      </trkpt>
      <trkpt lat="42.9442" lon="19.11033">
        <ele>1166.2199707031</ele>
        <time>2023-10-03T11:40:37.000Z</time>
      </trkpt>
      <trkpt lat="42.94417" lon="19.11036">
        <ele>1166.6999511719</ele>
        <time>2023-10-03T11:40:36.000Z</time>
      </trkpt>
      <trkpt lat="42.94403" lon="19.11049">
        <ele>1167.6600341797</ele>
        <time>2023-10-03T11:40:35.000Z</time>
      </trkpt>
      <trkpt lat="42.94395" lon="19.11058">
        <ele>1169.5799560547</ele>
        <time>2023-10-03T11:40:34.000Z</time>
      </trkpt>
      <trkpt lat="42.94392" lon="19.11068">
        <ele>1171.0200195312</ele>
        <time>2023-10-03T11:40:33.000Z</time>
      </trkpt>
      <trkpt lat="42.94391" lon="19.11077">
        <ele>1172.4699707031</ele>
        <time>2023-10-03T11:40:32.000Z</time>
      </trkpt>
      <trkpt lat="42.94391" lon="19.1109">
        <ele>1173.9100341797</ele>
        <time>2023-10-03T11:40:31.000Z</time>
      </trkpt>
      <trkpt lat="42.94393" lon="19.11106">
        <ele>1175.3499755859</ele>
        <time>2023-10-03T11:40:30.000Z</time>
      </trkpt>
      <trkpt lat="42.94394" lon="19.11123">
        <ele>1176.7900390625</ele>
        <time>2023-10-03T11:40:29.000Z</time>
      </trkpt>
      <trkpt lat="42.94396" lon="19.11146">
        <ele>1178.2299804688</ele>
        <time>2023-10-03T11:40:28.000Z</time>
      </trkpt>
      <trkpt lat="42.94396" lon="19.11161">
        <ele>1178.2299804688</ele>
        <time>2023-10-03T11:40:27.000Z</time>
      </trkpt>
      <trkpt lat="42.94394" lon="19.11178">
        <ele>1178.7099609375</ele>
        <time>2023-10-03T11:40:26.000Z</time>
      </trkpt>
      <trkpt lat="42.94394" lon="19.11182">
        <ele>1178.7099609375</ele>
        <time>2023-10-03T11:40:25.000Z</time>
      </trkpt>
      <trkpt lat="42.94384" lon="19.1123">
        <ele>1182.0799560547</ele>
        <time>2023-10-03T11:40:23.000Z</time>
      </trkpt>
      <trkpt lat="42.9438" lon="19.11248">
        <ele>1183.5200195312</ele>
        <time>2023-10-03T11:40:22.000Z</time>
      </trkpt>
      <trkpt lat="42.94376" lon="19.11261">
        <ele>1184</ele>
        <time>2023-10-03T11:40:21.000Z</time>
      </trkpt>
      <trkpt lat="42.94371" lon="19.11279">
        <ele>1185.4399414062</ele>
        <time>2023-10-03T11:40:20.000Z</time>
      </trkpt>
      <trkpt lat="42.94359" lon="19.11315">
        <ele>1186.8800048828</ele>
        <time>2023-10-03T11:40:18.000Z</time>
      </trkpt>
      <trkpt lat="42.94355" lon="19.11334">
        <ele>1187.8499755859</ele>
        <time>2023-10-03T11:40:17.000Z</time>
      </trkpt>
      <trkpt lat="42.94353" lon="19.11349">
        <ele>1188.3299560547</ele>
        <time>2023-10-03T11:40:16.000Z</time>
      </trkpt>
      <trkpt lat="42.94352" lon="19.11355">
        <ele>1188.8100585938</ele>
        <time>2023-10-03T11:40:15.000Z</time>
      </trkpt>
      <trkpt lat="42.94348" lon="19.11399">
        <ele>1190.25</ele>
        <time>2023-10-03T11:40:13.000Z</time>
      </trkpt>
      <trkpt lat="42.94348" lon="19.11411">
        <ele>1190.25</ele>
        <time>2023-10-03T11:40:12.000Z</time>
      </trkpt>
      <trkpt lat="42.94352" lon="19.11421">
        <ele>1190.7299804688</ele>
        <time>2023-10-03T11:40:11.000Z</time>
      </trkpt>
      <trkpt lat="42.94356" lon="19.1143">
        <ele>1191.6899414062</ele>
        <time>2023-10-03T11:40:10.000Z</time>
      </trkpt>
      <trkpt lat="42.9436" lon="19.11437">
        <ele>1192.1700439453</ele>
        <time>2023-10-03T11:40:09.000Z</time>
      </trkpt>
      <trkpt lat="42.94368" lon="19.11451">
        <ele>1193.6099853516</ele>
        <time>2023-10-03T11:40:08.000Z</time>
      </trkpt>
      <trkpt lat="42.94382" lon="19.11476">
        <ele>1196.0200195312</ele>
        <time>2023-10-03T11:40:06.000Z</time>
      </trkpt>
      <trkpt lat="42.94386" lon="19.11489">
        <ele>1197.4599609375</ele>
        <time>2023-10-03T11:40:05.000Z</time>
      </trkpt>
      <trkpt lat="42.94389" lon="19.11502">
        <ele>1198.4200439453</ele>
        <time>2023-10-03T11:40:04.000Z</time>
      </trkpt>
      <trkpt lat="42.9439" lon="19.11515">
        <ele>1199.3800048828</ele>
        <time>2023-10-03T11:40:03.000Z</time>
      </trkpt>
      <trkpt lat="42.9439" lon="19.11528">
        <ele>1200.3399658203</ele>
        <time>2023-10-03T11:40:02.000Z</time>
      </trkpt>
      <trkpt lat="42.94387" lon="19.11542">
        <ele>1200.8199462891</ele>
        <time>2023-10-03T11:40:01.000Z</time>
      </trkpt>
      <trkpt lat="42.94384" lon="19.11553">
        <ele>1201.3000488281</ele>
        <time>2023-10-03T11:40:00.000Z</time>
      </trkpt>
      <trkpt lat="42.94379" lon="19.11569">
        <ele>1202.2700195312</ele>
        <time>2023-10-03T11:39:59.000Z</time>
      </trkpt>
      <trkpt lat="42.94367" lon="19.11598">
        <ele>1203.7099609375</ele>
        <time>2023-10-03T11:39:57.000Z</time>
      </trkpt>
      <trkpt lat="42.94362" lon="19.11608">
        <ele>1203.7099609375</ele>
        <time>2023-10-03T11:39:56.000Z</time>
      </trkpt>
      <trkpt lat="42.94355" lon="19.11616">
        <ele>1204.1899414062</ele>
        <time>2023-10-03T11:39:55.000Z</time>
      </trkpt>
      <trkpt lat="42.94347" lon="19.11623">
        <ele>1204.6700439453</ele>
        <time>2023-10-03T11:39:54.000Z</time>
      </trkpt>
      <trkpt lat="42.94339" lon="19.11628">
        <ele>1205.1500244141</ele>
        <time>2023-10-03T11:39:53.000Z</time>
      </trkpt>
      <trkpt lat="42.94329" lon="19.11636">
        <ele>1206.1099853516</ele>
        <time>2023-10-03T11:39:52.000Z</time>
      </trkpt>
      <trkpt lat="42.94322" lon="19.1164">
        <ele>1206.5899658203</ele>
        <time>2023-10-03T11:39:51.000Z</time>
      </trkpt>
      <trkpt lat="42.94317" lon="19.11643">
        <ele>1207.0699462891</ele>
        <time>2023-10-03T11:39:50.000Z</time>
      </trkpt>
      <trkpt lat="42.94301" lon="19.1165">
        <ele>1207.0699462891</ele>
        <time>2023-10-03T11:39:49.000Z</time>
      </trkpt>
      <trkpt lat="42.94297" lon="19.11651">
        <ele>1207.0699462891</ele>
        <time>2023-10-03T11:39:48.000Z</time>
      </trkpt>
      <trkpt lat="42.9428" lon="19.11657">
        <ele>1208.0300292969</ele>
        <time>2023-10-03T11:39:47.000Z</time>
      </trkpt>
      <trkpt lat="42.94272" lon="19.11661">
        <ele>1209</ele>
        <time>2023-10-03T11:39:46.000Z</time>
      </trkpt>
      <trkpt lat="42.94268" lon="19.11665">
        <ele>1209.4799804688</ele>
        <time>2023-10-03T11:39:45.000Z</time>
      </trkpt>
      <trkpt lat="42.94266" lon="19.1167">
        <ele>1210.4399414062</ele>
        <time>2023-10-03T11:39:44.000Z</time>
      </trkpt>
      <trkpt lat="42.94265" lon="19.11676">
        <ele>1211.8800048828</ele>
        <time>2023-10-03T11:39:43.000Z</time>
      </trkpt>
      <trkpt lat="42.94269" lon="19.11682">
        <ele>1212.8399658203</ele>
        <time>2023-10-03T11:39:42.000Z</time>
      </trkpt>
      <trkpt lat="42.94276" lon="19.11692">
        <ele>1213.3199462891</ele>
        <time>2023-10-03T11:39:41.000Z</time>
      </trkpt>
      <trkpt lat="42.94286" lon="19.11703">
        <ele>1214.2800292969</ele>
        <time>2023-10-03T11:39:40.000Z</time>
      </trkpt>
      <trkpt lat="42.94291" lon="19.1171">
        <ele>1214.7600097656</ele>
        <time>2023-10-03T11:39:39.000Z</time>
      </trkpt>
      <trkpt lat="42.94297" lon="19.11719">
        <ele>1215.2399902344</ele>
        <time>2023-10-03T11:39:38.000Z</time>
      </trkpt>
      <trkpt lat="42.94307" lon="19.11734">
        <ele>1215.7199707031</ele>
        <time>2023-10-03T11:39:37.000Z</time>
      </trkpt>
      <trkpt lat="42.94325" lon="19.11761">
        <ele>1217.1700439453</ele>
        <time>2023-10-03T11:39:35.000Z</time>
      </trkpt>
      <trkpt lat="42.94331" lon="19.11774">
        <ele>1218.1300048828</ele>
        <time>2023-10-03T11:39:34.000Z</time>
      </trkpt>
      <trkpt lat="42.94334" lon="19.1178">
        <ele>1218.6099853516</ele>
        <time>2023-10-03T11:39:33.000Z</time>
      </trkpt>
      <trkpt lat="42.94341" lon="19.11803">
        <ele>1219.5699462891</ele>
        <time>2023-10-03T11:39:32.000Z</time>
      </trkpt>
      <trkpt lat="42.94345" lon="19.11816">
        <ele>1220.5300292969</ele>
        <time>2023-10-03T11:39:31.000Z</time>
      </trkpt>
      <trkpt lat="42.9435" lon="19.11838">
        <ele>1221.9699707031</ele>
        <time>2023-10-03T11:39:30.000Z</time>
      </trkpt>
      <trkpt lat="42.94355" lon="19.11861">
        <ele>1223.4200439453</ele>
        <time>2023-10-03T11:39:29.000Z</time>
      </trkpt>
      <trkpt lat="42.94359" lon="19.11875">
        <ele>1223.9000244141</ele>
        <time>2023-10-03T11:39:28.000Z</time>
      </trkpt>
      <trkpt lat="42.94365" lon="19.11888">
        <ele>1224.8599853516</ele>
        <time>2023-10-03T11:39:27.000Z</time>
      </trkpt>
      <trkpt lat="42.94375" lon="19.11905">
        <ele>1226.3000488281</ele>
        <time>2023-10-03T11:39:26.000Z</time>
      </trkpt>
      <trkpt lat="42.94382" lon="19.11919">
        <ele>1227.2600097656</ele>
        <time>2023-10-03T11:39:25.000Z</time>
      </trkpt>
      <trkpt lat="42.94388" lon="19.11934">
        <ele>1228.2199707031</ele>
        <time>2023-10-03T11:39:24.000Z</time>
      </trkpt>
      <trkpt lat="42.94395" lon="19.11951">
        <ele>1229.6600341797</ele>
        <time>2023-10-03T11:39:23.000Z</time>
      </trkpt>
      <trkpt lat="42.94398" lon="19.11965">
        <ele>1230.1400146484</ele>
        <time>2023-10-03T11:39:22.000Z</time>
      </trkpt>
      <trkpt lat="42.94399" lon="19.11981">
        <ele>1230.1400146484</ele>
        <time>2023-10-03T11:39:21.000Z</time>
      </trkpt>
      <trkpt lat="42.944" lon="19.11998">
        <ele>1231.1099853516</ele>
        <time>2023-10-03T11:39:20.000Z</time>
      </trkpt>
      <trkpt lat="42.944" lon="19.12018">
        <ele>1232.5500488281</ele>
        <time>2023-10-03T11:39:19.000Z</time>
      </trkpt>
      <trkpt lat="42.94397" lon="19.12071">
        <ele>1236.3900146484</ele>
        <time>2023-10-03T11:39:16.000Z</time>
      </trkpt>
      <trkpt lat="42.94396" lon="19.12094">
        <ele>1237.8299560547</ele>
        <time>2023-10-03T11:39:15.000Z</time>
      </trkpt>
      <trkpt lat="42.94396" lon="19.12111">
        <ele>1238.8000488281</ele>
        <time>2023-10-03T11:39:14.000Z</time>
      </trkpt>
      <trkpt lat="42.94397" lon="19.12123">
        <ele>1239.2800292969</ele>
        <time>2023-10-03T11:39:13.000Z</time>
      </trkpt>
      <trkpt lat="42.94399" lon="19.12132">
        <ele>1239.7600097656</ele>
        <time>2023-10-03T11:39:12.000Z</time>
      </trkpt>
      <trkpt lat="42.94403" lon="19.12159">
        <ele>1241.1999511719</ele>
        <time>2023-10-03T11:39:11.000Z</time>
      </trkpt>
      <trkpt lat="42.94404" lon="19.12172">
        <ele>1242.1600341797</ele>
        <time>2023-10-03T11:39:10.000Z</time>
      </trkpt>
      <trkpt lat="42.94404" lon="19.12186">
        <ele>1242.6400146484</ele>
        <time>2023-10-03T11:39:09.000Z</time>
      </trkpt>
      <trkpt lat="42.94403" lon="19.12196">
        <ele>1243.1199951172</ele>
        <time>2023-10-03T11:39:08.000Z</time>
      </trkpt>
      <trkpt lat="42.94399" lon="19.12212">
        <ele>1244.0799560547</ele>
        <time>2023-10-03T11:39:07.000Z</time>
      </trkpt>
      <trkpt lat="42.94395" lon="19.12224">
        <ele>1244.5600585938</ele>
        <time>2023-10-03T11:39:06.000Z</time>
      </trkpt>
      <trkpt lat="42.9439" lon="19.12236">
        <ele>1245.5300292969</ele>
        <time>2023-10-03T11:39:05.000Z</time>
      </trkpt>
      <trkpt lat="42.94377" lon="19.12261">
        <ele>1248.4100341797</ele>
        <time>2023-10-03T11:39:03.000Z</time>
      </trkpt>
      <trkpt lat="42.94372" lon="19.12271">
        <ele>1249.8499755859</ele>
        <time>2023-10-03T11:39:02.000Z</time>
      </trkpt>
      <trkpt lat="42.94368" lon="19.12279">
        <ele>1250.3299560547</ele>
        <time>2023-10-03T11:39:01.000Z</time>
      </trkpt>
      <trkpt lat="42.94369" lon="19.12285">
        <ele>1251.2900390625</ele>
        <time>2023-10-03T11:39:00.000Z</time>
      </trkpt>
      <trkpt lat="42.94373" lon="19.12294">
        <ele>1251.7700195312</ele>
        <time>2023-10-03T11:38:59.000Z</time>
      </trkpt>
      <trkpt lat="42.94377" lon="19.12299">
        <ele>1251.7700195312</ele>
        <time>2023-10-03T11:38:58.000Z</time>
      </trkpt>
      <trkpt lat="42.94388" lon="19.12309">
        <ele>1252.25</ele>
        <time>2023-10-03T11:38:57.000Z</time>
      </trkpt>
      <trkpt lat="42.944" lon="19.12319">
        <ele>1252.7399902344</ele>
        <time>2023-10-03T11:38:56.000Z</time>
      </trkpt>
      <trkpt lat="42.94409" lon="19.12326">
        <ele>1253.2199707031</ele>
        <time>2023-10-03T11:38:55.000Z</time>
      </trkpt>
      <trkpt lat="42.94416" lon="19.12334">
        <ele>1253.6999511719</ele>
        <time>2023-10-03T11:38:54.000Z</time>
      </trkpt>
      <trkpt lat="42.94421" lon="19.12343">
        <ele>1254.1800537109</ele>
        <time>2023-10-03T11:38:53.000Z</time>
      </trkpt>
      <trkpt lat="42.94424" lon="19.12354">
        <ele>1254.6600341797</ele>
        <time>2023-10-03T11:38:52.000Z</time>
      </trkpt>
      <trkpt lat="42.94425" lon="19.12363">
        <ele>1255.1400146484</ele>
        <time>2023-10-03T11:38:51.000Z</time>
      </trkpt>
      <trkpt lat="42.94425" lon="19.12384">
        <ele>1255.1400146484</ele>
        <time>2023-10-03T11:38:50.000Z</time>
      </trkpt>
      <trkpt lat="42.94424" lon="19.12397">
        <ele>1255.6199951172</ele>
        <time>2023-10-03T11:38:49.000Z</time>
      </trkpt>
      <trkpt lat="42.94422" lon="19.12415">
        <ele>1256.5799560547</ele>
        <time>2023-10-03T11:38:48.000Z</time>
      </trkpt>
      <trkpt lat="42.94421" lon="19.12424">
        <ele>1257.0600585938</ele>
        <time>2023-10-03T11:38:47.000Z</time>
      </trkpt>
      <trkpt lat="42.94423" lon="19.12442">
        <ele>1258.5</ele>
        <time>2023-10-03T11:38:46.000Z</time>
      </trkpt>
      <trkpt lat="42.94428" lon="19.12457">
        <ele>1259.9399414062</ele>
        <time>2023-10-03T11:38:45.000Z</time>
      </trkpt>
      <trkpt lat="42.94434" lon="19.12471">
        <ele>1261.8699951172</ele>
        <time>2023-10-03T11:38:44.000Z</time>
      </trkpt>
      <trkpt lat="42.9444" lon="19.12483">
        <ele>1262.8299560547</ele>
        <time>2023-10-03T11:38:43.000Z</time>
      </trkpt>
      <trkpt lat="42.94448" lon="19.12498">
        <ele>1263.7900390625</ele>
        <time>2023-10-03T11:38:42.000Z</time>
      </trkpt>
      <trkpt lat="42.94458" lon="19.12512">
        <ele>1265.2299804688</ele>
        <time>2023-10-03T11:38:41.000Z</time>
      </trkpt>
      <trkpt lat="42.94465" lon="19.12525">
        <ele>1266.1899414062</ele>
        <time>2023-10-03T11:38:40.000Z</time>
      </trkpt>
      <trkpt lat="42.9447" lon="19.12537">
        <ele>1266.6700439453</ele>
        <time>2023-10-03T11:38:39.000Z</time>
      </trkpt>
      <trkpt lat="42.94472" lon="19.12549">
        <ele>1267.6400146484</ele>
        <time>2023-10-03T11:38:38.000Z</time>
      </trkpt>
      <trkpt lat="42.94472" lon="19.12563">
        <ele>1268.5999755859</ele>
        <time>2023-10-03T11:38:37.000Z</time>
      </trkpt>
      <trkpt lat="42.94471" lon="19.12579">
        <ele>1269.5600585938</ele>
        <time>2023-10-03T11:38:36.000Z</time>
      </trkpt>
      <trkpt lat="42.94468" lon="19.12594">
        <ele>1270.0400390625</ele>
        <time>2023-10-03T11:38:35.000Z</time>
      </trkpt>
      <trkpt lat="42.94466" lon="19.12615">
        <ele>1270.0400390625</ele>
        <time>2023-10-03T11:38:34.000Z</time>
      </trkpt>
      <trkpt lat="42.94465" lon="19.12626">
        <ele>1270.0400390625</ele>
        <time>2023-10-03T11:38:33.000Z</time>
      </trkpt>
      <trkpt lat="42.94466" lon="19.12647">
        <ele>1270.0400390625</ele>
        <time>2023-10-03T11:38:32.000Z</time>
      </trkpt>
      <trkpt lat="42.94467" lon="19.12664">
        <ele>1270.5200195312</ele>
        <time>2023-10-03T11:38:31.000Z</time>
      </trkpt>
      <trkpt lat="42.94466" lon="19.12678">
        <ele>1270.0400390625</ele>
        <time>2023-10-03T11:38:30.000Z</time>
      </trkpt>
      <trkpt lat="42.94463" lon="19.12691">
        <ele>1269.0799560547</ele>
        <time>2023-10-03T11:38:29.000Z</time>
      </trkpt>
      <trkpt lat="42.94458" lon="19.12703">
        <ele>1269.0799560547</ele>
        <time>2023-10-03T11:38:28.000Z</time>
      </trkpt>
      <trkpt lat="42.94451" lon="19.12716">
        <ele>1268.5999755859</ele>
        <time>2023-10-03T11:38:27.000Z</time>
      </trkpt>
      <trkpt lat="42.94443" lon="19.12726">
        <ele>1269.0799560547</ele>
        <time>2023-10-03T11:38:26.000Z</time>
      </trkpt>
      <trkpt lat="42.94433" lon="19.12737">
        <ele>1269.0799560547</ele>
        <time>2023-10-03T11:38:25.000Z</time>
      </trkpt>
      <trkpt lat="42.94427" lon="19.12745">
        <ele>1269.5600585938</ele>
        <time>2023-10-03T11:38:24.000Z</time>
      </trkpt>
      <trkpt lat="42.94425" lon="19.12752">
        <ele>1269.5600585938</ele>
        <time>2023-10-03T11:38:23.000Z</time>
      </trkpt>
      <trkpt lat="42.94425" lon="19.1276">
        <ele>1269.5600585938</ele>
        <time>2023-10-03T11:38:22.000Z</time>
      </trkpt>
      <trkpt lat="42.94428" lon="19.1277">
        <ele>1270.0400390625</ele>
        <time>2023-10-03T11:38:21.000Z</time>
      </trkpt>
      <trkpt lat="42.94432" lon="19.12778">
        <ele>1269.5600585938</ele>
        <time>2023-10-03T11:38:20.000Z</time>
      </trkpt>
      <trkpt lat="42.94441" lon="19.12793">
        <ele>1269.5600585938</ele>
        <time>2023-10-03T11:38:19.000Z</time>
      </trkpt>
      <trkpt lat="42.94449" lon="19.12805">
        <ele>1269.0799560547</ele>
        <time>2023-10-03T11:38:18.000Z</time>
      </trkpt>
      <trkpt lat="42.94457" lon="19.12816">
        <ele>1269.0799560547</ele>
        <time>2023-10-03T11:38:17.000Z</time>
      </trkpt>
      <trkpt lat="42.94464" lon="19.1283">
        <ele>1268.5999755859</ele>
        <time>2023-10-03T11:38:16.000Z</time>
      </trkpt>
      <trkpt lat="42.94469" lon="19.12842">
        <ele>1268.1199951172</ele>
        <time>2023-10-03T11:38:15.000Z</time>
      </trkpt>
      <trkpt lat="42.94473" lon="19.12856">
        <ele>1267.1600341797</ele>
        <time>2023-10-03T11:38:14.000Z</time>
      </trkpt>
      <trkpt lat="42.94475" lon="19.12868">
        <ele>1266.6700439453</ele>
        <time>2023-10-03T11:38:13.000Z</time>
      </trkpt>
      <trkpt lat="42.94475" lon="19.1288">
        <ele>1266.1899414062</ele>
        <time>2023-10-03T11:38:12.000Z</time>
      </trkpt>
      <trkpt lat="42.94473" lon="19.1289">
        <ele>1265.7099609375</ele>
        <time>2023-10-03T11:38:11.000Z</time>
      </trkpt>
      <trkpt lat="42.94469" lon="19.129">
        <ele>1265.2299804688</ele>
        <time>2023-10-03T11:38:10.000Z</time>
      </trkpt>
      <trkpt lat="42.94464" lon="19.12911">
        <ele>1264.75</ele>
        <time>2023-10-03T11:38:09.000Z</time>
      </trkpt>
      <trkpt lat="42.94462" lon="19.12921">
        <ele>1264.75</ele>
        <time>2023-10-03T11:38:08.000Z</time>
      </trkpt>
      <trkpt lat="42.94461" lon="19.12927">
        <ele>1264.2700195312</ele>
        <time>2023-10-03T11:38:07.000Z</time>
      </trkpt>
      <trkpt lat="42.94461" lon="19.12953">
        <ele>1263.3100585938</ele>
        <time>2023-10-03T11:38:06.000Z</time>
      </trkpt>
      <trkpt lat="42.9446" lon="19.12969">
        <ele>1262.3499755859</ele>
        <time>2023-10-03T11:38:05.000Z</time>
      </trkpt>
      <trkpt lat="42.94459" lon="19.12973">
        <ele>1262.3499755859</ele>
        <time>2023-10-03T11:38:04.000Z</time>
      </trkpt>
      <trkpt lat="42.94451" lon="19.13003">
        <ele>1261.3900146484</ele>
        <time>2023-10-03T11:38:03.000Z</time>
      </trkpt>
      <trkpt lat="42.94449" lon="19.13021">
        <ele>1260.9100341797</ele>
        <time>2023-10-03T11:38:02.000Z</time>
      </trkpt>
      <trkpt lat="42.94448" lon="19.13034">
        <ele>1260.9100341797</ele>
        <time>2023-10-03T11:38:01.000Z</time>
      </trkpt>
      <trkpt lat="42.94449" lon="19.13049">
        <ele>1260.9100341797</ele>
        <time>2023-10-03T11:38:00.000Z</time>
      </trkpt>
      <trkpt lat="42.94451" lon="19.13065">
        <ele>1260.9100341797</ele>
        <time>2023-10-03T11:37:59.000Z</time>
      </trkpt>
      <trkpt lat="42.94454" lon="19.13076">
        <ele>1260.9100341797</ele>
        <time>2023-10-03T11:37:58.000Z</time>
      </trkpt>
      <trkpt lat="42.94459" lon="19.13085">
        <ele>1261.3900146484</ele>
        <time>2023-10-03T11:37:57.000Z</time>
      </trkpt>
      <trkpt lat="42.94462" lon="19.13088">
        <ele>1261.3900146484</ele>
        <time>2023-10-03T11:37:56.000Z</time>
      </trkpt>
      <trkpt lat="42.94473" lon="19.13101">
        <ele>1261.8699951172</ele>
        <time>2023-10-03T11:37:55.000Z</time>
      </trkpt>
      <trkpt lat="42.94486" lon="19.13118">
        <ele>1262.3499755859</ele>
        <time>2023-10-03T11:37:54.000Z</time>
      </trkpt>
      <trkpt lat="42.94493" lon="19.13129">
        <ele>1262.3499755859</ele>
        <time>2023-10-03T11:37:53.000Z</time>
      </trkpt>
      <trkpt lat="42.94499" lon="19.1314">
        <ele>1262.8299560547</ele>
        <time>2023-10-03T11:37:52.000Z</time>
      </trkpt>
      <trkpt lat="42.94504" lon="19.13151">
        <ele>1262.8299560547</ele>
        <time>2023-10-03T11:37:51.000Z</time>
      </trkpt>
      <trkpt lat="42.94507" lon="19.13163">
        <ele>1262.8299560547</ele>
        <time>2023-10-03T11:37:50.000Z</time>
      </trkpt>
      <trkpt lat="42.94508" lon="19.13174">
        <ele>1262.3499755859</ele>
        <time>2023-10-03T11:37:49.000Z</time>
      </trkpt>
      <trkpt lat="42.94507" lon="19.13186">
        <ele>1261.3900146484</ele>
        <time>2023-10-03T11:37:48.000Z</time>
      </trkpt>
      <trkpt lat="42.94503" lon="19.13201">
        <ele>1260.9100341797</ele>
        <time>2023-10-03T11:37:47.000Z</time>
      </trkpt>
      <trkpt lat="42.94497" lon="19.13214">
        <ele>1260.4300537109</ele>
        <time>2023-10-03T11:37:46.000Z</time>
      </trkpt>
      <trkpt lat="42.94491" lon="19.13223">
        <ele>1259.4599609375</ele>
        <time>2023-10-03T11:37:45.000Z</time>
      </trkpt>
      <trkpt lat="42.94484" lon="19.13229">
        <ele>1258.5</ele>
        <time>2023-10-03T11:37:44.000Z</time>
      </trkpt>
      <trkpt lat="42.94473" lon="19.13238">
        <ele>1257.5400390625</ele>
        <time>2023-10-03T11:37:43.000Z</time>
      </trkpt>
      <trkpt lat="42.94465" lon="19.13245">
        <ele>1256.5799560547</ele>
        <time>2023-10-03T11:37:42.000Z</time>
      </trkpt>
      <trkpt lat="42.94447" lon="19.13263">
        <ele>1254.6600341797</ele>
        <time>2023-10-03T11:37:41.000Z</time>
      </trkpt>
      <trkpt lat="42.94435" lon="19.13275">
        <ele>1254.1800537109</ele>
        <time>2023-10-03T11:37:40.000Z</time>
      </trkpt>
      <trkpt lat="42.94419" lon="19.13291">
        <ele>1253.2199707031</ele>
        <time>2023-10-03T11:37:39.000Z</time>
      </trkpt>
      <trkpt lat="42.94412" lon="19.13298">
        <ele>1253.2199707031</ele>
        <time>2023-10-03T11:37:38.000Z</time>
      </trkpt>
      <trkpt lat="42.94394" lon="19.13312">
        <ele>1254.1800537109</ele>
        <time>2023-10-03T11:37:37.000Z</time>
      </trkpt>
      <trkpt lat="42.94381" lon="19.13323">
        <ele>1254.1800537109</ele>
        <time>2023-10-03T11:37:36.000Z</time>
      </trkpt>
      <trkpt lat="42.94359" lon="19.13341">
        <ele>1253.6999511719</ele>
        <time>2023-10-03T11:37:35.000Z</time>
      </trkpt>
      <trkpt lat="42.94342" lon="19.13353">
        <ele>1254.1800537109</ele>
        <time>2023-10-03T11:37:34.000Z</time>
      </trkpt>
      <trkpt lat="42.94333" lon="19.13361">
        <ele>1253.2199707031</ele>
        <time>2023-10-03T11:37:33.000Z</time>
      </trkpt>
      <trkpt lat="42.94327" lon="19.13369">
        <ele>1252.7399902344</ele>
        <time>2023-10-03T11:37:32.000Z</time>
      </trkpt>
      <trkpt lat="42.94323" lon="19.13377">
        <ele>1252.7399902344</ele>
        <time>2023-10-03T11:37:31.000Z</time>
      </trkpt>
      <trkpt lat="42.9432" lon="19.13385">
        <ele>1252.7399902344</ele>
        <time>2023-10-03T11:37:30.000Z</time>
      </trkpt>
      <trkpt lat="42.94321" lon="19.13392">
        <ele>1252.7399902344</ele>
        <time>2023-10-03T11:37:29.000Z</time>
      </trkpt>
      <trkpt lat="42.94323" lon="19.13399">
        <ele>1253.2199707031</ele>
        <time>2023-10-03T11:37:28.000Z</time>
      </trkpt>
      <trkpt lat="42.94328" lon="19.13406">
        <ele>1253.2199707031</ele>
        <time>2023-10-03T11:37:27.000Z</time>
      </trkpt>
      <trkpt lat="42.94333" lon="19.13409">
        <ele>1253.2199707031</ele>
        <time>2023-10-03T11:37:26.000Z</time>
      </trkpt>
      <trkpt lat="42.94341" lon="19.13412">
        <ele>1252.7399902344</ele>
        <time>2023-10-03T11:37:25.000Z</time>
      </trkpt>
      <trkpt lat="42.94355" lon="19.13416">
        <ele>1251.7700195312</ele>
        <time>2023-10-03T11:37:24.000Z</time>
      </trkpt>
      <trkpt lat="42.94365" lon="19.13422">
        <ele>1251.7700195312</ele>
        <time>2023-10-03T11:37:23.000Z</time>
      </trkpt>
      <trkpt lat="42.9437" lon="19.13425">
        <ele>1252.25</ele>
        <time>2023-10-03T11:37:22.000Z</time>
      </trkpt>
      <trkpt lat="42.94387" lon="19.13439">
        <ele>1250.8100585938</ele>
        <time>2023-10-03T11:37:21.000Z</time>
      </trkpt>
      <trkpt lat="42.94397" lon="19.13445">
        <ele>1249.8499755859</ele>
        <time>2023-10-03T11:37:20.000Z</time>
      </trkpt>
      <trkpt lat="42.94411" lon="19.13449">
        <ele>1248.4100341797</ele>
        <time>2023-10-03T11:37:19.000Z</time>
      </trkpt>
      <trkpt lat="42.94414" lon="19.1345">
        <ele>1247.9300537109</ele>
        <time>2023-10-03T11:37:18.000Z</time>
      </trkpt>
      <trkpt lat="42.94438" lon="19.13452">
        <ele>1246.0100097656</ele>
        <time>2023-10-03T11:37:17.000Z</time>
      </trkpt>
      <trkpt lat="42.94449" lon="19.13455">
        <ele>1245.0400390625</ele>
        <time>2023-10-03T11:37:16.000Z</time>
      </trkpt>
      <trkpt lat="42.94463" lon="19.13459">
        <ele>1244.0799560547</ele>
        <time>2023-10-03T11:37:15.000Z</time>
      </trkpt>
      <trkpt lat="42.94473" lon="19.13463">
        <ele>1242.6400146484</ele>
        <time>2023-10-03T11:37:14.000Z</time>
      </trkpt>
      <trkpt lat="42.94489" lon="19.13466">
        <ele>1241.1999511719</ele>
        <time>2023-10-03T11:37:13.000Z</time>
      </trkpt>
      <trkpt lat="42.94499" lon="19.13468">
        <ele>1240.7199707031</ele>
        <time>2023-10-03T11:37:12.000Z</time>
      </trkpt>
      <trkpt lat="42.94513" lon="19.13469">
        <ele>1239.7600097656</ele>
        <time>2023-10-03T11:37:11.000Z</time>
      </trkpt>
      <trkpt lat="42.94524" lon="19.13471">
        <ele>1238.8000488281</ele>
        <time>2023-10-03T11:37:10.000Z</time>
      </trkpt>
      <trkpt lat="42.94535" lon="19.13477">
        <ele>1237.8299560547</ele>
        <time>2023-10-03T11:37:09.000Z</time>
      </trkpt>
      <trkpt lat="42.94542" lon="19.13483">
        <ele>1237.3499755859</ele>
        <time>2023-10-03T11:37:08.000Z</time>
      </trkpt>
      <trkpt lat="42.94564" lon="19.13504">
        <ele>1236.3900146484</ele>
        <time>2023-10-03T11:37:06.000Z</time>
      </trkpt>
      <trkpt lat="42.94572" lon="19.13515">
        <ele>1235.4300537109</ele>
        <time>2023-10-03T11:37:05.000Z</time>
      </trkpt>
      <trkpt lat="42.94578" lon="19.13526">
        <ele>1234.4699707031</ele>
        <time>2023-10-03T11:37:04.000Z</time>
      </trkpt>
      <trkpt lat="42.94583" lon="19.13541">
        <ele>1233.5100097656</ele>
        <time>2023-10-03T11:37:03.000Z</time>
      </trkpt>
      <trkpt lat="42.94586" lon="19.13556">
        <ele>1232.5500488281</ele>
        <time>2023-10-03T11:37:02.000Z</time>
      </trkpt>
      <trkpt lat="42.94586" lon="19.13569">
        <ele>1232.5500488281</ele>
        <time>2023-10-03T11:37:01.000Z</time>
      </trkpt>
      <trkpt lat="42.94586" lon="19.13577">
        <ele>1232.5500488281</ele>
        <time>2023-10-03T11:37:00.000Z</time>
      </trkpt>
      <trkpt lat="42.94583" lon="19.13607">
        <ele>1233.0300292969</ele>
        <time>2023-10-03T11:36:59.000Z</time>
      </trkpt>
      <trkpt lat="42.94583" lon="19.1362">
        <ele>1233.0300292969</ele>
        <time>2023-10-03T11:36:58.000Z</time>
      </trkpt>
      <trkpt lat="42.94583" lon="19.1363">
        <ele>1233.0300292969</ele>
        <time>2023-10-03T11:36:57.000Z</time>
      </trkpt>
      <trkpt lat="42.94583" lon="19.13647">
        <ele>1233.5100097656</ele>
        <time>2023-10-03T11:36:56.000Z</time>
      </trkpt>
      <trkpt lat="42.94586" lon="19.13681">
        <ele>1233.9899902344</ele>
        <time>2023-10-03T11:36:55.000Z</time>
      </trkpt>
      <trkpt lat="42.9459" lon="19.13698">
        <ele>1233.9899902344</ele>
        <time>2023-10-03T11:36:54.000Z</time>
      </trkpt>
      <trkpt lat="42.94592" lon="19.13705">
        <ele>1233.9899902344</ele>
        <time>2023-10-03T11:36:53.000Z</time>
      </trkpt>
      <trkpt lat="42.946" lon="19.13727">
        <ele>1234.4699707031</ele>
        <time>2023-10-03T11:36:52.000Z</time>
      </trkpt>
      <trkpt lat="42.94607" lon="19.13747">
        <ele>1234.9499511719</ele>
        <time>2023-10-03T11:36:51.000Z</time>
      </trkpt>
      <trkpt lat="42.94615" lon="19.1376">
        <ele>1235.4300537109</ele>
        <time>2023-10-03T11:36:50.000Z</time>
      </trkpt>
      <trkpt lat="42.9462" lon="19.13769">
        <ele>1236.3900146484</ele>
        <time>2023-10-03T11:36:49.000Z</time>
      </trkpt>
      <trkpt lat="42.94624" lon="19.13778">
        <ele>1236.8699951172</ele>
        <time>2023-10-03T11:36:48.000Z</time>
      </trkpt>
      <trkpt lat="42.94625" lon="19.13787">
        <ele>1237.8299560547</ele>
        <time>2023-10-03T11:36:47.000Z</time>
      </trkpt>
      <trkpt lat="42.94625" lon="19.13796">
        <ele>1238.3199462891</ele>
        <time>2023-10-03T11:36:46.000Z</time>
      </trkpt>
      <trkpt lat="42.94622" lon="19.13812">
        <ele>1239.2800292969</ele>
        <time>2023-10-03T11:36:45.000Z</time>
      </trkpt>
      <trkpt lat="42.94618" lon="19.13829">
        <ele>1239.7600097656</ele>
        <time>2023-10-03T11:36:44.000Z</time>
      </trkpt>
      <trkpt lat="42.94615" lon="19.13845">
        <ele>1240.2399902344</ele>
        <time>2023-10-03T11:36:43.000Z</time>
      </trkpt>
      <trkpt lat="42.94614" lon="19.13858">
        <ele>1240.7199707031</ele>
        <time>2023-10-03T11:36:42.000Z</time>
      </trkpt>
      <trkpt lat="42.94615" lon="19.1387">
        <ele>1240.7199707031</ele>
        <time>2023-10-03T11:36:41.000Z</time>
      </trkpt>
      <trkpt lat="42.94618" lon="19.1388">
        <ele>1240.7199707031</ele>
        <time>2023-10-03T11:36:40.000Z</time>
      </trkpt>
      <trkpt lat="42.94622" lon="19.13888">
        <ele>1240.7199707031</ele>
        <time>2023-10-03T11:36:39.000Z</time>
      </trkpt>
      <trkpt lat="42.94624" lon="19.13896">
        <ele>1240.7199707031</ele>
        <time>2023-10-03T11:36:38.000Z</time>
      </trkpt>
      <trkpt lat="42.94624" lon="19.13905">
        <ele>1240.7199707031</ele>
        <time>2023-10-03T11:36:37.000Z</time>
      </trkpt>
      <trkpt lat="42.94621" lon="19.13914">
        <ele>1240.2399902344</ele>
        <time>2023-10-03T11:36:36.000Z</time>
      </trkpt>
      <trkpt lat="42.94615" lon="19.13922">
        <ele>1240.2399902344</ele>
        <time>2023-10-03T11:36:35.000Z</time>
      </trkpt>
      <trkpt lat="42.94608" lon="19.13927">
        <ele>1239.7600097656</ele>
        <time>2023-10-03T11:36:34.000Z</time>
      </trkpt>
      <trkpt lat="42.94599" lon="19.13928">
        <ele>1239.2800292969</ele>
        <time>2023-10-03T11:36:33.000Z</time>
      </trkpt>
      <trkpt lat="42.94589" lon="19.13927">
        <ele>1238.8000488281</ele>
        <time>2023-10-03T11:36:32.000Z</time>
      </trkpt>
      <trkpt lat="42.94582" lon="19.13924">
        <ele>1238.3199462891</ele>
        <time>2023-10-03T11:36:31.000Z</time>
      </trkpt>
      <trkpt lat="42.94566" lon="19.13916">
        <ele>1238.8000488281</ele>
        <time>2023-10-03T11:36:30.000Z</time>
      </trkpt>
      <trkpt lat="42.94559" lon="19.13917">
        <ele>1238.8000488281</ele>
        <time>2023-10-03T11:36:29.000Z</time>
      </trkpt>
      <trkpt lat="42.94553" lon="19.1392">
        <ele>1239.2800292969</ele>
        <time>2023-10-03T11:36:28.000Z</time>
      </trkpt>
      <trkpt lat="42.94548" lon="19.13926">
        <ele>1240.2399902344</ele>
        <time>2023-10-03T11:36:27.000Z</time>
      </trkpt>
      <trkpt lat="42.94544" lon="19.13936">
        <ele>1241.1999511719</ele>
        <time>2023-10-03T11:36:26.000Z</time>
      </trkpt>
      <trkpt lat="42.94542" lon="19.13948">
        <ele>1242.1600341797</ele>
        <time>2023-10-03T11:36:25.000Z</time>
      </trkpt>
      <trkpt lat="42.94541" lon="19.1396">
        <ele>1243.1199951172</ele>
        <time>2023-10-03T11:36:24.000Z</time>
      </trkpt>
      <trkpt lat="42.94539" lon="19.13974">
        <ele>1244.0799560547</ele>
        <time>2023-10-03T11:36:23.000Z</time>
      </trkpt>
      <trkpt lat="42.94536" lon="19.13985">
        <ele>1244.5600585938</ele>
        <time>2023-10-03T11:36:22.000Z</time>
      </trkpt>
      <trkpt lat="42.94531" lon="19.13993">
        <ele>1244.5600585938</ele>
        <time>2023-10-03T11:36:21.000Z</time>
      </trkpt>
      <trkpt lat="42.94525" lon="19.14">
        <ele>1245.0400390625</ele>
        <time>2023-10-03T11:36:20.000Z</time>
      </trkpt>
      <trkpt lat="42.94518" lon="19.14003">
        <ele>1246.0100097656</ele>
        <time>2023-10-03T11:36:19.000Z</time>
      </trkpt>
      <trkpt lat="42.94509" lon="19.14007">
        <ele>1246.9699707031</ele>
        <time>2023-10-03T11:36:18.000Z</time>
      </trkpt>
      <trkpt lat="42.94498" lon="19.1401">
        <ele>1247.9300537109</ele>
        <time>2023-10-03T11:36:17.000Z</time>
      </trkpt>
      <trkpt lat="42.94492" lon="19.14016">
        <ele>1248.4100341797</ele>
        <time>2023-10-03T11:36:16.000Z</time>
      </trkpt>
      <trkpt lat="42.9449" lon="19.14024">
        <ele>1249.3699951172</ele>
        <time>2023-10-03T11:36:15.000Z</time>
      </trkpt>
      <trkpt lat="42.94489" lon="19.14032">
        <ele>1250.8100585938</ele>
        <time>2023-10-03T11:36:14.000Z</time>
      </trkpt>
      <trkpt lat="42.94486" lon="19.14038">
        <ele>1251.7700195312</ele>
        <time>2023-10-03T11:36:13.000Z</time>
      </trkpt>
      <trkpt lat="42.94481" lon="19.14042">
        <ele>1253.6999511719</ele>
        <time>2023-10-03T11:36:12.000Z</time>
      </trkpt>
      <trkpt lat="42.94475" lon="19.14045">
        <ele>1255.1400146484</ele>
        <time>2023-10-03T11:36:11.000Z</time>
      </trkpt>
      <trkpt lat="42.94464" lon="19.14049">
        <ele>1258.0200195312</ele>
        <time>2023-10-03T11:36:10.000Z</time>
      </trkpt>
      <trkpt lat="42.94454" lon="19.14053">
        <ele>1259.4599609375</ele>
        <time>2023-10-03T11:36:09.000Z</time>
      </trkpt>
      <trkpt lat="42.94443" lon="19.14059">
        <ele>1260.9100341797</ele>
        <time>2023-10-03T11:36:08.000Z</time>
      </trkpt>
      <trkpt lat="42.94435" lon="19.14067">
        <ele>1261.8699951172</ele>
        <time>2023-10-03T11:36:07.000Z</time>
      </trkpt>
      <trkpt lat="42.94429" lon="19.14074">
        <ele>1262.3499755859</ele>
        <time>2023-10-03T11:36:06.000Z</time>
      </trkpt>
      <trkpt lat="42.94402" lon="19.14104">
        <ele>1265.2299804688</ele>
        <time>2023-10-03T11:36:03.000Z</time>
      </trkpt>
      <trkpt lat="42.9439" lon="19.14117">
        <ele>1266.6700439453</ele>
        <time>2023-10-03T11:36:02.000Z</time>
      </trkpt>
      <trkpt lat="42.94373" lon="19.14127">
        <ele>1268.1199951172</ele>
        <time>2023-10-03T11:36:00.000Z</time>
      </trkpt>
      <trkpt lat="42.94367" lon="19.1413">
        <ele>1268.1199951172</ele>
        <time>2023-10-03T11:35:59.000Z</time>
      </trkpt>
      <trkpt lat="42.94364" lon="19.14134">
        <ele>1268.1199951172</ele>
        <time>2023-10-03T11:35:58.000Z</time>
      </trkpt>
      <trkpt lat="42.94363" lon="19.1414">
        <ele>1268.5999755859</ele>
        <time>2023-10-03T11:35:57.000Z</time>
      </trkpt>
      <trkpt lat="42.94364" lon="19.14147">
        <ele>1269.5600585938</ele>
        <time>2023-10-03T11:35:56.000Z</time>
      </trkpt>
      <trkpt lat="42.94366" lon="19.14155">
        <ele>1270.0400390625</ele>
        <time>2023-10-03T11:35:55.000Z</time>
      </trkpt>
      <trkpt lat="42.94371" lon="19.14163">
        <ele>1270.5200195312</ele>
        <time>2023-10-03T11:35:54.000Z</time>
      </trkpt>
      <trkpt lat="42.94378" lon="19.1417">
        <ele>1271</ele>
        <time>2023-10-03T11:35:53.000Z</time>
      </trkpt>
      <trkpt lat="42.94388" lon="19.14177">
        <ele>1271.4799804688</ele>
        <time>2023-10-03T11:35:52.000Z</time>
      </trkpt>
      <trkpt lat="42.94397" lon="19.14181">
        <ele>1271.9599609375</ele>
        <time>2023-10-03T11:35:51.000Z</time>
      </trkpt>
      <trkpt lat="42.94407" lon="19.14182">
        <ele>1271.9599609375</ele>
        <time>2023-10-03T11:35:50.000Z</time>
      </trkpt>
      <trkpt lat="42.94409" lon="19.14182">
        <ele>1272.4399414062</ele>
        <time>2023-10-03T11:35:49.000Z</time>
      </trkpt>
      <trkpt lat="42.94419" lon="19.14181">
        <ele>1272.4399414062</ele>
        <time>2023-10-03T11:35:48.000Z</time>
      </trkpt>
      <trkpt lat="42.94433" lon="19.14179">
        <ele>1272.4399414062</ele>
        <time>2023-10-03T11:35:47.000Z</time>
      </trkpt>
      <trkpt lat="42.94461" lon="19.14172">
        <ele>1272.4399414062</ele>
        <time>2023-10-03T11:35:45.000Z</time>
      </trkpt>
      <trkpt lat="42.94469" lon="19.14172">
        <ele>1272.4399414062</ele>
        <time>2023-10-03T11:35:44.000Z</time>
      </trkpt>
      <trkpt lat="42.94478" lon="19.14174">
        <ele>1272.9200439453</ele>
        <time>2023-10-03T11:35:43.000Z</time>
      </trkpt>
      <trkpt lat="42.9448" lon="19.14174">
        <ele>1272.9200439453</ele>
        <time>2023-10-03T11:35:42.000Z</time>
      </trkpt>
      <trkpt lat="42.945" lon="19.14182">
        <ele>1273.4000244141</ele>
        <time>2023-10-03T11:35:41.000Z</time>
      </trkpt>
      <trkpt lat="42.94509" lon="19.14184">
        <ele>1273.8800048828</ele>
        <time>2023-10-03T11:35:40.000Z</time>
      </trkpt>
      <trkpt lat="42.94529" lon="19.14188">
        <ele>1274.8499755859</ele>
        <time>2023-10-03T11:35:38.000Z</time>
      </trkpt>
      <trkpt lat="42.94547" lon="19.14192">
        <ele>1275.8100585938</ele>
        <time>2023-10-03T11:35:37.000Z</time>
      </trkpt>
      <trkpt lat="42.94557" lon="19.14195">
        <ele>1275.8100585938</ele>
        <time>2023-10-03T11:35:36.000Z</time>
      </trkpt>
      <trkpt lat="42.94564" lon="19.14201">
        <ele>1276.2900390625</ele>
        <time>2023-10-03T11:35:35.000Z</time>
      </trkpt>
      <trkpt lat="42.9457" lon="19.1421">
        <ele>1276.2900390625</ele>
        <time>2023-10-03T11:35:34.000Z</time>
      </trkpt>
      <trkpt lat="42.94574" lon="19.14218">
        <ele>1276.7700195312</ele>
        <time>2023-10-03T11:35:33.000Z</time>
      </trkpt>
      <trkpt lat="42.9458" lon="19.14234">
        <ele>1276.7700195312</ele>
        <time>2023-10-03T11:35:32.000Z</time>
      </trkpt>
      <trkpt lat="42.94586" lon="19.14244">
        <ele>1277.25</ele>
        <time>2023-10-03T11:35:31.000Z</time>
      </trkpt>
      <trkpt lat="42.94591" lon="19.1425">
        <ele>1277.25</ele>
        <time>2023-10-03T11:35:30.000Z</time>
      </trkpt>
      <trkpt lat="42.94602" lon="19.14263">
        <ele>1277.25</ele>
        <time>2023-10-03T11:35:29.000Z</time>
      </trkpt>
      <trkpt lat="42.94609" lon="19.14272">
        <ele>1277.7299804688</ele>
        <time>2023-10-03T11:35:28.000Z</time>
      </trkpt>
      <trkpt lat="42.94613" lon="19.14281">
        <ele>1277.7299804688</ele>
        <time>2023-10-03T11:35:27.000Z</time>
      </trkpt>
      <trkpt lat="42.94615" lon="19.14291">
        <ele>1277.7299804688</ele>
        <time>2023-10-03T11:35:26.000Z</time>
      </trkpt>
      <trkpt lat="42.94615" lon="19.14302">
        <ele>1277.7299804688</ele>
        <time>2023-10-03T11:35:25.000Z</time>
      </trkpt>
      <trkpt lat="42.94613" lon="19.14313">
        <ele>1277.7299804688</ele>
        <time>2023-10-03T11:35:24.000Z</time>
      </trkpt>
      <trkpt lat="42.9461" lon="19.14324">
        <ele>1277.7299804688</ele>
        <time>2023-10-03T11:35:23.000Z</time>
      </trkpt>
      <trkpt lat="42.94604" lon="19.14333">
        <ele>1277.7299804688</ele>
        <time>2023-10-03T11:35:22.000Z</time>
      </trkpt>
      <trkpt lat="42.94598" lon="19.14341">
        <ele>1277.7299804688</ele>
        <time>2023-10-03T11:35:21.000Z</time>
      </trkpt>
      <trkpt lat="42.94588" lon="19.14352">
        <ele>1278.2099609375</ele>
        <time>2023-10-03T11:35:20.000Z</time>
      </trkpt>
      <trkpt lat="42.94583" lon="19.14356">
        <ele>1278.2099609375</ele>
        <time>2023-10-03T11:35:19.000Z</time>
      </trkpt>
      <trkpt lat="42.9457" lon="19.14366">
        <ele>1279.6500244141</ele>
        <time>2023-10-03T11:35:18.000Z</time>
      </trkpt>
      <trkpt lat="42.94559" lon="19.14377">
        <ele>1280.1300048828</ele>
        <time>2023-10-03T11:35:17.000Z</time>
      </trkpt>
      <trkpt lat="42.94549" lon="19.1439">
        <ele>1281.0899658203</ele>
        <time>2023-10-03T11:35:16.000Z</time>
      </trkpt>
      <trkpt lat="42.94542" lon="19.14403">
        <ele>1281.5699462891</ele>
        <time>2023-10-03T11:35:15.000Z</time>
      </trkpt>
      <trkpt lat="42.94539" lon="19.14411">
        <ele>1282.0600585938</ele>
        <time>2023-10-03T11:35:14.000Z</time>
      </trkpt>
      <trkpt lat="42.94535" lon="19.1442">
        <ele>1282.5400390625</ele>
        <time>2023-10-03T11:35:13.000Z</time>
      </trkpt>
      <trkpt lat="42.94525" lon="19.14452">
        <ele>1283.9799804688</ele>
        <time>2023-10-03T11:35:12.000Z</time>
      </trkpt>
      <trkpt lat="42.94519" lon="19.1447">
        <ele>1284.9399414062</ele>
        <time>2023-10-03T11:35:11.000Z</time>
      </trkpt>
      <trkpt lat="42.94509" lon="19.14502">
        <ele>1285.9000244141</ele>
        <time>2023-10-03T11:35:09.000Z</time>
      </trkpt>
      <trkpt lat="42.94498" lon="19.14528">
        <ele>1286.8599853516</ele>
        <time>2023-10-03T11:35:07.000Z</time>
      </trkpt>
      <trkpt lat="42.94494" lon="19.14535">
        <ele>1286.8599853516</ele>
        <time>2023-10-03T11:35:06.000Z</time>
      </trkpt>
      <trkpt lat="42.94483" lon="19.1455">
        <ele>1288.3000488281</ele>
        <time>2023-10-03T11:35:05.000Z</time>
      </trkpt>
      <trkpt lat="42.94478" lon="19.14559">
        <ele>1289.2700195312</ele>
        <time>2023-10-03T11:35:04.000Z</time>
      </trkpt>
      <trkpt lat="42.94475" lon="19.14567">
        <ele>1289.75</ele>
        <time>2023-10-03T11:35:03.000Z</time>
      </trkpt>
      <trkpt lat="42.94474" lon="19.14577">
        <ele>1290.2299804688</ele>
        <time>2023-10-03T11:35:02.000Z</time>
      </trkpt>
      <trkpt lat="42.94474" lon="19.14581">
        <ele>1290.7099609375</ele>
        <time>2023-10-03T11:35:01.000Z</time>
      </trkpt>
      <trkpt lat="42.94477" lon="19.14603">
        <ele>1292.1500244141</ele>
        <time>2023-10-03T11:35:00.000Z</time>
      </trkpt>
      <trkpt lat="42.94477" lon="19.14616">
        <ele>1293.1099853516</ele>
        <time>2023-10-03T11:34:59.000Z</time>
      </trkpt>
      <trkpt lat="42.94475" lon="19.14628">
        <ele>1294.0699462891</ele>
        <time>2023-10-03T11:34:58.000Z</time>
      </trkpt>
      <trkpt lat="42.94473" lon="19.14635">
        <ele>1294.5500488281</ele>
        <time>2023-10-03T11:34:57.000Z</time>
      </trkpt>
      <trkpt lat="42.94466" lon="19.14656">
        <ele>1296.4799804688</ele>
        <time>2023-10-03T11:34:56.000Z</time>
      </trkpt>
      <trkpt lat="42.94462" lon="19.14671">
        <ele>1297.4399414062</ele>
        <time>2023-10-03T11:34:55.000Z</time>
      </trkpt>
      <trkpt lat="42.94461" lon="19.14679">
        <ele>1298.4000244141</ele>
        <time>2023-10-03T11:34:54.000Z</time>
      </trkpt>
      <trkpt lat="42.9446" lon="19.14696">
        <ele>1299.3599853516</ele>
        <time>2023-10-03T11:34:53.000Z</time>
      </trkpt>
      <trkpt lat="42.94458" lon="19.14708">
        <ele>1300.3199462891</ele>
        <time>2023-10-03T11:34:52.000Z</time>
      </trkpt>
      <trkpt lat="42.94455" lon="19.14716">
        <ele>1301.2800292969</ele>
        <time>2023-10-03T11:34:51.000Z</time>
      </trkpt>
      <trkpt lat="42.9445" lon="19.14723">
        <ele>1302.2399902344</ele>
        <time>2023-10-03T11:34:50.000Z</time>
      </trkpt>
      <trkpt lat="42.94444" lon="19.14727">
        <ele>1303.6899414062</ele>
        <time>2023-10-03T11:34:49.000Z</time>
      </trkpt>
      <trkpt lat="42.94436" lon="19.14728">
        <ele>1304.6500244141</ele>
        <time>2023-10-03T11:34:48.000Z</time>
      </trkpt>
      <trkpt lat="42.94428" lon="19.14726">
        <ele>1306.0899658203</ele>
        <time>2023-10-03T11:34:47.000Z</time>
      </trkpt>
      <trkpt lat="42.94419" lon="19.14722">
        <ele>1307.0500488281</ele>
        <time>2023-10-03T11:34:46.000Z</time>
      </trkpt>
      <trkpt lat="42.94413" lon="19.14718">
        <ele>1308.4899902344</ele>
        <time>2023-10-03T11:34:45.000Z</time>
      </trkpt>
      <trkpt lat="42.94406" lon="19.14711">
        <ele>1309.9300537109</ele>
        <time>2023-10-03T11:34:44.000Z</time>
      </trkpt>
      <trkpt lat="42.94398" lon="19.14706">
        <ele>1311.3800048828</ele>
        <time>2023-10-03T11:34:43.000Z</time>
      </trkpt>
      <trkpt lat="42.94391" lon="19.14705">
        <ele>1311.8599853516</ele>
        <time>2023-10-03T11:34:42.000Z</time>
      </trkpt>
      <trkpt lat="42.94385" lon="19.14709">
        <ele>1312.3399658203</ele>
        <time>2023-10-03T11:34:41.000Z</time>
      </trkpt>
      <trkpt lat="42.94381" lon="19.14716">
        <ele>1311.8599853516</ele>
        <time>2023-10-03T11:34:40.000Z</time>
      </trkpt>
      <trkpt lat="42.94377" lon="19.14725">
        <ele>1311.8599853516</ele>
        <time>2023-10-03T11:34:39.000Z</time>
      </trkpt>
      <trkpt lat="42.94375" lon="19.14736">
        <ele>1311.3800048828</ele>
        <time>2023-10-03T11:34:38.000Z</time>
      </trkpt>
      <trkpt lat="42.94374" lon="19.14744">
        <ele>1310.4100341797</ele>
        <time>2023-10-03T11:34:37.000Z</time>
      </trkpt>
      <trkpt lat="42.94374" lon="19.14752">
        <ele>1309.9300537109</ele>
        <time>2023-10-03T11:34:36.000Z</time>
      </trkpt>
      <trkpt lat="42.94375" lon="19.14768">
        <ele>1309.4499511719</ele>
        <time>2023-10-03T11:34:35.000Z</time>
      </trkpt>
      <trkpt lat="42.94376" lon="19.14776">
        <ele>1309.4499511719</ele>
        <time>2023-10-03T11:34:34.000Z</time>
      </trkpt>
      <trkpt lat="42.94376" lon="19.14778">
        <ele>1308.9699707031</ele>
        <time>2023-10-03T11:34:33.000Z</time>
      </trkpt>
      <trkpt lat="42.94373" lon="19.14793">
        <ele>1308.0100097656</ele>
        <time>2023-10-03T11:34:31.000Z</time>
      </trkpt>
      <trkpt lat="42.94368" lon="19.14801">
        <ele>1308.0100097656</ele>
        <time>2023-10-03T11:34:30.000Z</time>
      </trkpt>
      <trkpt lat="42.9436" lon="19.14807">
        <ele>1308.0100097656</ele>
        <time>2023-10-03T11:34:29.000Z</time>
      </trkpt>
      <trkpt lat="42.94351" lon="19.14816">
        <ele>1308.0100097656</ele>
        <time>2023-10-03T11:34:28.000Z</time>
      </trkpt>
      <trkpt lat="42.94343" lon="19.14828">
        <ele>1308.0100097656</ele>
        <time>2023-10-03T11:34:27.000Z</time>
      </trkpt>
      <trkpt lat="42.94337" lon="19.1484">
        <ele>1308.0100097656</ele>
        <time>2023-10-03T11:34:26.000Z</time>
      </trkpt>
      <trkpt lat="42.94331" lon="19.14855">
        <ele>1307.5300292969</ele>
        <time>2023-10-03T11:34:25.000Z</time>
      </trkpt>
      <trkpt lat="42.94326" lon="19.14869">
        <ele>1307.0500488281</ele>
        <time>2023-10-03T11:34:24.000Z</time>
      </trkpt>
      <trkpt lat="42.94325" lon="19.14877">
        <ele>1306.5699462891</ele>
        <time>2023-10-03T11:34:23.000Z</time>
      </trkpt>
      <trkpt lat="42.94323" lon="19.14886">
        <ele>1306.0899658203</ele>
        <time>2023-10-03T11:34:22.000Z</time>
      </trkpt>
      <trkpt lat="42.94318" lon="19.14916">
        <ele>1304.6500244141</ele>
        <time>2023-10-03T11:34:21.000Z</time>
      </trkpt>
      <trkpt lat="42.94316" lon="19.14921">
        <ele>1304.6500244141</ele>
        <time>2023-10-03T11:34:20.000Z</time>
      </trkpt>
      <trkpt lat="42.94305" lon="19.14961">
        <ele>1303.1999511719</ele>
        <time>2023-10-03T11:34:18.000Z</time>
      </trkpt>
      <trkpt lat="42.94295" lon="19.14988">
        <ele>1301.7600097656</ele>
        <time>2023-10-03T11:34:17.000Z</time>
      </trkpt>
      <trkpt lat="42.94289" lon="19.15005">
        <ele>1300.8000488281</ele>
        <time>2023-10-03T11:34:16.000Z</time>
      </trkpt>
      <trkpt lat="42.94286" lon="19.15024">
        <ele>1299.8399658203</ele>
        <time>2023-10-03T11:34:15.000Z</time>
      </trkpt>
      <trkpt lat="42.94285" lon="19.15048">
        <ele>1298.8800048828</ele>
        <time>2023-10-03T11:34:14.000Z</time>
      </trkpt>
      <trkpt lat="42.94284" lon="19.15067">
        <ele>1297.9200439453</ele>
        <time>2023-10-03T11:34:13.000Z</time>
      </trkpt>
      <trkpt lat="42.94283" lon="19.15123">
        <ele>1295.0300292969</ele>
        <time>2023-10-03T11:34:11.000Z</time>
      </trkpt>
      <trkpt lat="42.94284" lon="19.15138">
        <ele>1294.0699462891</ele>
        <time>2023-10-03T11:34:10.000Z</time>
      </trkpt>
      <trkpt lat="42.94286" lon="19.1519">
        <ele>1291.6700439453</ele>
        <time>2023-10-03T11:34:08.000Z</time>
      </trkpt>
      <trkpt lat="42.94285" lon="19.15208">
        <ele>1290.7099609375</ele>
        <time>2023-10-03T11:34:07.000Z</time>
      </trkpt>
      <trkpt lat="42.94283" lon="19.1522">
        <ele>1289.75</ele>
        <time>2023-10-03T11:34:06.000Z</time>
      </trkpt>
      <trkpt lat="42.94279" lon="19.15239">
        <ele>1288.3000488281</ele>
        <time>2023-10-03T11:34:05.000Z</time>
      </trkpt>
      <trkpt lat="42.94277" lon="19.15253">
        <ele>1287.8199462891</ele>
        <time>2023-10-03T11:34:04.000Z</time>
      </trkpt>
      <trkpt lat="42.94274" lon="19.15289">
        <ele>1285.4200439453</ele>
        <time>2023-10-03T11:34:02.000Z</time>
      </trkpt>
      <trkpt lat="42.94271" lon="19.15306">
        <ele>1283.9799804688</ele>
        <time>2023-10-03T11:34:01.000Z</time>
      </trkpt>
      <trkpt lat="42.94264" lon="19.15336">
        <ele>1282.5400390625</ele>
        <time>2023-10-03T11:33:59.000Z</time>
      </trkpt>
      <trkpt lat="42.94258" lon="19.15355">
        <ele>1281.5699462891</ele>
        <time>2023-10-03T11:33:58.000Z</time>
      </trkpt>
      <trkpt lat="42.94254" lon="19.15365">
        <ele>1281.5699462891</ele>
        <time>2023-10-03T11:33:57.000Z</time>
      </trkpt>
      <trkpt lat="42.94248" lon="19.15376">
        <ele>1280.6099853516</ele>
        <time>2023-10-03T11:33:56.000Z</time>
      </trkpt>
      <trkpt lat="42.94245" lon="19.15386">
        <ele>1280.1300048828</ele>
        <time>2023-10-03T11:33:55.000Z</time>
      </trkpt>
      <trkpt lat="42.94244" lon="19.15396">
        <ele>1279.1700439453</ele>
        <time>2023-10-03T11:33:54.000Z</time>
      </trkpt>
      <trkpt lat="42.94243" lon="19.15407">
        <ele>1277.7299804688</ele>
        <time>2023-10-03T11:33:53.000Z</time>
      </trkpt>
      <trkpt lat="42.94241" lon="19.15418">
        <ele>1276.7700195312</ele>
        <time>2023-10-03T11:33:52.000Z</time>
      </trkpt>
      <trkpt lat="42.94237" lon="19.15427">
        <ele>1275.8100585938</ele>
        <time>2023-10-03T11:33:51.000Z</time>
      </trkpt>
      <trkpt lat="42.9423" lon="19.15435">
        <ele>1274.3599853516</ele>
        <time>2023-10-03T11:33:50.000Z</time>
      </trkpt>
      <trkpt lat="42.94212" lon="19.15451">
        <ele>1272.4399414062</ele>
        <time>2023-10-03T11:33:48.000Z</time>
      </trkpt>
      <trkpt lat="42.94202" lon="19.15461">
        <ele>1271</ele>
        <time>2023-10-03T11:33:47.000Z</time>
      </trkpt>
      <trkpt lat="42.94196" lon="19.15469">
        <ele>1270.5200195312</ele>
        <time>2023-10-03T11:33:46.000Z</time>
      </trkpt>
      <trkpt lat="42.9419" lon="19.15476">
        <ele>1270.0400390625</ele>
        <time>2023-10-03T11:33:45.000Z</time>
      </trkpt>
      <trkpt lat="42.94185" lon="19.15482">
        <ele>1270.0400390625</ele>
        <time>2023-10-03T11:33:44.000Z</time>
      </trkpt>
      <trkpt lat="42.94179" lon="19.15484">
        <ele>1269.5600585938</ele>
        <time>2023-10-03T11:33:43.000Z</time>
      </trkpt>
      <trkpt lat="42.94171" lon="19.15485">
        <ele>1269.0799560547</ele>
        <time>2023-10-03T11:33:42.000Z</time>
      </trkpt>
      <trkpt lat="42.94164" lon="19.15486">
        <ele>1268.5999755859</ele>
        <time>2023-10-03T11:33:41.000Z</time>
      </trkpt>
      <trkpt lat="42.94159" lon="19.15491">
        <ele>1268.5999755859</ele>
        <time>2023-10-03T11:33:40.000Z</time>
      </trkpt>
      <trkpt lat="42.94154" lon="19.15499">
        <ele>1268.5999755859</ele>
        <time>2023-10-03T11:33:39.000Z</time>
      </trkpt>
      <trkpt lat="42.94151" lon="19.15508">
        <ele>1268.5999755859</ele>
        <time>2023-10-03T11:33:38.000Z</time>
      </trkpt>
      <trkpt lat="42.94151" lon="19.15517">
        <ele>1269.0799560547</ele>
        <time>2023-10-03T11:33:37.000Z</time>
      </trkpt>
      <trkpt lat="42.94153" lon="19.15525">
        <ele>1269.5600585938</ele>
        <time>2023-10-03T11:33:36.000Z</time>
      </trkpt>
      <trkpt lat="42.94155" lon="19.15528">
        <ele>1269.5600585938</ele>
        <time>2023-10-03T11:33:35.000Z</time>
      </trkpt>
      <trkpt lat="42.94162" lon="19.15538">
        <ele>1270.0400390625</ele>
        <time>2023-10-03T11:33:34.000Z</time>
      </trkpt>
      <trkpt lat="42.94209" lon="19.15603">
        <ele>1275.3299560547</ele>
        <time>2023-10-03T11:33:29.000Z</time>
      </trkpt>
      <trkpt lat="42.94218" lon="19.15618">
        <ele>1276.7700195312</ele>
        <time>2023-10-03T11:33:28.000Z</time>
      </trkpt>
      <trkpt lat="42.94229" lon="19.15636">
        <ele>1278.2099609375</ele>
        <time>2023-10-03T11:33:27.000Z</time>
      </trkpt>
      <trkpt lat="42.94242" lon="19.15662">
        <ele>1280.6099853516</ele>
        <time>2023-10-03T11:33:25.000Z</time>
      </trkpt>
      <trkpt lat="42.9425" lon="19.15677">
        <ele>1282.0600585938</ele>
        <time>2023-10-03T11:33:24.000Z</time>
      </trkpt>
      <trkpt lat="42.94255" lon="19.15686">
        <ele>1283.0200195312</ele>
        <time>2023-10-03T11:33:23.000Z</time>
      </trkpt>
      <trkpt lat="42.94257" lon="19.15697">
        <ele>1283.9799804688</ele>
        <time>2023-10-03T11:33:22.000Z</time>
      </trkpt>
      <trkpt lat="42.94257" lon="19.1571">
        <ele>1284.9399414062</ele>
        <time>2023-10-03T11:33:21.000Z</time>
      </trkpt>
      <trkpt lat="42.94256" lon="19.15719">
        <ele>1285.9000244141</ele>
        <time>2023-10-03T11:33:20.000Z</time>
      </trkpt>
      <trkpt lat="42.94252" lon="19.15743">
        <ele>1287.8199462891</ele>
        <time>2023-10-03T11:33:19.000Z</time>
      </trkpt>
      <trkpt lat="42.94251" lon="19.15755">
        <ele>1288.3000488281</ele>
        <time>2023-10-03T11:33:18.000Z</time>
      </trkpt>
      <trkpt lat="42.94252" lon="19.15771">
        <ele>1289.2700195312</ele>
        <time>2023-10-03T11:33:17.000Z</time>
      </trkpt>
      <trkpt lat="42.94255" lon="19.15788">
        <ele>1290.7099609375</ele>
        <time>2023-10-03T11:33:16.000Z</time>
      </trkpt>
      <trkpt lat="42.94257" lon="19.15799">
        <ele>1291.6700439453</ele>
        <time>2023-10-03T11:33:15.000Z</time>
      </trkpt>
      <trkpt lat="42.94261" lon="19.15819">
        <ele>1292.6300048828</ele>
        <time>2023-10-03T11:33:14.000Z</time>
      </trkpt>
      <trkpt lat="42.94263" lon="19.15834">
        <ele>1293.5899658203</ele>
        <time>2023-10-03T11:33:13.000Z</time>
      </trkpt>
      <trkpt lat="42.94262" lon="19.15848">
        <ele>1294.0699462891</ele>
        <time>2023-10-03T11:33:12.000Z</time>
      </trkpt>
      <trkpt lat="42.94261" lon="19.15857">
        <ele>1294.5500488281</ele>
        <time>2023-10-03T11:33:11.000Z</time>
      </trkpt>
      <trkpt lat="42.94257" lon="19.15875">
        <ele>1295.9899902344</ele>
        <time>2023-10-03T11:33:10.000Z</time>
      </trkpt>
      <trkpt lat="42.94255" lon="19.15889">
        <ele>1296.9599609375</ele>
        <time>2023-10-03T11:33:09.000Z</time>
      </trkpt>
      <trkpt lat="42.94235" lon="19.16024">
        <ele>1302.7199707031</ele>
        <time>2023-10-03T11:33:01.000Z</time>
      </trkpt>
      <trkpt lat="42.94232" lon="19.16037">
        <ele>1303.1999511719</ele>
        <time>2023-10-03T11:33:00.000Z</time>
      </trkpt>
      <trkpt lat="42.94228" lon="19.16049">
        <ele>1303.1999511719</ele>
        <time>2023-10-03T11:32:59.000Z</time>
      </trkpt>
      <trkpt lat="42.94224" lon="19.16058">
        <ele>1304.1700439453</ele>
        <time>2023-10-03T11:32:58.000Z</time>
      </trkpt>
      <trkpt lat="42.94206" lon="19.16089">
        <ele>1306.5699462891</ele>
        <time>2023-10-03T11:32:55.000Z</time>
      </trkpt>
      <trkpt lat="42.94188" lon="19.16125">
        <ele>1308.9699707031</ele>
        <time>2023-10-03T11:32:53.000Z</time>
      </trkpt>
      <trkpt lat="42.94179" lon="19.16145">
        <ele>1310.4100341797</ele>
        <time>2023-10-03T11:32:52.000Z</time>
      </trkpt>
      <trkpt lat="42.94176" lon="19.16155">
        <ele>1310.9000244141</ele>
        <time>2023-10-03T11:32:51.000Z</time>
      </trkpt>
      <trkpt lat="42.94167" lon="19.16182">
        <ele>1312.3399658203</ele>
        <time>2023-10-03T11:32:50.000Z</time>
      </trkpt>
      <trkpt lat="42.94165" lon="19.16187">
        <ele>1312.3399658203</ele>
        <time>2023-10-03T11:32:49.000Z</time>
      </trkpt>
      <trkpt lat="42.94153" lon="19.16213">
        <ele>1313.7800292969</ele>
        <time>2023-10-03T11:32:48.000Z</time>
      </trkpt>
      <trkpt lat="42.94148" lon="19.16228">
        <ele>1313.7800292969</ele>
        <time>2023-10-03T11:32:47.000Z</time>
      </trkpt>
      <trkpt lat="42.94143" lon="19.16244">
        <ele>1313.7800292969</ele>
        <time>2023-10-03T11:32:46.000Z</time>
      </trkpt>
      <trkpt lat="42.9414" lon="19.16259">
        <ele>1313.3000488281</ele>
        <time>2023-10-03T11:32:45.000Z</time>
      </trkpt>
      <trkpt lat="42.94138" lon="19.16272">
        <ele>1313.3000488281</ele>
        <time>2023-10-03T11:32:44.000Z</time>
      </trkpt>
      <trkpt lat="42.94136" lon="19.1629">
        <ele>1314.2600097656</ele>
        <time>2023-10-03T11:32:43.000Z</time>
      </trkpt>
      <trkpt lat="42.94135" lon="19.16313">
        <ele>1315.6999511719</ele>
        <time>2023-10-03T11:32:42.000Z</time>
      </trkpt>
      <trkpt lat="42.94133" lon="19.16328">
        <ele>1317.1400146484</ele>
        <time>2023-10-03T11:32:41.000Z</time>
      </trkpt>
      <trkpt lat="42.9413" lon="19.16343">
        <ele>1318.5899658203</ele>
        <time>2023-10-03T11:32:40.000Z</time>
      </trkpt>
      <trkpt lat="42.94128" lon="19.16356">
        <ele>1319.5500488281</ele>
        <time>2023-10-03T11:32:39.000Z</time>
      </trkpt>
      <trkpt lat="42.94123" lon="19.1637">
        <ele>1320.5100097656</ele>
        <time>2023-10-03T11:32:38.000Z</time>
      </trkpt>
      <trkpt lat="42.94118" lon="19.16381">
        <ele>1321.4699707031</ele>
        <time>2023-10-03T11:32:37.000Z</time>
      </trkpt>
      <trkpt lat="42.94117" lon="19.16383">
        <ele>1321.9499511719</ele>
        <time>2023-10-03T11:32:36.000Z</time>
      </trkpt>
      <trkpt lat="42.94106" lon="19.16402">
        <ele>1322.4300537109</ele>
        <time>2023-10-03T11:32:35.000Z</time>
      </trkpt>
      <trkpt lat="42.94104" lon="19.16404">
        <ele>1322.4300537109</ele>
        <time>2023-10-03T11:32:34.000Z</time>
      </trkpt>
      <trkpt lat="42.94094" lon="19.16425">
        <ele>1321.4699707031</ele>
        <time>2023-10-03T11:32:33.000Z</time>
      </trkpt>
      <trkpt lat="42.94089" lon="19.16432">
        <ele>1320.9899902344</ele>
        <time>2023-10-03T11:32:32.000Z</time>
      </trkpt>
      <trkpt lat="42.94083" lon="19.1644">
        <ele>1320.5100097656</ele>
        <time>2023-10-03T11:32:31.000Z</time>
      </trkpt>
      <trkpt lat="42.94074" lon="19.16451">
        <ele>1320.0300292969</ele>
        <time>2023-10-03T11:32:30.000Z</time>
      </trkpt>
      <trkpt lat="42.94067" lon="19.16458">
        <ele>1319.5500488281</ele>
        <time>2023-10-03T11:32:29.000Z</time>
      </trkpt>
      <trkpt lat="42.94061" lon="19.16464">
        <ele>1319.0699462891</ele>
        <time>2023-10-03T11:32:28.000Z</time>
      </trkpt>
      <trkpt lat="42.94056" lon="19.1647">
        <ele>1318.5899658203</ele>
        <time>2023-10-03T11:32:27.000Z</time>
      </trkpt>
      <trkpt lat="42.94051" lon="19.16478">
        <ele>1318.5899658203</ele>
        <time>2023-10-03T11:32:26.000Z</time>
      </trkpt>
      <trkpt lat="42.94031" lon="19.16505">
        <ele>1319.0699462891</ele>
        <time>2023-10-03T11:32:23.000Z</time>
      </trkpt>
      <trkpt lat="42.94023" lon="19.16516">
        <ele>1319.5500488281</ele>
        <time>2023-10-03T11:32:21.000Z</time>
      </trkpt>
      <trkpt lat="42.94017" lon="19.16523">
        <ele>1320.5100097656</ele>
        <time>2023-10-03T11:32:20.000Z</time>
      </trkpt>
      <trkpt lat="42.94014" lon="19.16528">
        <ele>1320.9899902344</ele>
        <time>2023-10-03T11:32:19.000Z</time>
      </trkpt>
      <trkpt lat="42.94012" lon="19.16531">
        <ele>1321.4699707031</ele>
        <time>2023-10-03T11:32:18.000Z</time>
      </trkpt>
      <trkpt lat="42.94008" lon="19.16537">
        <ele>1321.9499511719</ele>
        <time>2023-10-03T11:32:17.000Z</time>
      </trkpt>
      <trkpt lat="42.94003" lon="19.16544">
        <ele>1322.9100341797</ele>
        <time>2023-10-03T11:32:16.000Z</time>
      </trkpt>
      <trkpt lat="42.93999" lon="19.1655">
        <ele>1323.3900146484</ele>
        <time>2023-10-03T11:32:15.000Z</time>
      </trkpt>
      <trkpt lat="42.93992" lon="19.16563">
        <ele>1325.3100585938</ele>
        <time>2023-10-03T11:32:13.000Z</time>
      </trkpt>
      <trkpt lat="42.93986" lon="19.16572">
        <ele>1326.2800292969</ele>
        <time>2023-10-03T11:32:12.000Z</time>
      </trkpt>
      <trkpt lat="42.93966" lon="19.16602">
        <ele>1330.5999755859</ele>
        <time>2023-10-03T11:32:10.000Z</time>
      </trkpt>
      <trkpt lat="42.93959" lon="19.16618">
        <ele>1333.0100097656</ele>
        <time>2023-10-03T11:32:09.000Z</time>
      </trkpt>
      <trkpt lat="42.93935" lon="19.16679">
        <ele>1339.7299804688</ele>
        <time>2023-10-03T11:32:05.000Z</time>
      </trkpt>
      <trkpt lat="42.93929" lon="19.1669">
        <ele>1341.1800537109</ele>
        <time>2023-10-03T11:32:04.000Z</time>
      </trkpt>
      <trkpt lat="42.93923" lon="19.16698">
        <ele>1342.1400146484</ele>
        <time>2023-10-03T11:32:03.000Z</time>
      </trkpt>
      <trkpt lat="42.93916" lon="19.16703">
        <ele>1343.0999755859</ele>
        <time>2023-10-03T11:32:02.000Z</time>
      </trkpt>
      <trkpt lat="42.93908" lon="19.16705">
        <ele>1344.5400390625</ele>
        <time>2023-10-03T11:32:01.000Z</time>
      </trkpt>
      <trkpt lat="42.939" lon="19.16704">
        <ele>1345.5</ele>
        <time>2023-10-03T11:32:00.000Z</time>
      </trkpt>
      <trkpt lat="42.93891" lon="19.16703">
        <ele>1346.4599609375</ele>
        <time>2023-10-03T11:31:59.000Z</time>
      </trkpt>
      <trkpt lat="42.93884" lon="19.16705">
        <ele>1347.9100341797</ele>
        <time>2023-10-03T11:31:58.000Z</time>
      </trkpt>
      <trkpt lat="42.93877" lon="19.16712">
        <ele>1349.3499755859</ele>
        <time>2023-10-03T11:31:57.000Z</time>
      </trkpt>
      <trkpt lat="42.93872" lon="19.16719">
        <ele>1349.8299560547</ele>
        <time>2023-10-03T11:31:56.000Z</time>
      </trkpt>
      <trkpt lat="42.93863" lon="19.16734">
        <ele>1351.75</ele>
        <time>2023-10-03T11:31:55.000Z</time>
      </trkpt>
      <trkpt lat="42.93856" lon="19.16745">
        <ele>1352.7099609375</ele>
        <time>2023-10-03T11:31:54.000Z</time>
      </trkpt>
      <trkpt lat="42.93845" lon="19.16762">
        <ele>1355.1199951172</ele>
        <time>2023-10-03T11:31:53.000Z</time>
      </trkpt>
      <trkpt lat="42.93839" lon="19.16772">
        <ele>1356.5600585938</ele>
        <time>2023-10-03T11:31:52.000Z</time>
      </trkpt>
      <trkpt lat="42.93837" lon="19.16782">
        <ele>1357.5200195312</ele>
        <time>2023-10-03T11:31:51.000Z</time>
      </trkpt>
      <trkpt lat="42.93836" lon="19.16793">
        <ele>1358.9599609375</ele>
        <time>2023-10-03T11:31:50.000Z</time>
      </trkpt>
      <trkpt lat="42.93835" lon="19.16803">
        <ele>1359.9200439453</ele>
        <time>2023-10-03T11:31:49.000Z</time>
      </trkpt>
      <trkpt lat="42.93832" lon="19.16812">
        <ele>1360.8800048828</ele>
        <time>2023-10-03T11:31:48.000Z</time>
      </trkpt>
      <trkpt lat="42.93828" lon="19.16819">
        <ele>1362.3299560547</ele>
        <time>2023-10-03T11:31:47.000Z</time>
      </trkpt>
      <trkpt lat="42.93826" lon="19.16822">
        <ele>1362.8100585938</ele>
        <time>2023-10-03T11:31:46.000Z</time>
      </trkpt>
      <trkpt lat="42.93814" lon="19.16835">
        <ele>1365.6899414062</ele>
        <time>2023-10-03T11:31:45.000Z</time>
      </trkpt>
      <trkpt lat="42.93808" lon="19.16846">
        <ele>1366.6500244141</ele>
        <time>2023-10-03T11:31:44.000Z</time>
      </trkpt>
      <trkpt lat="42.93805" lon="19.16857">
        <ele>1367.6099853516</ele>
        <time>2023-10-03T11:31:43.000Z</time>
      </trkpt>
      <trkpt lat="42.93799" lon="19.16886">
        <ele>1370.0200195312</ele>
        <time>2023-10-03T11:31:41.000Z</time>
      </trkpt>
      <trkpt lat="42.93796" lon="19.16897">
        <ele>1370.9799804688</ele>
        <time>2023-10-03T11:31:40.000Z</time>
      </trkpt>
      <trkpt lat="42.93791" lon="19.16913">
        <ele>1372.4200439453</ele>
        <time>2023-10-03T11:31:39.000Z</time>
      </trkpt>
      <trkpt lat="42.93788" lon="19.1692">
        <ele>1372.9000244141</ele>
        <time>2023-10-03T11:31:38.000Z</time>
      </trkpt>
      <trkpt lat="42.93779" lon="19.16937">
        <ele>1374.3399658203</ele>
        <time>2023-10-03T11:31:37.000Z</time>
      </trkpt>
      <trkpt lat="42.93776" lon="19.16942">
        <ele>1374.8199462891</ele>
        <time>2023-10-03T11:31:36.000Z</time>
      </trkpt>
      <trkpt lat="42.93768" lon="19.16954">
        <ele>1376.2600097656</ele>
        <time>2023-10-03T11:31:35.000Z</time>
      </trkpt>
      <trkpt lat="42.9376" lon="19.16965">
        <ele>1377.2299804688</ele>
        <time>2023-10-03T11:31:34.000Z</time>
      </trkpt>
      <trkpt lat="42.93749" lon="19.16979">
        <ele>1378.1899414062</ele>
        <time>2023-10-03T11:31:33.000Z</time>
      </trkpt>
      <trkpt lat="42.9374" lon="19.16986">
        <ele>1379.1500244141</ele>
        <time>2023-10-03T11:31:32.000Z</time>
      </trkpt>
      <trkpt lat="42.93732" lon="19.1699">
        <ele>1379.6300048828</ele>
        <time>2023-10-03T11:31:31.000Z</time>
      </trkpt>
      <trkpt lat="42.93723" lon="19.16993">
        <ele>1380.1099853516</ele>
        <time>2023-10-03T11:31:30.000Z</time>
      </trkpt>
      <trkpt lat="42.93714" lon="19.16993">
        <ele>1380.5899658203</ele>
        <time>2023-10-03T11:31:29.000Z</time>
      </trkpt>
      <trkpt lat="42.93705" lon="19.1699">
        <ele>1381.0699462891</ele>
        <time>2023-10-03T11:31:28.000Z</time>
      </trkpt>
      <trkpt lat="42.93697" lon="19.16985">
        <ele>1381.0699462891</ele>
        <time>2023-10-03T11:31:27.000Z</time>
      </trkpt>
      <trkpt lat="42.93687" lon="19.16981">
        <ele>1380.5899658203</ele>
        <time>2023-10-03T11:31:26.000Z</time>
      </trkpt>
      <trkpt lat="42.93679" lon="19.1698">
        <ele>1380.1099853516</ele>
        <time>2023-10-03T11:31:25.000Z</time>
      </trkpt>
      <trkpt lat="42.93672" lon="19.16984">
        <ele>1379.1500244141</ele>
        <time>2023-10-03T11:31:24.000Z</time>
      </trkpt>
      <trkpt lat="42.93666" lon="19.16992">
        <ele>1378.6700439453</ele>
        <time>2023-10-03T11:31:23.000Z</time>
      </trkpt>
      <trkpt lat="42.93663" lon="19.16998">
        <ele>1378.6700439453</ele>
        <time>2023-10-03T11:31:22.000Z</time>
      </trkpt>
      <trkpt lat="42.93626" lon="19.17067">
        <ele>1377.7099609375</ele>
        <time>2023-10-03T11:31:18.000Z</time>
      </trkpt>
      <trkpt lat="42.93567" lon="19.17173">
        <ele>1380.5899658203</ele>
        <time>2023-10-03T11:31:12.000Z</time>
      </trkpt>
      <trkpt lat="42.93558" lon="19.17184">
        <ele>1381.0699462891</ele>
        <time>2023-10-03T11:31:11.000Z</time>
      </trkpt>
      <trkpt lat="42.93553" lon="19.17189">
        <ele>1381.0699462891</ele>
        <time>2023-10-03T11:31:10.000Z</time>
      </trkpt>
      <trkpt lat="42.93544" lon="19.17197">
        <ele>1381.0699462891</ele>
        <time>2023-10-03T11:31:09.000Z</time>
      </trkpt>
      <trkpt lat="42.93525" lon="19.17212">
        <ele>1381.5500488281</ele>
        <time>2023-10-03T11:31:08.000Z</time>
      </trkpt>
      <trkpt lat="42.93511" lon="19.17221">
        <ele>1382.0300292969</ele>
        <time>2023-10-03T11:31:07.000Z</time>
      </trkpt>
      <trkpt lat="42.935" lon="19.17227">
        <ele>1382.5100097656</ele>
        <time>2023-10-03T11:31:06.000Z</time>
      </trkpt>
      <trkpt lat="42.93458" lon="19.17246">
        <ele>1384.9200439453</ele>
        <time>2023-10-03T11:31:03.000Z</time>
      </trkpt>
      <trkpt lat="42.93456" lon="19.17248">
        <ele>1384.9200439453</ele>
        <time>2023-10-03T11:31:02.000Z</time>
      </trkpt>
      <trkpt lat="42.93435" lon="19.17262">
        <ele>1385.8800048828</ele>
        <time>2023-10-03T11:31:01.000Z</time>
      </trkpt>
      <trkpt lat="42.93422" lon="19.17269">
        <ele>1386.3599853516</ele>
        <time>2023-10-03T11:31:00.000Z</time>
      </trkpt>
      <trkpt lat="42.9341" lon="19.17272">
        <ele>1385.8800048828</ele>
        <time>2023-10-03T11:30:59.000Z</time>
      </trkpt>
      <trkpt lat="42.93396" lon="19.17273">
        <ele>1386.3599853516</ele>
        <time>2023-10-03T11:30:58.000Z</time>
      </trkpt>
      <trkpt lat="42.93388" lon="19.17274">
        <ele>1386.3599853516</ele>
        <time>2023-10-03T11:30:57.000Z</time>
      </trkpt>
      <trkpt lat="42.93368" lon="19.17273">
        <ele>1385.8800048828</ele>
        <time>2023-10-03T11:30:56.000Z</time>
      </trkpt>
      <trkpt lat="42.93355" lon="19.17272">
        <ele>1384.9200439453</ele>
        <time>2023-10-03T11:30:55.000Z</time>
      </trkpt>
      <trkpt lat="42.93345" lon="19.17273">
        <ele>1385.4000244141</ele>
        <time>2023-10-03T11:30:54.000Z</time>
      </trkpt>
      <trkpt lat="42.93334" lon="19.17276">
        <ele>1385.8800048828</ele>
        <time>2023-10-03T11:30:53.000Z</time>
      </trkpt>
      <trkpt lat="42.93326" lon="19.1728">
        <ele>1386.3599853516</ele>
        <time>2023-10-03T11:30:52.000Z</time>
      </trkpt>
      <trkpt lat="42.93311" lon="19.17289">
        <ele>1387.3199462891</ele>
        <time>2023-10-03T11:30:51.000Z</time>
      </trkpt>
      <trkpt lat="42.93298" lon="19.173">
        <ele>1388.2800292969</ele>
        <time>2023-10-03T11:30:50.000Z</time>
      </trkpt>
      <trkpt lat="42.9329" lon="19.17307">
        <ele>1388.7600097656</ele>
        <time>2023-10-03T11:30:49.000Z</time>
      </trkpt>
      <trkpt lat="42.93277" lon="19.17318">
        <ele>1390.1999511719</ele>
        <time>2023-10-03T11:30:48.000Z</time>
      </trkpt>
      <trkpt lat="42.93268" lon="19.17325">
        <ele>1391.1700439453</ele>
        <time>2023-10-03T11:30:47.000Z</time>
      </trkpt>
      <trkpt lat="42.9326" lon="19.17329">
        <ele>1391.6500244141</ele>
        <time>2023-10-03T11:30:46.000Z</time>
      </trkpt>
      <trkpt lat="42.93247" lon="19.17334">
        <ele>1393.0899658203</ele>
        <time>2023-10-03T11:30:45.000Z</time>
      </trkpt>
      <trkpt lat="42.93238" lon="19.17336">
        <ele>1393.0899658203</ele>
        <time>2023-10-03T11:30:44.000Z</time>
      </trkpt>
      <trkpt lat="42.93198" lon="19.17343">
        <ele>1395.9699707031</ele>
        <time>2023-10-03T11:30:41.000Z</time>
      </trkpt>
      <trkpt lat="42.93189" lon="19.17346">
        <ele>1396.9300537109</ele>
        <time>2023-10-03T11:30:40.000Z</time>
      </trkpt>
      <trkpt lat="42.93166" lon="19.17358">
        <ele>1398.8599853516</ele>
        <time>2023-10-03T11:30:38.000Z</time>
      </trkpt>
      <trkpt lat="42.93155" lon="19.17362">
        <ele>1399.3399658203</ele>
        <time>2023-10-03T11:30:37.000Z</time>
      </trkpt>
      <trkpt lat="42.93148" lon="19.17364">
        <ele>1400.3000488281</ele>
        <time>2023-10-03T11:30:36.000Z</time>
      </trkpt>
      <trkpt lat="42.93132" lon="19.17366">
        <ele>1401.7399902344</ele>
        <time>2023-10-03T11:30:35.000Z</time>
      </trkpt>
      <trkpt lat="42.93121" lon="19.17369">
        <ele>1402.6999511719</ele>
        <time>2023-10-03T11:30:34.000Z</time>
      </trkpt>
      <trkpt lat="42.93103" lon="19.17378">
        <ele>1405.0999755859</ele>
        <time>2023-10-03T11:30:32.000Z</time>
      </trkpt>
      <trkpt lat="42.93058" lon="19.17397">
        <ele>1412.3100585938</ele>
        <time>2023-10-03T11:30:29.000Z</time>
      </trkpt>
      <trkpt lat="42.93029" lon="19.17411">
        <ele>1416.6400146484</ele>
        <time>2023-10-03T11:30:27.000Z</time>
      </trkpt>
      <trkpt lat="42.9301" lon="19.1742">
        <ele>1419.5200195312</ele>
        <time>2023-10-03T11:30:25.000Z</time>
      </trkpt>
      <trkpt lat="42.92992" lon="19.17429">
        <ele>1421.9300537109</ele>
        <time>2023-10-03T11:30:24.000Z</time>
      </trkpt>
      <trkpt lat="42.92979" lon="19.17436">
        <ele>1423.8499755859</ele>
        <time>2023-10-03T11:30:23.000Z</time>
      </trkpt>
      <trkpt lat="42.92971" lon="19.1744">
        <ele>1425.2900390625</ele>
        <time>2023-10-03T11:30:22.000Z</time>
      </trkpt>
      <trkpt lat="42.92967" lon="19.17445">
        <ele>1426.7299804688</ele>
        <time>2023-10-03T11:30:21.000Z</time>
      </trkpt>
      <trkpt lat="42.92967" lon="19.1745">
        <ele>1428.1800537109</ele>
        <time>2023-10-03T11:30:20.000Z</time>
      </trkpt>
      <trkpt lat="42.92969" lon="19.17455">
        <ele>1429.6199951172</ele>
        <time>2023-10-03T11:30:19.000Z</time>
      </trkpt>
      <trkpt lat="42.92975" lon="19.17459">
        <ele>1430.5799560547</ele>
        <time>2023-10-03T11:30:18.000Z</time>
      </trkpt>
      <trkpt lat="42.92984" lon="19.17461">
        <ele>1432.5</ele>
        <time>2023-10-03T11:30:17.000Z</time>
      </trkpt>
      <trkpt lat="42.92993" lon="19.17461">
        <ele>1433.4599609375</ele>
        <time>2023-10-03T11:30:16.000Z</time>
      </trkpt>
      <trkpt lat="42.93004" lon="19.17461">
        <ele>1434.9100341797</ele>
        <time>2023-10-03T11:30:15.000Z</time>
      </trkpt>
      <trkpt lat="42.93014" lon="19.17462">
        <ele>1436.3499755859</ele>
        <time>2023-10-03T11:30:14.000Z</time>
      </trkpt>
      <trkpt lat="42.93023" lon="19.17467">
        <ele>1436.8299560547</ele>
        <time>2023-10-03T11:30:13.000Z</time>
      </trkpt>
      <trkpt lat="42.93026" lon="19.1747">
        <ele>1437.3100585938</ele>
        <time>2023-10-03T11:30:12.000Z</time>
      </trkpt>
      <trkpt lat="42.93048" lon="19.1749">
        <ele>1439.7099609375</ele>
        <time>2023-10-03T11:30:10.000Z</time>
      </trkpt>
      <trkpt lat="42.93058" lon="19.17499">
        <ele>1440.6700439453</ele>
        <time>2023-10-03T11:30:09.000Z</time>
      </trkpt>
      <trkpt lat="42.93066" lon="19.17506">
        <ele>1441.6300048828</ele>
        <time>2023-10-03T11:30:08.000Z</time>
      </trkpt>
      <trkpt lat="42.93071" lon="19.17515">
        <ele>1442.5999755859</ele>
        <time>2023-10-03T11:30:07.000Z</time>
      </trkpt>
      <trkpt lat="42.93075" lon="19.17524">
        <ele>1443.5600585938</ele>
        <time>2023-10-03T11:30:06.000Z</time>
      </trkpt>
      <trkpt lat="42.93077" lon="19.17536">
        <ele>1444.5200195312</ele>
        <time>2023-10-03T11:30:05.000Z</time>
      </trkpt>
      <trkpt lat="42.93077" lon="19.17549">
        <ele>1445.4799804688</ele>
        <time>2023-10-03T11:30:04.000Z</time>
      </trkpt>
      <trkpt lat="42.93077" lon="19.17561">
        <ele>1446.4399414062</ele>
        <time>2023-10-03T11:30:03.000Z</time>
      </trkpt>
      <trkpt lat="42.93075" lon="19.17569">
        <ele>1447.4000244141</ele>
        <time>2023-10-03T11:30:02.000Z</time>
      </trkpt>
      <trkpt lat="42.93071" lon="19.17575">
        <ele>1448.3599853516</ele>
        <time>2023-10-03T11:30:01.000Z</time>
      </trkpt>
      <trkpt lat="42.93065" lon="19.17576">
        <ele>1448.8399658203</ele>
        <time>2023-10-03T11:30:00.000Z</time>
      </trkpt>
      <trkpt lat="42.93058" lon="19.17575">
        <ele>1449.8100585938</ele>
        <time>2023-10-03T11:29:59.000Z</time>
      </trkpt>
      <trkpt lat="42.93054" lon="19.17573">
        <ele>1450.2900390625</ele>
        <time>2023-10-03T11:29:58.000Z</time>
      </trkpt>
      <trkpt lat="42.93044" lon="19.17566">
        <ele>1451.25</ele>
        <time>2023-10-03T11:29:57.000Z</time>
      </trkpt>
      <trkpt lat="42.93038" lon="19.17565">
        <ele>1452.2099609375</ele>
        <time>2023-10-03T11:29:56.000Z</time>
      </trkpt>
      <trkpt lat="42.93032" lon="19.17565">
        <ele>1452.6899414062</ele>
        <time>2023-10-03T11:29:55.000Z</time>
      </trkpt>
      <trkpt lat="42.93027" lon="19.17566">
        <ele>1453.1700439453</ele>
        <time>2023-10-03T11:29:54.000Z</time>
      </trkpt>
      <trkpt lat="42.93021" lon="19.17571">
        <ele>1454.1300048828</ele>
        <time>2023-10-03T11:29:53.000Z</time>
      </trkpt>
      <trkpt lat="42.93018" lon="19.17574">
        <ele>1454.6099853516</ele>
        <time>2023-10-03T11:29:52.000Z</time>
      </trkpt>
      <trkpt lat="42.93008" lon="19.17583">
        <ele>1456.0500488281</ele>
        <time>2023-10-03T11:29:51.000Z</time>
      </trkpt>
      <trkpt lat="42.92996" lon="19.17593">
        <ele>1457.9799804688</ele>
        <time>2023-10-03T11:29:50.000Z</time>
      </trkpt>
      <trkpt lat="42.92993" lon="19.17594">
        <ele>1458.4599609375</ele>
        <time>2023-10-03T11:29:49.000Z</time>
      </trkpt>
      <trkpt lat="42.92974" lon="19.17604">
        <ele>1460.8599853516</ele>
        <time>2023-10-03T11:29:48.000Z</time>
      </trkpt>
      <trkpt lat="42.92971" lon="19.17606">
        <ele>1461.3399658203</ele>
        <time>2023-10-03T11:29:47.000Z</time>
      </trkpt>
      <trkpt lat="42.92956" lon="19.17617">
        <ele>1463.2600097656</ele>
        <time>2023-10-03T11:29:46.000Z</time>
      </trkpt>
      <trkpt lat="42.92925" lon="19.17645">
        <ele>1467.1099853516</ele>
        <time>2023-10-03T11:29:43.000Z</time>
      </trkpt>
      <trkpt lat="42.92918" lon="19.17653">
        <ele>1467.5899658203</ele>
        <time>2023-10-03T11:29:42.000Z</time>
      </trkpt>
      <trkpt lat="42.92911" lon="19.17661">
        <ele>1468.5500488281</ele>
        <time>2023-10-03T11:29:41.000Z</time>
      </trkpt>
      <trkpt lat="42.92885" lon="19.177">
        <ele>1471.4399414062</ele>
        <time>2023-10-03T11:29:38.000Z</time>
      </trkpt>
      <trkpt lat="42.92877" lon="19.1771">
        <ele>1472.4000244141</ele>
        <time>2023-10-03T11:29:37.000Z</time>
      </trkpt>
      <trkpt lat="42.92869" lon="19.17716">
        <ele>1473.3599853516</ele>
        <time>2023-10-03T11:29:36.000Z</time>
      </trkpt>
      <trkpt lat="42.92866" lon="19.17718">
        <ele>1473.8399658203</ele>
        <time>2023-10-03T11:29:35.000Z</time>
      </trkpt>
      <trkpt lat="42.92829" lon="19.17741">
        <ele>1478.1600341797</ele>
        <time>2023-10-03T11:29:32.000Z</time>
      </trkpt>
      <trkpt lat="42.92821" lon="19.17749">
        <ele>1478.6500244141</ele>
        <time>2023-10-03T11:29:31.000Z</time>
      </trkpt>
      <trkpt lat="42.92814" lon="19.17759">
        <ele>1480.0899658203</ele>
        <time>2023-10-03T11:29:30.000Z</time>
      </trkpt>
      <trkpt lat="42.92808" lon="19.17769">
        <ele>1481.0500488281</ele>
        <time>2023-10-03T11:29:29.000Z</time>
      </trkpt>
      <trkpt lat="42.92805" lon="19.17773">
        <ele>1481.5300292969</ele>
        <time>2023-10-03T11:29:28.000Z</time>
      </trkpt>
      <trkpt lat="42.92795" lon="19.17787">
        <ele>1482.4899902344</ele>
        <time>2023-10-03T11:29:27.000Z</time>
      </trkpt>
      <trkpt lat="42.92792" lon="19.17794">
        <ele>1483.4499511719</ele>
        <time>2023-10-03T11:29:26.000Z</time>
      </trkpt>
      <trkpt lat="42.92792" lon="19.17799">
        <ele>1483.9300537109</ele>
        <time>2023-10-03T11:29:25.000Z</time>
      </trkpt>
      <trkpt lat="42.92793" lon="19.17804">
        <ele>1484.4100341797</ele>
        <time>2023-10-03T11:29:24.000Z</time>
      </trkpt>
      <trkpt lat="42.92798" lon="19.17808">
        <ele>1485.3699951172</ele>
        <time>2023-10-03T11:29:23.000Z</time>
      </trkpt>
      <trkpt lat="42.92802" lon="19.1781">
        <ele>1485.8499755859</ele>
        <time>2023-10-03T11:29:22.000Z</time>
      </trkpt>
      <trkpt lat="42.92814" lon="19.17814">
        <ele>1487.3000488281</ele>
        <time>2023-10-03T11:29:21.000Z</time>
      </trkpt>
      <trkpt lat="42.92821" lon="19.1782">
        <ele>1487.7800292969</ele>
        <time>2023-10-03T11:29:20.000Z</time>
      </trkpt>
      <trkpt lat="42.92826" lon="19.17827">
        <ele>1488.7399902344</ele>
        <time>2023-10-03T11:29:19.000Z</time>
      </trkpt>
      <trkpt lat="42.9283" lon="19.17838">
        <ele>1489.6999511719</ele>
        <time>2023-10-03T11:29:18.000Z</time>
      </trkpt>
      <trkpt lat="42.92832" lon="19.17852">
        <ele>1490.6600341797</ele>
        <time>2023-10-03T11:29:17.000Z</time>
      </trkpt>
      <trkpt lat="42.92834" lon="19.17865">
        <ele>1491.1400146484</ele>
        <time>2023-10-03T11:29:16.000Z</time>
      </trkpt>
      <trkpt lat="42.92837" lon="19.17879">
        <ele>1491.6199951172</ele>
        <time>2023-10-03T11:29:15.000Z</time>
      </trkpt>
      <trkpt lat="42.92841" lon="19.1789">
        <ele>1492.0999755859</ele>
        <time>2023-10-03T11:29:14.000Z</time>
      </trkpt>
      <trkpt lat="42.92842" lon="19.17892">
        <ele>1492.0999755859</ele>
        <time>2023-10-03T11:29:13.000Z</time>
      </trkpt>
      <trkpt lat="42.92859" lon="19.17929">
        <ele>1492.5799560547</ele>
        <time>2023-10-03T11:29:11.000Z</time>
      </trkpt>
      <trkpt lat="42.92864" lon="19.1794">
        <ele>1493.0600585938</ele>
        <time>2023-10-03T11:29:10.000Z</time>
      </trkpt>
      <trkpt lat="42.92868" lon="19.17954">
        <ele>1494.0300292969</ele>
        <time>2023-10-03T11:29:09.000Z</time>
      </trkpt>
      <trkpt lat="42.92873" lon="19.17974">
        <ele>1495.4699707031</ele>
        <time>2023-10-03T11:29:08.000Z</time>
      </trkpt>
      <trkpt lat="42.92875" lon="19.17989">
        <ele>1497.3900146484</ele>
        <time>2023-10-03T11:29:07.000Z</time>
      </trkpt>
      <trkpt lat="42.92875" lon="19.18003">
        <ele>1498.8299560547</ele>
        <time>2023-10-03T11:29:06.000Z</time>
      </trkpt>
      <trkpt lat="42.92874" lon="19.18017">
        <ele>1500.7600097656</ele>
        <time>2023-10-03T11:29:05.000Z</time>
      </trkpt>
      <trkpt lat="42.92872" lon="19.18029">
        <ele>1502.1999511719</ele>
        <time>2023-10-03T11:29:04.000Z</time>
      </trkpt>
      <trkpt lat="42.92865" lon="19.18058">
        <ele>1505.5600585938</ele>
        <time>2023-10-03T11:29:02.000Z</time>
      </trkpt>
      <trkpt lat="42.92863" lon="19.1807">
        <ele>1506.5200195312</ele>
        <time>2023-10-03T11:29:01.000Z</time>
      </trkpt>
      <trkpt lat="42.9286" lon="19.18097">
        <ele>1507.9699707031</ele>
        <time>2023-10-03T11:28:59.000Z</time>
      </trkpt>
      <trkpt lat="42.92858" lon="19.18113">
        <ele>1509.4100341797</ele>
        <time>2023-10-03T11:28:58.000Z</time>
      </trkpt>
      <trkpt lat="42.92856" lon="19.18129">
        <ele>1510.8499755859</ele>
        <time>2023-10-03T11:28:57.000Z</time>
      </trkpt>
      <trkpt lat="42.92855" lon="19.18136">
        <ele>1511.3299560547</ele>
        <time>2023-10-03T11:28:56.000Z</time>
      </trkpt>
      <trkpt lat="42.92852" lon="19.18158">
        <ele>1513.7299804688</ele>
        <time>2023-10-03T11:28:55.000Z</time>
      </trkpt>
      <trkpt lat="42.92853" lon="19.18168">
        <ele>1514.2099609375</ele>
        <time>2023-10-03T11:28:54.000Z</time>
      </trkpt>
      <trkpt lat="42.92854" lon="19.18173">
        <ele>1514.6899414062</ele>
        <time>2023-10-03T11:28:53.000Z</time>
      </trkpt>
      <trkpt lat="42.92857" lon="19.18195">
        <ele>1516.6199951172</ele>
        <time>2023-10-03T11:28:52.000Z</time>
      </trkpt>
      <trkpt lat="42.9286" lon="19.18211">
        <ele>1518.0600585938</ele>
        <time>2023-10-03T11:28:51.000Z</time>
      </trkpt>
      <trkpt lat="42.92861" lon="19.18228">
        <ele>1519.5</ele>
        <time>2023-10-03T11:28:50.000Z</time>
      </trkpt>
      <trkpt lat="42.92861" lon="19.18235">
        <ele>1519.9799804688</ele>
        <time>2023-10-03T11:28:49.000Z</time>
      </trkpt>
      <trkpt lat="42.92861" lon="19.18268">
        <ele>1521.4200439453</ele>
        <time>2023-10-03T11:28:47.000Z</time>
      </trkpt>
      <trkpt lat="42.92862" lon="19.18279">
        <ele>1521.4200439453</ele>
        <time>2023-10-03T11:28:46.000Z</time>
      </trkpt>
      <trkpt lat="42.92863" lon="19.18289">
        <ele>1521.9000244141</ele>
        <time>2023-10-03T11:28:45.000Z</time>
      </trkpt>
      <trkpt lat="42.92866" lon="19.183">
        <ele>1521.9000244141</ele>
        <time>2023-10-03T11:28:44.000Z</time>
      </trkpt>
      <trkpt lat="42.92866" lon="19.18306">
        <ele>1521.9000244141</ele>
        <time>2023-10-03T11:28:43.000Z</time>
      </trkpt>
      <trkpt lat="42.92866" lon="19.18312">
        <ele>1521.4200439453</ele>
        <time>2023-10-03T11:28:35.000Z</time>
      </trkpt>
      <trkpt lat="42.92866" lon="19.18312">
        <ele>1520.9399414062</ele>
        <time>2023-10-03T11:28:14.000Z</time>
      </trkpt>
      <trkpt lat="42.92853" lon="19.18352">
        <ele>1524.3100585938</ele>
        <time>2023-10-03T11:28:09.000Z</time>
      </trkpt>
      <trkpt lat="42.92839" lon="19.18398">
        <ele>1529.1099853516</ele>
        <time>2023-10-03T11:28:05.000Z</time>
      </trkpt>
      <trkpt lat="42.92833" lon="19.18424">
        <ele>1532.9599609375</ele>
        <time>2023-10-03T11:28:03.000Z</time>
      </trkpt>
      <trkpt lat="42.92829" lon="19.18434">
        <ele>1533.9200439453</ele>
        <time>2023-10-03T11:28:02.000Z</time>
      </trkpt>
      <trkpt lat="42.92823" lon="19.18442">
        <ele>1534.8800048828</ele>
        <time>2023-10-03T11:28:01.000Z</time>
      </trkpt>
      <trkpt lat="42.92816" lon="19.1845">
        <ele>1535.8399658203</ele>
        <time>2023-10-03T11:28:00.000Z</time>
      </trkpt>
      <trkpt lat="42.92807" lon="19.18457">
        <ele>1536.8000488281</ele>
        <time>2023-10-03T11:27:59.000Z</time>
      </trkpt>
      <trkpt lat="42.92795" lon="19.18463">
        <ele>1537.2900390625</ele>
        <time>2023-10-03T11:27:58.000Z</time>
      </trkpt>
      <trkpt lat="42.92789" lon="19.18466">
        <ele>1537.2900390625</ele>
        <time>2023-10-03T11:27:57.000Z</time>
      </trkpt>
      <trkpt lat="42.92731" lon="19.18489">
        <ele>1539.6899414062</ele>
        <time>2023-10-03T11:27:52.000Z</time>
      </trkpt>
      <trkpt lat="42.92719" lon="19.18496">
        <ele>1539.2099609375</ele>
        <time>2023-10-03T11:27:51.000Z</time>
      </trkpt>
      <trkpt lat="42.92717" lon="19.18497">
        <ele>1539.2099609375</ele>
        <time>2023-10-03T11:27:50.000Z</time>
      </trkpt>
      <trkpt lat="42.92676" lon="19.18529">
        <ele>1540.1700439453</ele>
        <time>2023-10-03T11:27:47.000Z</time>
      </trkpt>
      <trkpt lat="42.92666" lon="19.18535">
        <ele>1542.5699462891</ele>
        <time>2023-10-03T11:27:46.000Z</time>
      </trkpt>
      <trkpt lat="42.92659" lon="19.18538">
        <ele>1542.5699462891</ele>
        <time>2023-10-03T11:27:45.000Z</time>
      </trkpt>
      <trkpt lat="42.92646" lon="19.18544">
        <ele>1542.0899658203</ele>
        <time>2023-10-03T11:27:44.000Z</time>
      </trkpt>
      <trkpt lat="42.92616" lon="19.18558">
        <ele>1541.1300048828</ele>
        <time>2023-10-03T11:27:41.000Z</time>
      </trkpt>
      <trkpt lat="42.92605" lon="19.18561">
        <ele>1541.1300048828</ele>
        <time>2023-10-03T11:27:40.000Z</time>
      </trkpt>
      <trkpt lat="42.92593" lon="19.18563">
        <ele>1541.1300048828</ele>
        <time>2023-10-03T11:27:39.000Z</time>
      </trkpt>
      <trkpt lat="42.92548" lon="19.18566">
        <ele>1542.5699462891</ele>
        <time>2023-10-03T11:27:34.000Z</time>
      </trkpt>
      <trkpt lat="42.92543" lon="19.18565">
        <ele>1543.0500488281</ele>
        <time>2023-10-03T11:27:33.000Z</time>
      </trkpt>
      <trkpt lat="42.92537" lon="19.18562">
        <ele>1543.5300292969</ele>
        <time>2023-10-03T11:27:32.000Z</time>
      </trkpt>
      <trkpt lat="42.92532" lon="19.18558">
        <ele>1544.0100097656</ele>
        <time>2023-10-03T11:27:31.000Z</time>
      </trkpt>
      <trkpt lat="42.92527" lon="19.18551">
        <ele>1544.5</ele>
        <time>2023-10-03T11:27:30.000Z</time>
      </trkpt>
      <trkpt lat="42.92524" lon="19.18547">
        <ele>1544.0100097656</ele>
        <time>2023-10-03T11:27:29.000Z</time>
      </trkpt>
      <trkpt lat="42.92505" lon="19.18517">
        <ele>1539.6899414062</ele>
        <time>2023-10-03T11:27:26.000Z</time>
      </trkpt>
      <trkpt lat="42.92497" lon="19.18506">
        <ele>1537.2900390625</ele>
        <time>2023-10-03T11:27:25.000Z</time>
      </trkpt>
      <trkpt lat="42.92489" lon="19.18498">
        <ele>1535.8399658203</ele>
        <time>2023-10-03T11:27:24.000Z</time>
      </trkpt>
      <trkpt lat="42.92479" lon="19.1849">
        <ele>1533.9200439453</ele>
        <time>2023-10-03T11:27:23.000Z</time>
      </trkpt>
      <trkpt lat="42.9247" lon="19.18482">
        <ele>1532</ele>
        <time>2023-10-03T11:27:22.000Z</time>
      </trkpt>
      <trkpt lat="42.9246" lon="19.18475">
        <ele>1529.5899658203</ele>
        <time>2023-10-03T11:27:21.000Z</time>
      </trkpt>
      <trkpt lat="42.9245" lon="19.1847">
        <ele>1526.7099609375</ele>
        <time>2023-10-03T11:27:20.000Z</time>
      </trkpt>
      <trkpt lat="42.92448" lon="19.18469">
        <ele>1525.75</ele>
        <time>2023-10-03T11:27:19.000Z</time>
      </trkpt>
      <trkpt lat="42.92402" lon="19.18453">
        <ele>1519.5</ele>
        <time>2023-10-03T11:27:16.000Z</time>
      </trkpt>
      <trkpt lat="42.92392" lon="19.18446">
        <ele>1519.5</ele>
        <time>2023-10-03T11:27:15.000Z</time>
      </trkpt>
      <trkpt lat="42.92381" lon="19.18439">
        <ele>1520.4599609375</ele>
        <time>2023-10-03T11:27:14.000Z</time>
      </trkpt>
      <trkpt lat="42.92373" lon="19.18435">
        <ele>1520.9399414062</ele>
        <time>2023-10-03T11:27:13.000Z</time>
      </trkpt>
      <trkpt lat="42.92364" lon="19.18431">
        <ele>1520.4599609375</ele>
        <time>2023-10-03T11:27:12.000Z</time>
      </trkpt>
      <trkpt lat="42.92354" lon="19.18429">
        <ele>1520.4599609375</ele>
        <time>2023-10-03T11:27:11.000Z</time>
      </trkpt>
      <trkpt lat="42.92344" lon="19.18427">
        <ele>1520.9399414062</ele>
        <time>2023-10-03T11:27:10.000Z</time>
      </trkpt>
      <trkpt lat="42.92335" lon="19.18424">
        <ele>1521.4200439453</ele>
        <time>2023-10-03T11:27:09.000Z</time>
      </trkpt>
      <trkpt lat="42.92331" lon="19.18422">
        <ele>1521.4200439453</ele>
        <time>2023-10-03T11:27:08.000Z</time>
      </trkpt>
      <trkpt lat="42.92321" lon="19.18416">
        <ele>1521.9000244141</ele>
        <time>2023-10-03T11:27:07.000Z</time>
      </trkpt>
      <trkpt lat="42.92314" lon="19.18414">
        <ele>1522.3900146484</ele>
        <time>2023-10-03T11:27:06.000Z</time>
      </trkpt>
      <trkpt lat="42.92307" lon="19.18413">
        <ele>1522.3900146484</ele>
        <time>2023-10-03T11:27:05.000Z</time>
      </trkpt>
      <trkpt lat="42.923" lon="19.18414">
        <ele>1522.8699951172</ele>
        <time>2023-10-03T11:27:04.000Z</time>
      </trkpt>
      <trkpt lat="42.92291" lon="19.18416">
        <ele>1522.8699951172</ele>
        <time>2023-10-03T11:27:03.000Z</time>
      </trkpt>
      <trkpt lat="42.92285" lon="19.18419">
        <ele>1523.3499755859</ele>
        <time>2023-10-03T11:27:02.000Z</time>
      </trkpt>
      <trkpt lat="42.92274" lon="19.18424">
        <ele>1523.3499755859</ele>
        <time>2023-10-03T11:27:01.000Z</time>
      </trkpt>
      <trkpt lat="42.92266" lon="19.1843">
        <ele>1523.8299560547</ele>
        <time>2023-10-03T11:27:00.000Z</time>
      </trkpt>
      <trkpt lat="42.92261" lon="19.18433">
        <ele>1524.3100585938</ele>
        <time>2023-10-03T11:26:59.000Z</time>
      </trkpt>
      <trkpt lat="42.92252" lon="19.18442">
        <ele>1524.7900390625</ele>
        <time>2023-10-03T11:26:58.000Z</time>
      </trkpt>
      <trkpt lat="42.92239" lon="19.18453">
        <ele>1525.75</ele>
        <time>2023-10-03T11:26:56.000Z</time>
      </trkpt>
      <trkpt lat="42.92237" lon="19.18455">
        <ele>1525.75</ele>
        <time>2023-10-03T11:26:55.000Z</time>
      </trkpt>
      <trkpt lat="42.92227" lon="19.18463">
        <ele>1526.2299804688</ele>
        <time>2023-10-03T11:26:54.000Z</time>
      </trkpt>
      <trkpt lat="42.92221" lon="19.18469">
        <ele>1526.7099609375</ele>
        <time>2023-10-03T11:26:53.000Z</time>
      </trkpt>
      <trkpt lat="42.92216" lon="19.18478">
        <ele>1526.7099609375</ele>
        <time>2023-10-03T11:26:52.000Z</time>
      </trkpt>
      <trkpt lat="42.92212" lon="19.18485">
        <ele>1527.1899414062</ele>
        <time>2023-10-03T11:26:51.000Z</time>
      </trkpt>
      <trkpt lat="42.92209" lon="19.18493">
        <ele>1527.1899414062</ele>
        <time>2023-10-03T11:26:50.000Z</time>
      </trkpt>
      <trkpt lat="42.92207" lon="19.18498">
        <ele>1527.6700439453</ele>
        <time>2023-10-03T11:26:49.000Z</time>
      </trkpt>
      <trkpt lat="42.922" lon="19.1851">
        <ele>1528.6300048828</ele>
        <time>2023-10-03T11:26:48.000Z</time>
      </trkpt>
      <trkpt lat="42.92197" lon="19.18516">
        <ele>1528.6300048828</ele>
        <time>2023-10-03T11:26:47.000Z</time>
      </trkpt>
      <trkpt lat="42.92193" lon="19.18526">
        <ele>1529.1099853516</ele>
        <time>2023-10-03T11:26:46.000Z</time>
      </trkpt>
      <trkpt lat="42.9219" lon="19.18531">
        <ele>1529.5899658203</ele>
        <time>2023-10-03T11:26:45.000Z</time>
      </trkpt>
      <trkpt lat="42.92186" lon="19.18538">
        <ele>1530.0799560547</ele>
        <time>2023-10-03T11:26:44.000Z</time>
      </trkpt>
      <trkpt lat="42.92183" lon="19.18548">
        <ele>1530.5600585938</ele>
        <time>2023-10-03T11:26:43.000Z</time>
      </trkpt>
      <trkpt lat="42.9218" lon="19.18558">
        <ele>1532</ele>
        <time>2023-10-03T11:26:42.000Z</time>
      </trkpt>
      <trkpt lat="42.92178" lon="19.18569">
        <ele>1533.4399414062</ele>
        <time>2023-10-03T11:26:41.000Z</time>
      </trkpt>
      <trkpt lat="42.92174" lon="19.18581">
        <ele>1534.4000244141</ele>
        <time>2023-10-03T11:26:40.000Z</time>
      </trkpt>
      <trkpt lat="42.92171" lon="19.18588">
        <ele>1535.3599853516</ele>
        <time>2023-10-03T11:26:39.000Z</time>
      </trkpt>
      <trkpt lat="42.92166" lon="19.18599">
        <ele>1537.2900390625</ele>
        <time>2023-10-03T11:26:38.000Z</time>
      </trkpt>
      <trkpt lat="42.92162" lon="19.1861">
        <ele>1538.7299804688</ele>
        <time>2023-10-03T11:26:37.000Z</time>
      </trkpt>
      <trkpt lat="42.92159" lon="19.18618">
        <ele>1540.1700439453</ele>
        <time>2023-10-03T11:26:36.000Z</time>
      </trkpt>
      <trkpt lat="42.92156" lon="19.18625">
        <ele>1541.1300048828</ele>
        <time>2023-10-03T11:26:35.000Z</time>
      </trkpt>
      <trkpt lat="42.92153" lon="19.18637">
        <ele>1542.5699462891</ele>
        <time>2023-10-03T11:26:34.000Z</time>
      </trkpt>
      <trkpt lat="42.92149" lon="19.18646">
        <ele>1544.0100097656</ele>
        <time>2023-10-03T11:26:33.000Z</time>
      </trkpt>
      <trkpt lat="42.92147" lon="19.18653">
        <ele>1544.9799804688</ele>
        <time>2023-10-03T11:26:32.000Z</time>
      </trkpt>
      <trkpt lat="42.92143" lon="19.18659">
        <ele>1545.9399414062</ele>
        <time>2023-10-03T11:26:31.000Z</time>
      </trkpt>
      <trkpt lat="42.9214" lon="19.18667">
        <ele>1546.9000244141</ele>
        <time>2023-10-03T11:26:30.000Z</time>
      </trkpt>
      <trkpt lat="42.9214" lon="19.18668">
        <ele>1547.3800048828</ele>
        <time>2023-10-03T11:26:29.000Z</time>
      </trkpt>
      <trkpt lat="42.92135" lon="19.18687">
        <ele>1547.8599853516</ele>
        <time>2023-10-03T11:26:25.000Z</time>
      </trkpt>
      <trkpt lat="42.92133" lon="19.18695">
        <ele>1548.3399658203</ele>
        <time>2023-10-03T11:26:24.000Z</time>
      </trkpt>
      <trkpt lat="42.92131" lon="19.18705">
        <ele>1548.3399658203</ele>
        <time>2023-10-03T11:26:23.000Z</time>
      </trkpt>
      <trkpt lat="42.9213" lon="19.18709">
        <ele>1548.8199462891</ele>
        <time>2023-10-03T11:26:22.000Z</time>
      </trkpt>
      <trkpt lat="42.92128" lon="19.18723">
        <ele>1549.3000488281</ele>
        <time>2023-10-03T11:26:21.000Z</time>
      </trkpt>
      <trkpt lat="42.92127" lon="19.18731">
        <ele>1549.3000488281</ele>
        <time>2023-10-03T11:26:20.000Z</time>
      </trkpt>
      <trkpt lat="42.92125" lon="19.18752">
        <ele>1550.2600097656</ele>
        <time>2023-10-03T11:26:18.000Z</time>
      </trkpt>
      <trkpt lat="42.92125" lon="19.18762">
        <ele>1550.2600097656</ele>
        <time>2023-10-03T11:26:17.000Z</time>
      </trkpt>
      <trkpt lat="42.92125" lon="19.18766">
        <ele>1550.7399902344</ele>
        <time>2023-10-03T11:26:16.000Z</time>
      </trkpt>
      <trkpt lat="42.92123" lon="19.18794">
        <ele>1552.1899414062</ele>
        <time>2023-10-03T11:26:14.000Z</time>
      </trkpt>
      <trkpt lat="42.92122" lon="19.18803">
        <ele>1552.1899414062</ele>
        <time>2023-10-03T11:26:13.000Z</time>
      </trkpt>
      <trkpt lat="42.92121" lon="19.18812">
        <ele>1552.6700439453</ele>
        <time>2023-10-03T11:26:12.000Z</time>
      </trkpt>
      <trkpt lat="42.9212" lon="19.18822">
        <ele>1553.1500244141</ele>
        <time>2023-10-03T11:26:11.000Z</time>
      </trkpt>
      <trkpt lat="42.9212" lon="19.18829">
        <ele>1553.1500244141</ele>
        <time>2023-10-03T11:26:10.000Z</time>
      </trkpt>
      <trkpt lat="42.9212" lon="19.18835">
        <ele>1554.1099853516</ele>
        <time>2023-10-03T11:25:27.000Z</time>
      </trkpt>
      <trkpt lat="42.9212" lon="19.1885">
        <ele>1554.1099853516</ele>
        <time>2023-10-03T11:25:21.000Z</time>
      </trkpt>
      <trkpt lat="42.92122" lon="19.18858">
        <ele>1554.1099853516</ele>
        <time>2023-10-03T11:25:20.000Z</time>
      </trkpt>
      <trkpt lat="42.92125" lon="19.18865">
        <ele>1553.6300048828</ele>
        <time>2023-10-03T11:25:19.000Z</time>
      </trkpt>
      <trkpt lat="42.92126" lon="19.18869">
        <ele>1553.1500244141</ele>
        <time>2023-10-03T11:25:18.000Z</time>
      </trkpt>
      <trkpt lat="42.92133" lon="19.18884">
        <ele>1551.2199707031</ele>
        <time>2023-10-03T11:25:17.000Z</time>
      </trkpt>
      <trkpt lat="42.9214" lon="19.18899">
        <ele>1549.3000488281</ele>
        <time>2023-10-03T11:25:16.000Z</time>
      </trkpt>
      <trkpt lat="42.92145" lon="19.18909">
        <ele>1548.3399658203</ele>
        <time>2023-10-03T11:25:15.000Z</time>
      </trkpt>
      <trkpt lat="42.92157" lon="19.18929">
        <ele>1547.3800048828</ele>
        <time>2023-10-03T11:25:13.000Z</time>
      </trkpt>
      <trkpt lat="42.92192" lon="19.18993">
        <ele>1543.5300292969</ele>
        <time>2023-10-03T11:25:08.000Z</time>
      </trkpt>
      <trkpt lat="42.92199" lon="19.19007">
        <ele>1543.0500488281</ele>
        <time>2023-10-03T11:25:07.000Z</time>
      </trkpt>
      <trkpt lat="42.92205" lon="19.19022">
        <ele>1543.0500488281</ele>
        <time>2023-10-03T11:25:06.000Z</time>
      </trkpt>
      <trkpt lat="42.92208" lon="19.19034">
        <ele>1542.5699462891</ele>
        <time>2023-10-03T11:25:05.000Z</time>
      </trkpt>
      <trkpt lat="42.92209" lon="19.19045">
        <ele>1542.5699462891</ele>
        <time>2023-10-03T11:25:04.000Z</time>
      </trkpt>
      <trkpt lat="42.9221" lon="19.19058">
        <ele>1543.0500488281</ele>
        <time>2023-10-03T11:25:03.000Z</time>
      </trkpt>
      <trkpt lat="42.9221" lon="19.19074">
        <ele>1543.5300292969</ele>
        <time>2023-10-03T11:25:02.000Z</time>
      </trkpt>
      <trkpt lat="42.9221" lon="19.1908">
        <ele>1544.0100097656</ele>
        <time>2023-10-03T11:25:01.000Z</time>
      </trkpt>
      <trkpt lat="42.9221" lon="19.19092">
        <ele>1544.5</ele>
        <time>2023-10-03T11:25:00.000Z</time>
      </trkpt>
      <trkpt lat="42.9221" lon="19.19101">
        <ele>1544.9799804688</ele>
        <time>2023-10-03T11:24:59.000Z</time>
      </trkpt>
      <trkpt lat="42.9221" lon="19.19107">
        <ele>1544.9799804688</ele>
        <time>2023-10-03T11:24:58.000Z</time>
      </trkpt>
      <trkpt lat="42.92211" lon="19.19112">
        <ele>1544.9799804688</ele>
        <time>2023-10-03T11:24:57.000Z</time>
      </trkpt>
      <trkpt lat="42.92213" lon="19.19118">
        <ele>1544.5</ele>
        <time>2023-10-03T11:24:56.000Z</time>
      </trkpt>
      <trkpt lat="42.92214" lon="19.19121">
        <ele>1544.5</ele>
        <time>2023-10-03T11:24:55.000Z</time>
      </trkpt>
      <trkpt lat="42.92219" lon="19.19131">
        <ele>1543.5300292969</ele>
        <time>2023-10-03T11:24:54.000Z</time>
      </trkpt>
      <trkpt lat="42.92224" lon="19.1914">
        <ele>1542.5699462891</ele>
        <time>2023-10-03T11:24:53.000Z</time>
      </trkpt>
      <trkpt lat="42.92228" lon="19.19146">
        <ele>1541.1300048828</ele>
        <time>2023-10-03T11:24:52.000Z</time>
      </trkpt>
      <trkpt lat="42.92232" lon="19.19151">
        <ele>1540.1700439453</ele>
        <time>2023-10-03T11:24:51.000Z</time>
      </trkpt>
      <trkpt lat="42.92237" lon="19.19158">
        <ele>1538.25</ele>
        <time>2023-10-03T11:24:50.000Z</time>
      </trkpt>
      <trkpt lat="42.92247" lon="19.19169">
        <ele>1535.8399658203</ele>
        <time>2023-10-03T11:24:48.000Z</time>
      </trkpt>
      <trkpt lat="42.92254" lon="19.19176">
        <ele>1533.9200439453</ele>
        <time>2023-10-03T11:24:47.000Z</time>
      </trkpt>
      <trkpt lat="42.92261" lon="19.19181">
        <ele>1532.9599609375</ele>
        <time>2023-10-03T11:24:46.000Z</time>
      </trkpt>
      <trkpt lat="42.92267" lon="19.19185">
        <ele>1532</ele>
        <time>2023-10-03T11:24:45.000Z</time>
      </trkpt>
      <trkpt lat="42.92273" lon="19.19187">
        <ele>1531.0400390625</ele>
        <time>2023-10-03T11:24:44.000Z</time>
      </trkpt>
      <trkpt lat="42.92282" lon="19.19191">
        <ele>1530.0799560547</ele>
        <time>2023-10-03T11:24:43.000Z</time>
      </trkpt>
      <trkpt lat="42.92288" lon="19.19192">
        <ele>1529.5899658203</ele>
        <time>2023-10-03T11:24:42.000Z</time>
      </trkpt>
      <trkpt lat="42.92294" lon="19.19192">
        <ele>1529.1099853516</ele>
        <time>2023-10-03T11:24:41.000Z</time>
      </trkpt>
      <trkpt lat="42.92301" lon="19.19193">
        <ele>1528.1500244141</ele>
        <time>2023-10-03T11:24:40.000Z</time>
      </trkpt>
      <trkpt lat="42.9231" lon="19.19196">
        <ele>1527.6700439453</ele>
        <time>2023-10-03T11:24:39.000Z</time>
      </trkpt>
      <trkpt lat="42.92317" lon="19.19199">
        <ele>1526.7099609375</ele>
        <time>2023-10-03T11:24:38.000Z</time>
      </trkpt>
      <trkpt lat="42.92323" lon="19.19203">
        <ele>1525.75</ele>
        <time>2023-10-03T11:24:37.000Z</time>
      </trkpt>
      <trkpt lat="42.9233" lon="19.19208">
        <ele>1524.7900390625</ele>
        <time>2023-10-03T11:24:36.000Z</time>
      </trkpt>
      <trkpt lat="42.92342" lon="19.19218">
        <ele>1523.3499755859</ele>
        <time>2023-10-03T11:24:34.000Z</time>
      </trkpt>
      <trkpt lat="42.92347" lon="19.19222">
        <ele>1522.8699951172</ele>
        <time>2023-10-03T11:24:33.000Z</time>
      </trkpt>
      <trkpt lat="42.92353" lon="19.19226">
        <ele>1522.3900146484</ele>
        <time>2023-10-03T11:24:32.000Z</time>
      </trkpt>
      <trkpt lat="42.92361" lon="19.19232">
        <ele>1521.4200439453</ele>
        <time>2023-10-03T11:24:31.000Z</time>
      </trkpt>
      <trkpt lat="42.92365" lon="19.19235">
        <ele>1520.9399414062</ele>
        <time>2023-10-03T11:24:30.000Z</time>
      </trkpt>
      <trkpt lat="42.92373" lon="19.19242">
        <ele>1519.5</ele>
        <time>2023-10-03T11:24:29.000Z</time>
      </trkpt>
      <trkpt lat="42.92378" lon="19.19245">
        <ele>1518.5400390625</ele>
        <time>2023-10-03T11:24:28.000Z</time>
      </trkpt>
      <trkpt lat="42.92383" lon="19.19247">
        <ele>1517.5799560547</ele>
        <time>2023-10-03T11:24:27.000Z</time>
      </trkpt>
      <trkpt lat="42.92389" lon="19.19249">
        <ele>1516.6199951172</ele>
        <time>2023-10-03T11:24:26.000Z</time>
      </trkpt>
      <trkpt lat="42.92395" lon="19.1925">
        <ele>1515.6600341797</ele>
        <time>2023-10-03T11:24:25.000Z</time>
      </trkpt>
      <trkpt lat="42.924" lon="19.19251">
        <ele>1514.6899414062</ele>
        <time>2023-10-03T11:24:24.000Z</time>
      </trkpt>
      <trkpt lat="42.92406" lon="19.19251">
        <ele>1513.25</ele>
        <time>2023-10-03T11:24:23.000Z</time>
      </trkpt>
      <trkpt lat="42.92412" lon="19.1925">
        <ele>1511.8100585938</ele>
        <time>2023-10-03T11:24:22.000Z</time>
      </trkpt>
      <trkpt lat="42.92418" lon="19.19249">
        <ele>1510.8499755859</ele>
        <time>2023-10-03T11:24:21.000Z</time>
      </trkpt>
      <trkpt lat="42.9242" lon="19.19249">
        <ele>1510.3699951172</ele>
        <time>2023-10-03T11:24:20.000Z</time>
      </trkpt>
      <trkpt lat="42.92429" lon="19.19249">
        <ele>1508.9300537109</ele>
        <time>2023-10-03T11:24:19.000Z</time>
      </trkpt>
      <trkpt lat="42.92437" lon="19.19249">
        <ele>1507.4799804688</ele>
        <time>2023-10-03T11:24:18.000Z</time>
      </trkpt>
      <trkpt lat="42.92443" lon="19.1925">
        <ele>1506.5200195312</ele>
        <time>2023-10-03T11:24:17.000Z</time>
      </trkpt>
      <trkpt lat="42.92451" lon="19.19253">
        <ele>1505.0799560547</ele>
        <time>2023-10-03T11:24:16.000Z</time>
      </trkpt>
      <trkpt lat="42.92474" lon="19.19266">
        <ele>1502.1999511719</ele>
        <time>2023-10-03T11:24:13.000Z</time>
      </trkpt>
      <trkpt lat="42.92483" lon="19.19271">
        <ele>1500.7600097656</ele>
        <time>2023-10-03T11:24:12.000Z</time>
      </trkpt>
      <trkpt lat="42.9249" lon="19.19273">
        <ele>1499.3100585938</ele>
        <time>2023-10-03T11:24:11.000Z</time>
      </trkpt>
      <trkpt lat="42.92495" lon="19.19274">
        <ele>1498.3499755859</ele>
        <time>2023-10-03T11:24:10.000Z</time>
      </trkpt>
      <trkpt lat="42.92506" lon="19.19277">
        <ele>1496.9100341797</ele>
        <time>2023-10-03T11:24:09.000Z</time>
      </trkpt>
      <trkpt lat="42.92509" lon="19.19277">
        <ele>1496.4300537109</ele>
        <time>2023-10-03T11:24:08.000Z</time>
      </trkpt>
      <trkpt lat="42.92526" lon="19.19283">
        <ele>1494.0300292969</ele>
        <time>2023-10-03T11:24:06.000Z</time>
      </trkpt>
      <trkpt lat="42.92539" lon="19.19286">
        <ele>1492.0999755859</ele>
        <time>2023-10-03T11:24:05.000Z</time>
      </trkpt>
      <trkpt lat="42.92544" lon="19.19287">
        <ele>1491.6199951172</ele>
        <time>2023-10-03T11:24:04.000Z</time>
      </trkpt>
      <trkpt lat="42.92554" lon="19.19288">
        <ele>1490.1800537109</ele>
        <time>2023-10-03T11:24:03.000Z</time>
      </trkpt>
      <trkpt lat="42.92561" lon="19.19289">
        <ele>1489.2199707031</ele>
        <time>2023-10-03T11:24:02.000Z</time>
      </trkpt>
      <trkpt lat="42.92567" lon="19.19289">
        <ele>1488.2600097656</ele>
        <time>2023-10-03T11:24:01.000Z</time>
      </trkpt>
      <trkpt lat="42.92578" lon="19.1929">
        <ele>1487.7800292969</ele>
        <time>2023-10-03T11:24:00.000Z</time>
      </trkpt>
      <trkpt lat="42.92587" lon="19.1929">
        <ele>1486.8199462891</ele>
        <time>2023-10-03T11:23:59.000Z</time>
      </trkpt>
      <trkpt lat="42.92593" lon="19.19289">
        <ele>1486.3399658203</ele>
        <time>2023-10-03T11:23:58.000Z</time>
      </trkpt>
      <trkpt lat="42.92598" lon="19.19288">
        <ele>1485.8499755859</ele>
        <time>2023-10-03T11:23:57.000Z</time>
      </trkpt>
      <trkpt lat="42.92604" lon="19.19286">
        <ele>1485.3699951172</ele>
        <time>2023-10-03T11:23:56.000Z</time>
      </trkpt>
      <trkpt lat="42.92607" lon="19.19284">
        <ele>1485.3699951172</ele>
        <time>2023-10-03T11:23:55.000Z</time>
      </trkpt>
      <trkpt lat="42.92611" lon="19.19281">
        <ele>1484.8900146484</ele>
        <time>2023-10-03T11:23:54.000Z</time>
      </trkpt>
      <trkpt lat="42.92615" lon="19.19293">
        <ele>1484.8900146484</ele>
        <time>2023-10-03T11:23:48.000Z</time>
      </trkpt>
      <trkpt lat="42.9261" lon="19.19305">
        <ele>1484.8900146484</ele>
        <time>2023-10-03T11:23:46.000Z</time>
      </trkpt>
      <trkpt lat="42.92604" lon="19.19316">
        <ele>1484.8900146484</ele>
        <time>2023-10-03T11:23:45.000Z</time>
      </trkpt>
      <trkpt lat="42.926" lon="19.19324">
        <ele>1485.3699951172</ele>
        <time>2023-10-03T11:23:44.000Z</time>
      </trkpt>
      <trkpt lat="42.92595" lon="19.19333">
        <ele>1485.3699951172</ele>
        <time>2023-10-03T11:23:43.000Z</time>
      </trkpt>
      <trkpt lat="42.92592" lon="19.19343">
        <ele>1485.8499755859</ele>
        <time>2023-10-03T11:23:42.000Z</time>
      </trkpt>
      <trkpt lat="42.9259" lon="19.19351">
        <ele>1485.8499755859</ele>
        <time>2023-10-03T11:23:41.000Z</time>
      </trkpt>
      <trkpt lat="42.92589" lon="19.19361">
        <ele>1486.3399658203</ele>
        <time>2023-10-03T11:23:40.000Z</time>
      </trkpt>
      <trkpt lat="42.92588" lon="19.1937">
        <ele>1486.3399658203</ele>
        <time>2023-10-03T11:23:39.000Z</time>
      </trkpt>
      <trkpt lat="42.92586" lon="19.19385">
        <ele>1487.3000488281</ele>
        <time>2023-10-03T11:23:38.000Z</time>
      </trkpt>
      <trkpt lat="42.92584" lon="19.19393">
        <ele>1488.2600097656</ele>
        <time>2023-10-03T11:23:37.000Z</time>
      </trkpt>
      <trkpt lat="42.92583" lon="19.19402">
        <ele>1489.2199707031</ele>
        <time>2023-10-03T11:23:36.000Z</time>
      </trkpt>
      <trkpt lat="42.92582" lon="19.19408">
        <ele>1489.6999511719</ele>
        <time>2023-10-03T11:23:35.000Z</time>
      </trkpt>
      <trkpt lat="42.9258" lon="19.19418">
        <ele>1490.6600341797</ele>
        <time>2023-10-03T11:23:34.000Z</time>
      </trkpt>
      <trkpt lat="42.92578" lon="19.19427">
        <ele>1491.6199951172</ele>
        <time>2023-10-03T11:23:33.000Z</time>
      </trkpt>
      <trkpt lat="42.92575" lon="19.19437">
        <ele>1491.6199951172</ele>
        <time>2023-10-03T11:23:32.000Z</time>
      </trkpt>
      <trkpt lat="42.92574" lon="19.19444">
        <ele>1491.6199951172</ele>
        <time>2023-10-03T11:23:31.000Z</time>
      </trkpt>
      <trkpt lat="42.92572" lon="19.19454">
        <ele>1491.6199951172</ele>
        <time>2023-10-03T11:23:30.000Z</time>
      </trkpt>
      <trkpt lat="42.92571" lon="19.19466">
        <ele>1490.1800537109</ele>
        <time>2023-10-03T11:23:29.000Z</time>
      </trkpt>
      <trkpt lat="42.92569" lon="19.19477">
        <ele>1489.2199707031</ele>
        <time>2023-10-03T11:23:28.000Z</time>
      </trkpt>
      <trkpt lat="42.92565" lon="19.19489">
        <ele>1488.2600097656</ele>
        <time>2023-10-03T11:23:27.000Z</time>
      </trkpt>
      <trkpt lat="42.92562" lon="19.19497">
        <ele>1487.3000488281</ele>
        <time>2023-10-03T11:23:26.000Z</time>
      </trkpt>
      <trkpt lat="42.92547" lon="19.19523">
        <ele>1485.8499755859</ele>
        <time>2023-10-03T11:23:24.000Z</time>
      </trkpt>
      <trkpt lat="42.9254" lon="19.19535">
        <ele>1485.3699951172</ele>
        <time>2023-10-03T11:23:23.000Z</time>
      </trkpt>
      <trkpt lat="42.92534" lon="19.19546">
        <ele>1484.8900146484</ele>
        <time>2023-10-03T11:23:22.000Z</time>
      </trkpt>
      <trkpt lat="42.92527" lon="19.19556">
        <ele>1483.4499511719</ele>
        <time>2023-10-03T11:23:21.000Z</time>
      </trkpt>
      <trkpt lat="42.9252" lon="19.19569">
        <ele>1482.4899902344</ele>
        <time>2023-10-03T11:23:20.000Z</time>
      </trkpt>
      <trkpt lat="42.92515" lon="19.19581">
        <ele>1482.0100097656</ele>
        <time>2023-10-03T11:23:19.000Z</time>
      </trkpt>
      <trkpt lat="42.92513" lon="19.19589">
        <ele>1482.0100097656</ele>
        <time>2023-10-03T11:23:18.000Z</time>
      </trkpt>
      <trkpt lat="42.92509" lon="19.19606">
        <ele>1481.5300292969</ele>
        <time>2023-10-03T11:23:17.000Z</time>
      </trkpt>
      <trkpt lat="42.92505" lon="19.19623">
        <ele>1481.0500488281</ele>
        <time>2023-10-03T11:23:16.000Z</time>
      </trkpt>
      <trkpt lat="42.92501" lon="19.19636">
        <ele>1480.5699462891</ele>
        <time>2023-10-03T11:23:15.000Z</time>
      </trkpt>
      <trkpt lat="42.92496" lon="19.19646">
        <ele>1480.0899658203</ele>
        <time>2023-10-03T11:23:14.000Z</time>
      </trkpt>
      <trkpt lat="42.9249" lon="19.19659">
        <ele>1479.6099853516</ele>
        <time>2023-10-03T11:23:13.000Z</time>
      </trkpt>
      <trkpt lat="42.92487" lon="19.19665">
        <ele>1479.1300048828</ele>
        <time>2023-10-03T11:23:12.000Z</time>
      </trkpt>
      <trkpt lat="42.92484" lon="19.19673">
        <ele>1478.6500244141</ele>
        <time>2023-10-03T11:23:11.000Z</time>
      </trkpt>
      <trkpt lat="42.92475" lon="19.19697">
        <ele>1477.6800537109</ele>
        <time>2023-10-03T11:23:10.000Z</time>
      </trkpt>
      <trkpt lat="42.9247" lon="19.19711">
        <ele>1477.6800537109</ele>
        <time>2023-10-03T11:23:09.000Z</time>
      </trkpt>
      <trkpt lat="42.92468" lon="19.19719">
        <ele>1478.1600341797</ele>
        <time>2023-10-03T11:23:08.000Z</time>
      </trkpt>
      <trkpt lat="42.92458" lon="19.19749">
        <ele>1478.6500244141</ele>
        <time>2023-10-03T11:23:06.000Z</time>
      </trkpt>
      <trkpt lat="42.92453" lon="19.19765">
        <ele>1478.6500244141</ele>
        <time>2023-10-03T11:23:05.000Z</time>
      </trkpt>
      <trkpt lat="42.92451" lon="19.19771">
        <ele>1479.1300048828</ele>
        <time>2023-10-03T11:23:04.000Z</time>
      </trkpt>
      <trkpt lat="42.92447" lon="19.19788">
        <ele>1479.1300048828</ele>
        <time>2023-10-03T11:23:03.000Z</time>
      </trkpt>
      <trkpt lat="42.92444" lon="19.19806">
        <ele>1479.6099853516</ele>
        <time>2023-10-03T11:23:02.000Z</time>
      </trkpt>
      <trkpt lat="42.9244" lon="19.19827">
        <ele>1479.1300048828</ele>
        <time>2023-10-03T11:23:00.000Z</time>
      </trkpt>
      <trkpt lat="42.92434" lon="19.19853">
        <ele>1478.6500244141</ele>
        <time>2023-10-03T11:22:58.000Z</time>
      </trkpt>
      <trkpt lat="42.92433" lon="19.19864">
        <ele>1478.6500244141</ele>
        <time>2023-10-03T11:22:57.000Z</time>
      </trkpt>
      <trkpt lat="42.92433" lon="19.1987">
        <ele>1478.6500244141</ele>
        <time>2023-10-03T11:22:56.000Z</time>
      </trkpt>
      <trkpt lat="42.92432" lon="19.19891">
        <ele>1479.1300048828</ele>
        <time>2023-10-03T11:22:55.000Z</time>
      </trkpt>
      <trkpt lat="42.9243" lon="19.19904">
        <ele>1479.6099853516</ele>
        <time>2023-10-03T11:22:54.000Z</time>
      </trkpt>
      <trkpt lat="42.92427" lon="19.19915">
        <ele>1479.6099853516</ele>
        <time>2023-10-03T11:22:53.000Z</time>
      </trkpt>
      <trkpt lat="42.92419" lon="19.1994">
        <ele>1481.0500488281</ele>
        <time>2023-10-03T11:22:51.000Z</time>
      </trkpt>
      <trkpt lat="42.92416" lon="19.19952">
        <ele>1482.0100097656</ele>
        <time>2023-10-03T11:22:50.000Z</time>
      </trkpt>
      <trkpt lat="42.92413" lon="19.19962">
        <ele>1482.9699707031</ele>
        <time>2023-10-03T11:22:49.000Z</time>
      </trkpt>
      <trkpt lat="42.9241" lon="19.1997">
        <ele>1483.9300537109</ele>
        <time>2023-10-03T11:22:48.000Z</time>
      </trkpt>
      <trkpt lat="42.92404" lon="19.19982">
        <ele>1484.8900146484</ele>
        <time>2023-10-03T11:22:47.000Z</time>
      </trkpt>
      <trkpt lat="42.92402" lon="19.19989">
        <ele>1485.8499755859</ele>
        <time>2023-10-03T11:22:46.000Z</time>
      </trkpt>
      <trkpt lat="42.92397" lon="19.20002">
        <ele>1486.3399658203</ele>
        <time>2023-10-03T11:22:45.000Z</time>
      </trkpt>
      <trkpt lat="42.92394" lon="19.20012">
        <ele>1486.8199462891</ele>
        <time>2023-10-03T11:22:44.000Z</time>
      </trkpt>
      <trkpt lat="42.92391" lon="19.20021">
        <ele>1486.3399658203</ele>
        <time>2023-10-03T11:22:43.000Z</time>
      </trkpt>
      <trkpt lat="42.92386" lon="19.20031">
        <ele>1486.3399658203</ele>
        <time>2023-10-03T11:22:42.000Z</time>
      </trkpt>
      <trkpt lat="42.92381" lon="19.20041">
        <ele>1486.3399658203</ele>
        <time>2023-10-03T11:22:41.000Z</time>
      </trkpt>
      <trkpt lat="42.92378" lon="19.2005">
        <ele>1486.8199462891</ele>
        <time>2023-10-03T11:22:40.000Z</time>
      </trkpt>
      <trkpt lat="42.92374" lon="19.20067">
        <ele>1487.7800292969</ele>
        <time>2023-10-03T11:22:39.000Z</time>
      </trkpt>
      <trkpt lat="42.92371" lon="19.20078">
        <ele>1488.7399902344</ele>
        <time>2023-10-03T11:22:38.000Z</time>
      </trkpt>
      <trkpt lat="42.92367" lon="19.20089">
        <ele>1489.6999511719</ele>
        <time>2023-10-03T11:22:37.000Z</time>
      </trkpt>
      <trkpt lat="42.92364" lon="19.20095">
        <ele>1490.1800537109</ele>
        <time>2023-10-03T11:22:36.000Z</time>
      </trkpt>
      <trkpt lat="42.92361" lon="19.20101">
        <ele>1490.6600341797</ele>
        <time>2023-10-03T11:22:35.000Z</time>
      </trkpt>
      <trkpt lat="42.92348" lon="19.20126">
        <ele>1494.0300292969</ele>
        <time>2023-10-03T11:22:33.000Z</time>
      </trkpt>
      <trkpt lat="42.92342" lon="19.20138">
        <ele>1495.4699707031</ele>
        <time>2023-10-03T11:22:32.000Z</time>
      </trkpt>
      <trkpt lat="42.92337" lon="19.20149">
        <ele>1496.4300537109</ele>
        <time>2023-10-03T11:22:31.000Z</time>
      </trkpt>
      <trkpt lat="42.92331" lon="19.20157">
        <ele>1497.3900146484</ele>
        <time>2023-10-03T11:22:30.000Z</time>
      </trkpt>
      <trkpt lat="42.92326" lon="19.20162">
        <ele>1497.8699951172</ele>
        <time>2023-10-03T11:22:29.000Z</time>
      </trkpt>
      <trkpt lat="42.92319" lon="19.20168">
        <ele>1498.8299560547</ele>
        <time>2023-10-03T11:22:28.000Z</time>
      </trkpt>
      <trkpt lat="42.92313" lon="19.20173">
        <ele>1498.8299560547</ele>
        <time>2023-10-03T11:22:27.000Z</time>
      </trkpt>
      <trkpt lat="42.92298" lon="19.20188">
        <ele>1499.7900390625</ele>
        <time>2023-10-03T11:22:25.000Z</time>
      </trkpt>
      <trkpt lat="42.9229" lon="19.20194">
        <ele>1499.7900390625</ele>
        <time>2023-10-03T11:22:24.000Z</time>
      </trkpt>
      <trkpt lat="42.92286" lon="19.20196">
        <ele>1499.7900390625</ele>
        <time>2023-10-03T11:22:23.000Z</time>
      </trkpt>
      <trkpt lat="42.9227" lon="19.20206">
        <ele>1500.2700195312</ele>
        <time>2023-10-03T11:22:21.000Z</time>
      </trkpt>
      <trkpt lat="42.92254" lon="19.20216">
        <ele>1500.2700195312</ele>
        <time>2023-10-03T11:22:19.000Z</time>
      </trkpt>
      <trkpt lat="42.92251" lon="19.20219">
        <ele>1500.2700195312</ele>
        <time>2023-10-03T11:22:18.000Z</time>
      </trkpt>
      <trkpt lat="42.92246" lon="19.20225">
        <ele>1500.2700195312</ele>
        <time>2023-10-03T11:22:17.000Z</time>
      </trkpt>
      <trkpt lat="42.92227" lon="19.20242">
        <ele>1499.7900390625</ele>
        <time>2023-10-03T11:22:15.000Z</time>
      </trkpt>
      <trkpt lat="42.92215" lon="19.20252">
        <ele>1499.7900390625</ele>
        <time>2023-10-03T11:22:14.000Z</time>
      </trkpt>
      <trkpt lat="42.922" lon="19.20264">
        <ele>1500.7600097656</ele>
        <time>2023-10-03T11:22:12.000Z</time>
      </trkpt>
      <trkpt lat="42.92192" lon="19.20268">
        <ele>1500.7600097656</ele>
        <time>2023-10-03T11:22:11.000Z</time>
      </trkpt>
      <trkpt lat="42.92184" lon="19.20269">
        <ele>1500.7600097656</ele>
        <time>2023-10-03T11:22:10.000Z</time>
      </trkpt>
      <trkpt lat="42.92176" lon="19.20271">
        <ele>1500.7600097656</ele>
        <time>2023-10-03T11:22:09.000Z</time>
      </trkpt>
      <trkpt lat="42.92168" lon="19.20273">
        <ele>1500.7600097656</ele>
        <time>2023-10-03T11:22:08.000Z</time>
      </trkpt>
      <trkpt lat="42.9216" lon="19.20278">
        <ele>1500.7600097656</ele>
        <time>2023-10-03T11:22:07.000Z</time>
      </trkpt>
      <trkpt lat="42.92154" lon="19.20284">
        <ele>1501.2399902344</ele>
        <time>2023-10-03T11:22:06.000Z</time>
      </trkpt>
      <trkpt lat="42.92147" lon="19.20291">
        <ele>1501.7199707031</ele>
        <time>2023-10-03T11:22:05.000Z</time>
      </trkpt>
      <trkpt lat="42.92139" lon="19.20298">
        <ele>1502.1999511719</ele>
        <time>2023-10-03T11:22:04.000Z</time>
      </trkpt>
      <trkpt lat="42.92129" lon="19.20307">
        <ele>1502.6800537109</ele>
        <time>2023-10-03T11:22:03.000Z</time>
      </trkpt>
      <trkpt lat="42.92121" lon="19.20316">
        <ele>1503.1600341797</ele>
        <time>2023-10-03T11:22:02.000Z</time>
      </trkpt>
      <trkpt lat="42.92117" lon="19.20323">
        <ele>1503.6400146484</ele>
        <time>2023-10-03T11:22:01.000Z</time>
      </trkpt>
      <trkpt lat="42.92106" lon="19.20345">
        <ele>1506.0400390625</ele>
        <time>2023-10-03T11:21:59.000Z</time>
      </trkpt>
      <trkpt lat="42.92101" lon="19.20354">
        <ele>1507</ele>
        <time>2023-10-03T11:21:58.000Z</time>
      </trkpt>
      <trkpt lat="42.92094" lon="19.20361">
        <ele>1507.9699707031</ele>
        <time>2023-10-03T11:21:57.000Z</time>
      </trkpt>
      <trkpt lat="42.92087" lon="19.20368">
        <ele>1509.4100341797</ele>
        <time>2023-10-03T11:21:56.000Z</time>
      </trkpt>
      <trkpt lat="42.9208" lon="19.20374">
        <ele>1510.3699951172</ele>
        <time>2023-10-03T11:21:55.000Z</time>
      </trkpt>
      <trkpt lat="42.92078" lon="19.20376">
        <ele>1510.8499755859</ele>
        <time>2023-10-03T11:21:54.000Z</time>
      </trkpt>
      <trkpt lat="42.92059" lon="19.20393">
        <ele>1512.7700195312</ele>
        <time>2023-10-03T11:21:52.000Z</time>
      </trkpt>
      <trkpt lat="42.92058" lon="19.20394">
        <ele>1513.25</ele>
        <time>2023-10-03T11:21:51.000Z</time>
      </trkpt>
      <trkpt lat="42.92051" lon="19.204">
        <ele>1513.7299804688</ele>
        <time>2023-10-03T11:21:50.000Z</time>
      </trkpt>
      <trkpt lat="42.92047" lon="19.20403">
        <ele>1513.25</ele>
        <time>2023-10-03T11:21:49.000Z</time>
      </trkpt>
      <trkpt lat="42.92042" lon="19.20405">
        <ele>1513.25</ele>
        <time>2023-10-03T11:21:48.000Z</time>
      </trkpt>
      <trkpt lat="42.92039" lon="19.20406">
        <ele>1513.25</ele>
        <time>2023-10-03T11:21:47.000Z</time>
      </trkpt>
      <trkpt lat="42.92031" lon="19.20411">
        <ele>1513.7299804688</ele>
        <time>2023-10-03T11:21:46.000Z</time>
      </trkpt>
      <trkpt lat="42.92026" lon="19.20415">
        <ele>1514.2099609375</ele>
        <time>2023-10-03T11:21:45.000Z</time>
      </trkpt>
      <trkpt lat="42.92022" lon="19.2042">
        <ele>1515.1800537109</ele>
        <time>2023-10-03T11:21:44.000Z</time>
      </trkpt>
      <trkpt lat="42.92018" lon="19.20425">
        <ele>1516.1400146484</ele>
        <time>2023-10-03T11:21:43.000Z</time>
      </trkpt>
      <trkpt lat="42.92014" lon="19.20429">
        <ele>1516.6199951172</ele>
        <time>2023-10-03T11:21:42.000Z</time>
      </trkpt>
      <trkpt lat="42.92011" lon="19.20433">
        <ele>1516.6199951172</ele>
        <time>2023-10-03T11:21:41.000Z</time>
      </trkpt>
      <trkpt lat="42.92007" lon="19.20437">
        <ele>1517.0999755859</ele>
        <time>2023-10-03T11:21:40.000Z</time>
      </trkpt>
      <trkpt lat="42.92006" lon="19.20437">
        <ele>1517.0999755859</ele>
        <time>2023-10-03T11:21:39.000Z</time>
      </trkpt>
      <trkpt lat="42.91997" lon="19.20438">
        <ele>1517.5799560547</ele>
        <time>2023-10-03T11:21:37.000Z</time>
      </trkpt>
      <trkpt lat="42.91993" lon="19.20434">
        <ele>1518.5400390625</ele>
        <time>2023-10-03T11:21:36.000Z</time>
      </trkpt>
      <trkpt lat="42.9199" lon="19.2043">
        <ele>1519.0200195312</ele>
        <time>2023-10-03T11:21:35.000Z</time>
      </trkpt>
      <trkpt lat="42.91986" lon="19.20423">
        <ele>1519.9799804688</ele>
        <time>2023-10-03T11:21:34.000Z</time>
      </trkpt>
      <trkpt lat="42.9198" lon="19.20415">
        <ele>1520.4599609375</ele>
        <time>2023-10-03T11:21:33.000Z</time>
      </trkpt>
      <trkpt lat="42.91975" lon="19.20407">
        <ele>1520.9399414062</ele>
        <time>2023-10-03T11:21:32.000Z</time>
      </trkpt>
      <trkpt lat="42.91972" lon="19.20404">
        <ele>1520.9399414062</ele>
        <time>2023-10-03T11:21:31.000Z</time>
      </trkpt>
      <trkpt lat="42.91963" lon="19.20389">
        <ele>1522.3900146484</ele>
        <time>2023-10-03T11:21:30.000Z</time>
      </trkpt>
      <trkpt lat="42.91956" lon="19.20382">
        <ele>1522.8699951172</ele>
        <time>2023-10-03T11:21:29.000Z</time>
      </trkpt>
      <trkpt lat="42.91949" lon="19.20376">
        <ele>1522.8699951172</ele>
        <time>2023-10-03T11:21:28.000Z</time>
      </trkpt>
      <trkpt lat="42.91944" lon="19.20373">
        <ele>1523.3499755859</ele>
        <time>2023-10-03T11:21:27.000Z</time>
      </trkpt>
      <trkpt lat="42.91928" lon="19.20366">
        <ele>1523.8299560547</ele>
        <time>2023-10-03T11:21:25.000Z</time>
      </trkpt>
      <trkpt lat="42.91912" lon="19.20361">
        <ele>1524.3100585938</ele>
        <time>2023-10-03T11:21:24.000Z</time>
      </trkpt>
      <trkpt lat="42.91903" lon="19.2036">
        <ele>1524.7900390625</ele>
        <time>2023-10-03T11:21:23.000Z</time>
      </trkpt>
      <trkpt lat="42.91895" lon="19.2036">
        <ele>1525.2700195312</ele>
        <time>2023-10-03T11:21:22.000Z</time>
      </trkpt>
      <trkpt lat="42.91886" lon="19.2036">
        <ele>1525.75</ele>
        <time>2023-10-03T11:21:21.000Z</time>
      </trkpt>
      <trkpt lat="42.91874" lon="19.20362">
        <ele>1527.1899414062</ele>
        <time>2023-10-03T11:21:20.000Z</time>
      </trkpt>
      <trkpt lat="42.91872" lon="19.20363">
        <ele>1527.1899414062</ele>
        <time>2023-10-03T11:21:19.000Z</time>
      </trkpt>
      <trkpt lat="42.91854" lon="19.20368">
        <ele>1529.1099853516</ele>
        <time>2023-10-03T11:21:18.000Z</time>
      </trkpt>
      <trkpt lat="42.91845" lon="19.20372">
        <ele>1529.5899658203</ele>
        <time>2023-10-03T11:21:17.000Z</time>
      </trkpt>
      <trkpt lat="42.91836" lon="19.20377">
        <ele>1531.0400390625</ele>
        <time>2023-10-03T11:21:16.000Z</time>
      </trkpt>
      <trkpt lat="42.9183" lon="19.20381">
        <ele>1531.5200195312</ele>
        <time>2023-10-03T11:21:15.000Z</time>
      </trkpt>
      <trkpt lat="42.91823" lon="19.20385">
        <ele>1532.4799804688</ele>
        <time>2023-10-03T11:21:14.000Z</time>
      </trkpt>
      <trkpt lat="42.91815" lon="19.20387">
        <ele>1533.4399414062</ele>
        <time>2023-10-03T11:21:13.000Z</time>
      </trkpt>
      <trkpt lat="42.91808" lon="19.20387">
        <ele>1534.4000244141</ele>
        <time>2023-10-03T11:21:12.000Z</time>
      </trkpt>
      <trkpt lat="42.918" lon="19.20385">
        <ele>1534.8800048828</ele>
        <time>2023-10-03T11:21:11.000Z</time>
      </trkpt>
      <trkpt lat="42.91797" lon="19.20384">
        <ele>1535.3599853516</ele>
        <time>2023-10-03T11:21:10.000Z</time>
      </trkpt>
      <trkpt lat="42.91786" lon="19.20381">
        <ele>1535.8399658203</ele>
        <time>2023-10-03T11:21:09.000Z</time>
      </trkpt>
      <trkpt lat="42.9178" lon="19.20381">
        <ele>1536.3199462891</ele>
        <time>2023-10-03T11:21:08.000Z</time>
      </trkpt>
      <trkpt lat="42.91773" lon="19.20383">
        <ele>1536.8000488281</ele>
        <time>2023-10-03T11:21:07.000Z</time>
      </trkpt>
      <trkpt lat="42.91765" lon="19.20388">
        <ele>1537.2900390625</ele>
        <time>2023-10-03T11:21:06.000Z</time>
      </trkpt>
      <trkpt lat="42.91759" lon="19.20395">
        <ele>1537.7700195312</ele>
        <time>2023-10-03T11:21:05.000Z</time>
      </trkpt>
      <trkpt lat="42.91752" lon="19.20404">
        <ele>1537.7700195312</ele>
        <time>2023-10-03T11:21:04.000Z</time>
      </trkpt>
      <trkpt lat="42.91746" lon="19.20413">
        <ele>1538.25</ele>
        <time>2023-10-03T11:21:03.000Z</time>
      </trkpt>
      <trkpt lat="42.91741" lon="19.20424">
        <ele>1538.7299804688</ele>
        <time>2023-10-03T11:21:02.000Z</time>
      </trkpt>
      <trkpt lat="42.9174" lon="19.20428">
        <ele>1539.2099609375</ele>
        <time>2023-10-03T11:21:01.000Z</time>
      </trkpt>
      <trkpt lat="42.91731" lon="19.20457">
        <ele>1542.0899658203</ele>
        <time>2023-10-03T11:20:59.000Z</time>
      </trkpt>
      <trkpt lat="42.91728" lon="19.20469">
        <ele>1543.5300292969</ele>
        <time>2023-10-03T11:20:58.000Z</time>
      </trkpt>
      <trkpt lat="42.91725" lon="19.20477">
        <ele>1544.0100097656</ele>
        <time>2023-10-03T11:20:57.000Z</time>
      </trkpt>
      <trkpt lat="42.91723" lon="19.20483">
        <ele>1544.9799804688</ele>
        <time>2023-10-03T11:20:56.000Z</time>
      </trkpt>
      <trkpt lat="42.91721" lon="19.20489">
        <ele>1545.4599609375</ele>
        <time>2023-10-03T11:20:55.000Z</time>
      </trkpt>
      <trkpt lat="42.91717" lon="19.205">
        <ele>1546.9000244141</ele>
        <time>2023-10-03T11:20:54.000Z</time>
      </trkpt>
      <trkpt lat="42.91713" lon="19.20505">
        <ele>1547.3800048828</ele>
        <time>2023-10-03T11:20:53.000Z</time>
      </trkpt>
      <trkpt lat="42.91709" lon="19.20508">
        <ele>1547.8599853516</ele>
        <time>2023-10-03T11:20:52.000Z</time>
      </trkpt>
      <trkpt lat="42.91706" lon="19.2051">
        <ele>1547.8599853516</ele>
        <time>2023-10-03T11:20:51.000Z</time>
      </trkpt>
      <trkpt lat="42.91701" lon="19.20514">
        <ele>1548.3399658203</ele>
        <time>2023-10-03T11:20:50.000Z</time>
      </trkpt>
      <trkpt lat="42.91696" lon="19.20517">
        <ele>1548.3399658203</ele>
        <time>2023-10-03T11:20:49.000Z</time>
      </trkpt>
      <trkpt lat="42.91689" lon="19.20524">
        <ele>1548.3399658203</ele>
        <time>2023-10-03T11:20:48.000Z</time>
      </trkpt>
      <trkpt lat="42.91685" lon="19.2053">
        <ele>1548.3399658203</ele>
        <time>2023-10-03T11:20:47.000Z</time>
      </trkpt>
      <trkpt lat="42.91682" lon="19.20538">
        <ele>1548.8199462891</ele>
        <time>2023-10-03T11:20:46.000Z</time>
      </trkpt>
      <trkpt lat="42.9168" lon="19.20543">
        <ele>1548.8199462891</ele>
        <time>2023-10-03T11:20:45.000Z</time>
      </trkpt>
      <trkpt lat="42.91677" lon="19.20555">
        <ele>1548.3399658203</ele>
        <time>2023-10-03T11:20:44.000Z</time>
      </trkpt>
      <trkpt lat="42.91677" lon="19.20559">
        <ele>1548.3399658203</ele>
        <time>2023-10-03T11:20:43.000Z</time>
      </trkpt>
      <trkpt lat="42.91675" lon="19.20571">
        <ele>1548.8199462891</ele>
        <time>2023-10-03T11:20:42.000Z</time>
      </trkpt>
      <trkpt lat="42.91674" lon="19.20579">
        <ele>1549.3000488281</ele>
        <time>2023-10-03T11:20:41.000Z</time>
      </trkpt>
      <trkpt lat="42.91671" lon="19.20585">
        <ele>1549.3000488281</ele>
        <time>2023-10-03T11:20:40.000Z</time>
      </trkpt>
      <trkpt lat="42.91669" lon="19.20591">
        <ele>1549.7800292969</ele>
        <time>2023-10-03T11:20:39.000Z</time>
      </trkpt>
      <trkpt lat="42.91665" lon="19.20598">
        <ele>1550.2600097656</ele>
        <time>2023-10-03T11:20:38.000Z</time>
      </trkpt>
      <trkpt lat="42.9166" lon="19.20603">
        <ele>1551.2199707031</ele>
        <time>2023-10-03T11:20:37.000Z</time>
      </trkpt>
      <trkpt lat="42.91652" lon="19.20607">
        <ele>1552.1899414062</ele>
        <time>2023-10-03T11:20:36.000Z</time>
      </trkpt>
      <trkpt lat="42.91642" lon="19.20611">
        <ele>1553.6300048828</ele>
        <time>2023-10-03T11:20:35.000Z</time>
      </trkpt>
      <trkpt lat="42.91634" lon="19.20614">
        <ele>1555.5500488281</ele>
        <time>2023-10-03T11:20:34.000Z</time>
      </trkpt>
      <trkpt lat="42.91628" lon="19.20617">
        <ele>1556.5100097656</ele>
        <time>2023-10-03T11:20:33.000Z</time>
      </trkpt>
      <trkpt lat="42.91621" lon="19.20622">
        <ele>1557.9499511719</ele>
        <time>2023-10-03T11:20:32.000Z</time>
      </trkpt>
      <trkpt lat="42.91616" lon="19.20628">
        <ele>1558.9200439453</ele>
        <time>2023-10-03T11:20:31.000Z</time>
      </trkpt>
      <trkpt lat="42.91612" lon="19.20633">
        <ele>1559.8800048828</ele>
        <time>2023-10-03T11:20:30.000Z</time>
      </trkpt>
      <trkpt lat="42.91608" lon="19.20638">
        <ele>1560.8399658203</ele>
        <time>2023-10-03T11:20:29.000Z</time>
      </trkpt>
      <trkpt lat="42.91601" lon="19.20646">
        <ele>1562.2800292969</ele>
        <time>2023-10-03T11:20:28.000Z</time>
      </trkpt>
      <trkpt lat="42.91593" lon="19.20654">
        <ele>1563.7199707031</ele>
        <time>2023-10-03T11:20:27.000Z</time>
      </trkpt>
      <trkpt lat="42.91586" lon="19.2066">
        <ele>1565.1600341797</ele>
        <time>2023-10-03T11:20:26.000Z</time>
      </trkpt>
      <trkpt lat="42.91583" lon="19.20663">
        <ele>1565.6400146484</ele>
        <time>2023-10-03T11:20:25.000Z</time>
      </trkpt>
      <trkpt lat="42.91572" lon="19.20671">
        <ele>1567.0899658203</ele>
        <time>2023-10-03T11:20:24.000Z</time>
      </trkpt>
      <trkpt lat="42.91564" lon="19.20676">
        <ele>1568.0500488281</ele>
        <time>2023-10-03T11:20:23.000Z</time>
      </trkpt>
      <trkpt lat="42.91558" lon="19.2068">
        <ele>1569.0100097656</ele>
        <time>2023-10-03T11:20:22.000Z</time>
      </trkpt>
      <trkpt lat="42.91551" lon="19.20683">
        <ele>1569.4899902344</ele>
        <time>2023-10-03T11:20:21.000Z</time>
      </trkpt>
      <trkpt lat="42.91547" lon="19.20686">
        <ele>1569.9699707031</ele>
        <time>2023-10-03T11:20:20.000Z</time>
      </trkpt>
      <trkpt lat="42.9154" lon="19.20693">
        <ele>1570.4499511719</ele>
        <time>2023-10-03T11:20:19.000Z</time>
      </trkpt>
      <trkpt lat="42.91538" lon="19.20696">
        <ele>1570.9300537109</ele>
        <time>2023-10-03T11:20:18.000Z</time>
      </trkpt>
      <trkpt lat="42.91529" lon="19.20706">
        <ele>1572.3699951172</ele>
        <time>2023-10-03T11:20:17.000Z</time>
      </trkpt>
      <trkpt lat="42.91523" lon="19.20712">
        <ele>1573.3299560547</ele>
        <time>2023-10-03T11:20:16.000Z</time>
      </trkpt>
      <trkpt lat="42.91518" lon="19.20718">
        <ele>1574.3000488281</ele>
        <time>2023-10-03T11:20:15.000Z</time>
      </trkpt>
      <trkpt lat="42.91515" lon="19.20723">
        <ele>1574.7800292969</ele>
        <time>2023-10-03T11:20:14.000Z</time>
      </trkpt>
      <trkpt lat="42.91512" lon="19.20729">
        <ele>1575.2600097656</ele>
        <time>2023-10-03T11:20:13.000Z</time>
      </trkpt>
      <trkpt lat="42.91512" lon="19.20735">
        <ele>1575.7399902344</ele>
        <time>2023-10-03T11:20:12.000Z</time>
      </trkpt>
      <trkpt lat="42.91513" lon="19.20743">
        <ele>1576.6999511719</ele>
        <time>2023-10-03T11:20:11.000Z</time>
      </trkpt>
      <trkpt lat="42.91515" lon="19.20751">
        <ele>1578.1400146484</ele>
        <time>2023-10-03T11:20:10.000Z</time>
      </trkpt>
      <trkpt lat="42.91518" lon="19.20758">
        <ele>1578.6199951172</ele>
        <time>2023-10-03T11:20:09.000Z</time>
      </trkpt>
      <trkpt lat="42.91523" lon="19.20764">
        <ele>1579.5799560547</ele>
        <time>2023-10-03T11:20:08.000Z</time>
      </trkpt>
      <trkpt lat="42.91528" lon="19.20768">
        <ele>1580.0600585938</ele>
        <time>2023-10-03T11:20:07.000Z</time>
      </trkpt>
      <trkpt lat="42.91534" lon="19.20771">
        <ele>1580.5400390625</ele>
        <time>2023-10-03T11:20:06.000Z</time>
      </trkpt>
      <trkpt lat="42.9154" lon="19.20772">
        <ele>1581.0300292969</ele>
        <time>2023-10-03T11:20:05.000Z</time>
      </trkpt>
      <trkpt lat="42.91547" lon="19.2077">
        <ele>1581.5100097656</ele>
        <time>2023-10-03T11:20:04.000Z</time>
      </trkpt>
      <trkpt lat="42.91555" lon="19.20766">
        <ele>1582.4699707031</ele>
        <time>2023-10-03T11:20:03.000Z</time>
      </trkpt>
      <trkpt lat="42.91562" lon="19.20762">
        <ele>1583.4300537109</ele>
        <time>2023-10-03T11:20:02.000Z</time>
      </trkpt>
      <trkpt lat="42.91569" lon="19.20757">
        <ele>1583.9100341797</ele>
        <time>2023-10-03T11:20:01.000Z</time>
      </trkpt>
      <trkpt lat="42.91575" lon="19.2075">
        <ele>1585.3499755859</ele>
        <time>2023-10-03T11:20:00.000Z</time>
      </trkpt>
      <trkpt lat="42.91579" lon="19.20746">
        <ele>1585.8299560547</ele>
        <time>2023-10-03T11:19:59.000Z</time>
      </trkpt>
      <trkpt lat="42.91586" lon="19.20736">
        <ele>1586.7900390625</ele>
        <time>2023-10-03T11:19:58.000Z</time>
      </trkpt>
      <trkpt lat="42.91592" lon="19.2073">
        <ele>1587.75</ele>
        <time>2023-10-03T11:19:57.000Z</time>
      </trkpt>
      <trkpt lat="42.91597" lon="19.20725">
        <ele>1588.2399902344</ele>
        <time>2023-10-03T11:19:56.000Z</time>
      </trkpt>
      <trkpt lat="42.91602" lon="19.20721">
        <ele>1588.7199707031</ele>
        <time>2023-10-03T11:19:55.000Z</time>
      </trkpt>
      <trkpt lat="42.91608" lon="19.20718">
        <ele>1589.1999511719</ele>
        <time>2023-10-03T11:19:54.000Z</time>
      </trkpt>
      <trkpt lat="42.91613" lon="19.20716">
        <ele>1589.6800537109</ele>
        <time>2023-10-03T11:19:53.000Z</time>
      </trkpt>
      <trkpt lat="42.91618" lon="19.20715">
        <ele>1590.1600341797</ele>
        <time>2023-10-03T11:19:52.000Z</time>
      </trkpt>
      <trkpt lat="42.91623" lon="19.20715">
        <ele>1590.6400146484</ele>
        <time>2023-10-03T11:19:51.000Z</time>
      </trkpt>
      <trkpt lat="42.91627" lon="19.20717">
        <ele>1591.1199951172</ele>
        <time>2023-10-03T11:19:50.000Z</time>
      </trkpt>
      <trkpt lat="42.91631" lon="19.20721">
        <ele>1591.1199951172</ele>
        <time>2023-10-03T11:19:49.000Z</time>
      </trkpt>
      <trkpt lat="42.91636" lon="19.20727">
        <ele>1591.5999755859</ele>
        <time>2023-10-03T11:19:48.000Z</time>
      </trkpt>
      <trkpt lat="42.9164" lon="19.20734">
        <ele>1591.5999755859</ele>
        <time>2023-10-03T11:19:47.000Z</time>
      </trkpt>
      <trkpt lat="42.91643" lon="19.20742">
        <ele>1592.0799560547</ele>
        <time>2023-10-03T11:19:46.000Z</time>
      </trkpt>
      <trkpt lat="42.91646" lon="19.20749">
        <ele>1592.5600585938</ele>
        <time>2023-10-03T11:19:45.000Z</time>
      </trkpt>
      <trkpt lat="42.91648" lon="19.20755">
        <ele>1593.0400390625</ele>
        <time>2023-10-03T11:19:44.000Z</time>
      </trkpt>
      <trkpt lat="42.91652" lon="19.20766">
        <ele>1593.0400390625</ele>
        <time>2023-10-03T11:19:43.000Z</time>
      </trkpt>
      <trkpt lat="42.91655" lon="19.20772">
        <ele>1592.5600585938</ele>
        <time>2023-10-03T11:19:42.000Z</time>
      </trkpt>
      <trkpt lat="42.9166" lon="19.20782">
        <ele>1592.5600585938</ele>
        <time>2023-10-03T11:19:41.000Z</time>
      </trkpt>
      <trkpt lat="42.91663" lon="19.20788">
        <ele>1592.5600585938</ele>
        <time>2023-10-03T11:19:40.000Z</time>
      </trkpt>
      <trkpt lat="42.91665" lon="19.20795">
        <ele>1592.5600585938</ele>
        <time>2023-10-03T11:19:39.000Z</time>
      </trkpt>
      <trkpt lat="42.91666" lon="19.20798">
        <ele>1592.0799560547</ele>
        <time>2023-10-03T11:19:38.000Z</time>
      </trkpt>
      <trkpt lat="42.91669" lon="19.20813">
        <ele>1591.5999755859</ele>
        <time>2023-10-03T11:19:37.000Z</time>
      </trkpt>
      <trkpt lat="42.91671" lon="19.20821">
        <ele>1591.1199951172</ele>
        <time>2023-10-03T11:19:36.000Z</time>
      </trkpt>
      <trkpt lat="42.91674" lon="19.2083">
        <ele>1590.6400146484</ele>
        <time>2023-10-03T11:19:35.000Z</time>
      </trkpt>
      <trkpt lat="42.91678" lon="19.2084">
        <ele>1590.6400146484</ele>
        <time>2023-10-03T11:19:34.000Z</time>
      </trkpt>
      <trkpt lat="42.91679" lon="19.20848">
        <ele>1591.1199951172</ele>
        <time>2023-10-03T11:19:33.000Z</time>
      </trkpt>
      <trkpt lat="42.91679" lon="19.20854">
        <ele>1591.1199951172</ele>
        <time>2023-10-03T11:19:32.000Z</time>
      </trkpt>
      <trkpt lat="42.91678" lon="19.20867">
        <ele>1592.0799560547</ele>
        <time>2023-10-03T11:19:31.000Z</time>
      </trkpt>
      <trkpt lat="42.91678" lon="19.20871">
        <ele>1592.0799560547</ele>
        <time>2023-10-03T11:19:30.000Z</time>
      </trkpt>
      <trkpt lat="42.91676" lon="19.20883">
        <ele>1592.5600585938</ele>
        <time>2023-10-03T11:19:29.000Z</time>
      </trkpt>
      <trkpt lat="42.9166" lon="19.20964">
        <ele>1594</ele>
        <time>2023-10-03T11:19:22.000Z</time>
      </trkpt>
      <trkpt lat="42.91658" lon="19.20971">
        <ele>1593.5200195312</ele>
        <time>2023-10-03T11:19:21.000Z</time>
      </trkpt>
      <trkpt lat="42.91653" lon="19.20991">
        <ele>1593.0400390625</ele>
        <time>2023-10-03T11:19:19.000Z</time>
      </trkpt>
      <trkpt lat="42.91652" lon="19.21001">
        <ele>1593.0400390625</ele>
        <time>2023-10-03T11:19:18.000Z</time>
      </trkpt>
      <trkpt lat="42.91652" lon="19.21009">
        <ele>1593.0400390625</ele>
        <time>2023-10-03T11:19:17.000Z</time>
      </trkpt>
      <trkpt lat="42.91653" lon="19.21017">
        <ele>1592.5600585938</ele>
        <time>2023-10-03T11:19:16.000Z</time>
      </trkpt>
      <trkpt lat="42.91656" lon="19.21038">
        <ele>1592.5600585938</ele>
        <time>2023-10-03T11:19:14.000Z</time>
      </trkpt>
      <trkpt lat="42.91657" lon="19.21048">
        <ele>1592.0799560547</ele>
        <time>2023-10-03T11:19:13.000Z</time>
      </trkpt>
      <trkpt lat="42.91655" lon="19.21058">
        <ele>1591.5999755859</ele>
        <time>2023-10-03T11:19:12.000Z</time>
      </trkpt>
      <trkpt lat="42.91653" lon="19.21067">
        <ele>1591.1199951172</ele>
        <time>2023-10-03T11:19:11.000Z</time>
      </trkpt>
      <trkpt lat="42.91648" lon="19.21085">
        <ele>1591.1199951172</ele>
        <time>2023-10-03T11:19:09.000Z</time>
      </trkpt>
      <trkpt lat="42.91645" lon="19.21099">
        <ele>1590.6400146484</ele>
        <time>2023-10-03T11:19:08.000Z</time>
      </trkpt>
      <trkpt lat="42.91644" lon="19.2111">
        <ele>1590.6400146484</ele>
        <time>2023-10-03T11:19:07.000Z</time>
      </trkpt>
      <trkpt lat="42.91644" lon="19.21122">
        <ele>1591.1199951172</ele>
        <time>2023-10-03T11:19:06.000Z</time>
      </trkpt>
      <trkpt lat="42.91644" lon="19.21129">
        <ele>1591.1199951172</ele>
        <time>2023-10-03T11:19:05.000Z</time>
      </trkpt>
      <trkpt lat="42.91645" lon="19.21145">
        <ele>1591.5999755859</ele>
        <time>2023-10-03T11:19:04.000Z</time>
      </trkpt>
      <trkpt lat="42.91645" lon="19.21156">
        <ele>1592.0799560547</ele>
        <time>2023-10-03T11:19:03.000Z</time>
      </trkpt>
      <trkpt lat="42.91644" lon="19.21166">
        <ele>1592.5600585938</ele>
        <time>2023-10-03T11:19:02.000Z</time>
      </trkpt>
      <trkpt lat="42.91642" lon="19.21178">
        <ele>1592.5600585938</ele>
        <time>2023-10-03T11:19:01.000Z</time>
      </trkpt>
      <trkpt lat="42.9164" lon="19.21188">
        <ele>1593.0400390625</ele>
        <time>2023-10-03T11:19:00.000Z</time>
      </trkpt>
      <trkpt lat="42.91638" lon="19.21199">
        <ele>1592.5600585938</ele>
        <time>2023-10-03T11:18:59.000Z</time>
      </trkpt>
      <trkpt lat="42.91638" lon="19.2121">
        <ele>1592.5600585938</ele>
        <time>2023-10-03T11:18:58.000Z</time>
      </trkpt>
      <trkpt lat="42.91637" lon="19.21221">
        <ele>1593.0400390625</ele>
        <time>2023-10-03T11:18:57.000Z</time>
      </trkpt>
      <trkpt lat="42.91637" lon="19.21229">
        <ele>1593.0400390625</ele>
        <time>2023-10-03T11:18:56.000Z</time>
      </trkpt>
      <trkpt lat="42.91634" lon="19.21241">
        <ele>1593.0400390625</ele>
        <time>2023-10-03T11:18:55.000Z</time>
      </trkpt>
      <trkpt lat="42.91633" lon="19.21245">
        <ele>1593.5200195312</ele>
        <time>2023-10-03T11:18:54.000Z</time>
      </trkpt>
      <trkpt lat="42.9163" lon="19.21257">
        <ele>1593.5200195312</ele>
        <time>2023-10-03T11:18:52.000Z</time>
      </trkpt>
      <trkpt lat="42.91627" lon="19.21267">
        <ele>1594</ele>
        <time>2023-10-03T11:18:51.000Z</time>
      </trkpt>
      <trkpt lat="42.91626" lon="19.21273">
        <ele>1594.4799804688</ele>
        <time>2023-10-03T11:18:50.000Z</time>
      </trkpt>
      <trkpt lat="42.91625" lon="19.21277">
        <ele>1594.9599609375</ele>
        <time>2023-10-03T11:18:49.000Z</time>
      </trkpt>
      <trkpt lat="42.91624" lon="19.21283">
        <ele>1594.9599609375</ele>
        <time>2023-10-03T11:18:48.000Z</time>
      </trkpt>
      <trkpt lat="42.91623" lon="19.21288">
        <ele>1595.4499511719</ele>
        <time>2023-10-03T11:18:47.000Z</time>
      </trkpt>
      <trkpt lat="42.9162" lon="19.21296">
        <ele>1595.9300537109</ele>
        <time>2023-10-03T11:18:45.000Z</time>
      </trkpt>
      <trkpt lat="42.91611" lon="19.21324">
        <ele>1598.3299560547</ele>
        <time>2023-10-03T11:18:40.000Z</time>
      </trkpt>
      <trkpt lat="42.91609" lon="19.21329">
        <ele>1599.2900390625</ele>
        <time>2023-10-03T11:18:39.000Z</time>
      </trkpt>
      <trkpt lat="42.91607" lon="19.21333">
        <ele>1599.7700195312</ele>
        <time>2023-10-03T11:18:38.000Z</time>
      </trkpt>
      <trkpt lat="42.91604" lon="19.21337">
        <ele>1599.7700195312</ele>
        <time>2023-10-03T11:18:37.000Z</time>
      </trkpt>
      <trkpt lat="42.91597" lon="19.21348">
        <ele>1601.2099609375</ele>
        <time>2023-10-03T11:18:36.000Z</time>
      </trkpt>
      <trkpt lat="42.91594" lon="19.21353">
        <ele>1602.1700439453</ele>
        <time>2023-10-03T11:18:35.000Z</time>
      </trkpt>
      <trkpt lat="42.9159" lon="19.21361">
        <ele>1603.6199951172</ele>
        <time>2023-10-03T11:18:34.000Z</time>
      </trkpt>
      <trkpt lat="42.91586" lon="19.21367">
        <ele>1604.5799560547</ele>
        <time>2023-10-03T11:18:33.000Z</time>
      </trkpt>
      <trkpt lat="42.91582" lon="19.21372">
        <ele>1605.0600585938</ele>
        <time>2023-10-03T11:18:32.000Z</time>
      </trkpt>
      <trkpt lat="42.91575" lon="19.21379">
        <ele>1606.0200195312</ele>
        <time>2023-10-03T11:18:31.000Z</time>
      </trkpt>
      <trkpt lat="42.91571" lon="19.21384">
        <ele>1606.5</ele>
        <time>2023-10-03T11:18:30.000Z</time>
      </trkpt>
      <trkpt lat="42.91566" lon="19.2139">
        <ele>1607.4599609375</ele>
        <time>2023-10-03T11:18:29.000Z</time>
      </trkpt>
      <trkpt lat="42.91559" lon="19.21399">
        <ele>1608.4200439453</ele>
        <time>2023-10-03T11:18:28.000Z</time>
      </trkpt>
      <trkpt lat="42.91554" lon="19.21405">
        <ele>1608.9000244141</ele>
        <time>2023-10-03T11:18:27.000Z</time>
      </trkpt>
      <trkpt lat="42.91548" lon="19.21413">
        <ele>1609.8599853516</ele>
        <time>2023-10-03T11:18:26.000Z</time>
      </trkpt>
      <trkpt lat="42.91534" lon="19.21429">
        <ele>1610.3499755859</ele>
        <time>2023-10-03T11:18:24.000Z</time>
      </trkpt>
      <trkpt lat="42.91528" lon="19.21435">
        <ele>1610.8299560547</ele>
        <time>2023-10-03T11:18:23.000Z</time>
      </trkpt>
      <trkpt lat="42.91524" lon="19.21438">
        <ele>1610.8299560547</ele>
        <time>2023-10-03T11:18:22.000Z</time>
      </trkpt>
      <trkpt lat="42.91514" lon="19.21444">
        <ele>1610.8299560547</ele>
        <time>2023-10-03T11:18:21.000Z</time>
      </trkpt>
      <trkpt lat="42.91506" lon="19.2145">
        <ele>1610.3499755859</ele>
        <time>2023-10-03T11:18:20.000Z</time>
      </trkpt>
      <trkpt lat="42.91501" lon="19.21453">
        <ele>1610.3499755859</ele>
        <time>2023-10-03T11:18:19.000Z</time>
      </trkpt>
      <trkpt lat="42.91492" lon="19.21458">
        <ele>1610.3499755859</ele>
        <time>2023-10-03T11:18:18.000Z</time>
      </trkpt>
      <trkpt lat="42.91476" lon="19.21466">
        <ele>1610.8299560547</ele>
        <time>2023-10-03T11:18:16.000Z</time>
      </trkpt>
      <trkpt lat="42.9147" lon="19.2147">
        <ele>1610.8299560547</ele>
        <time>2023-10-03T11:18:15.000Z</time>
      </trkpt>
      <trkpt lat="42.91465" lon="19.21474">
        <ele>1611.3100585938</ele>
        <time>2023-10-03T11:18:14.000Z</time>
      </trkpt>
      <trkpt lat="42.91461" lon="19.21478">
        <ele>1611.7900390625</ele>
        <time>2023-10-03T11:18:13.000Z</time>
      </trkpt>
      <trkpt lat="42.91459" lon="19.21484">
        <ele>1612.2700195312</ele>
        <time>2023-10-03T11:18:12.000Z</time>
      </trkpt>
      <trkpt lat="42.91456" lon="19.21492">
        <ele>1613.2299804688</ele>
        <time>2023-10-03T11:18:11.000Z</time>
      </trkpt>
      <trkpt lat="42.91454" lon="19.21501">
        <ele>1614.1899414062</ele>
        <time>2023-10-03T11:18:10.000Z</time>
      </trkpt>
      <trkpt lat="42.91452" lon="19.21509">
        <ele>1614.6700439453</ele>
        <time>2023-10-03T11:18:09.000Z</time>
      </trkpt>
      <trkpt lat="42.91449" lon="19.21515">
        <ele>1615.1500244141</ele>
        <time>2023-10-03T11:18:08.000Z</time>
      </trkpt>
      <trkpt lat="42.91446" lon="19.21521">
        <ele>1615.6300048828</ele>
        <time>2023-10-03T11:18:07.000Z</time>
      </trkpt>
      <trkpt lat="42.91442" lon="19.21532">
        <ele>1616.5899658203</ele>
        <time>2023-10-03T11:18:06.000Z</time>
      </trkpt>
      <trkpt lat="42.91439" lon="19.21541">
        <ele>1618.0400390625</ele>
        <time>2023-10-03T11:18:05.000Z</time>
      </trkpt>
      <trkpt lat="42.91437" lon="19.21551">
        <ele>1619</ele>
        <time>2023-10-03T11:18:04.000Z</time>
      </trkpt>
      <trkpt lat="42.91437" lon="19.21556">
        <ele>1619.4799804688</ele>
        <time>2023-10-03T11:18:03.000Z</time>
      </trkpt>
      <trkpt lat="42.91437" lon="19.21566">
        <ele>1620.4399414062</ele>
        <time>2023-10-03T11:18:02.000Z</time>
      </trkpt>
      <trkpt lat="42.91437" lon="19.21572">
        <ele>1620.9200439453</ele>
        <time>2023-10-03T11:18:01.000Z</time>
      </trkpt>
      <trkpt lat="42.91437" lon="19.21582">
        <ele>1621.4000244141</ele>
        <time>2023-10-03T11:18:00.000Z</time>
      </trkpt>
      <trkpt lat="42.91438" lon="19.2159">
        <ele>1621.8800048828</ele>
        <time>2023-10-03T11:17:59.000Z</time>
      </trkpt>
      <trkpt lat="42.91438" lon="19.21595">
        <ele>1621.8800048828</ele>
        <time>2023-10-03T11:17:58.000Z</time>
      </trkpt>
      <trkpt lat="42.91438" lon="19.21607">
        <ele>1622.3599853516</ele>
        <time>2023-10-03T11:17:56.000Z</time>
      </trkpt>
      <trkpt lat="42.91437" lon="19.21612">
        <ele>1622.3599853516</ele>
        <time>2023-10-03T11:17:55.000Z</time>
      </trkpt>
      <trkpt lat="42.91436" lon="19.21616">
        <ele>1622.8399658203</ele>
        <time>2023-10-03T11:17:54.000Z</time>
      </trkpt>
      <trkpt lat="42.91427" lon="19.21639">
        <ele>1624.2800292969</ele>
        <time>2023-10-03T11:17:51.000Z</time>
      </trkpt>
      <trkpt lat="42.91422" lon="19.21652">
        <ele>1625.7299804688</ele>
        <time>2023-10-03T11:17:50.000Z</time>
      </trkpt>
      <trkpt lat="42.9142" lon="19.21659">
        <ele>1626.6899414062</ele>
        <time>2023-10-03T11:17:49.000Z</time>
      </trkpt>
      <trkpt lat="42.9142" lon="19.21666">
        <ele>1627.1700439453</ele>
        <time>2023-10-03T11:17:48.000Z</time>
      </trkpt>
      <trkpt lat="42.91419" lon="19.21673">
        <ele>1628.1300048828</ele>
        <time>2023-10-03T11:17:47.000Z</time>
      </trkpt>
      <trkpt lat="42.91419" lon="19.2168">
        <ele>1629.5699462891</ele>
        <time>2023-10-03T11:17:46.000Z</time>
      </trkpt>
      <trkpt lat="42.91419" lon="19.21686">
        <ele>1630.5300292969</ele>
        <time>2023-10-03T11:17:45.000Z</time>
      </trkpt>
      <trkpt lat="42.91417" lon="19.21691">
        <ele>1631.4899902344</ele>
        <time>2023-10-03T11:17:44.000Z</time>
      </trkpt>
      <trkpt lat="42.91415" lon="19.21695">
        <ele>1632.4599609375</ele>
        <time>2023-10-03T11:17:43.000Z</time>
      </trkpt>
      <trkpt lat="42.91411" lon="19.21702">
        <ele>1633.9000244141</ele>
        <time>2023-10-03T11:17:42.000Z</time>
      </trkpt>
      <trkpt lat="42.91408" lon="19.21706">
        <ele>1634.8599853516</ele>
        <time>2023-10-03T11:17:41.000Z</time>
      </trkpt>
      <trkpt lat="42.91406" lon="19.2171">
        <ele>1635.3399658203</ele>
        <time>2023-10-03T11:17:40.000Z</time>
      </trkpt>
      <trkpt lat="42.91404" lon="19.21713">
        <ele>1635.8199462891</ele>
        <time>2023-10-03T11:17:39.000Z</time>
      </trkpt>
      <trkpt lat="42.91399" lon="19.21722">
        <ele>1637.7399902344</ele>
        <time>2023-10-03T11:17:38.000Z</time>
      </trkpt>
      <trkpt lat="42.91396" lon="19.21727">
        <ele>1638.2199707031</ele>
        <time>2023-10-03T11:17:37.000Z</time>
      </trkpt>
      <trkpt lat="42.91395" lon="19.21728">
        <ele>1638.6999511719</ele>
        <time>2023-10-03T11:17:36.000Z</time>
      </trkpt>
      <trkpt lat="42.9139" lon="19.2174">
        <ele>1639.6700439453</ele>
        <time>2023-10-03T11:17:35.000Z</time>
      </trkpt>
      <trkpt lat="42.91388" lon="19.21743">
        <ele>1640.1500244141</ele>
        <time>2023-10-03T11:17:34.000Z</time>
      </trkpt>
      <trkpt lat="42.91384" lon="19.21751">
        <ele>1640.6300048828</ele>
        <time>2023-10-03T11:17:33.000Z</time>
      </trkpt>
      <trkpt lat="42.9138" lon="19.21757">
        <ele>1641.5899658203</ele>
        <time>2023-10-03T11:17:32.000Z</time>
      </trkpt>
      <trkpt lat="42.91375" lon="19.21762">
        <ele>1641.5899658203</ele>
        <time>2023-10-03T11:17:31.000Z</time>
      </trkpt>
      <trkpt lat="42.91372" lon="19.21766">
        <ele>1642.0699462891</ele>
        <time>2023-10-03T11:17:30.000Z</time>
      </trkpt>
      <trkpt lat="42.91369" lon="19.21768">
        <ele>1642.5500488281</ele>
        <time>2023-10-03T11:17:29.000Z</time>
      </trkpt>
      <trkpt lat="42.91362" lon="19.21772">
        <ele>1643.0300292969</ele>
        <time>2023-10-03T11:17:28.000Z</time>
      </trkpt>
      <trkpt lat="42.91358" lon="19.21774">
        <ele>1643.5100097656</ele>
        <time>2023-10-03T11:17:27.000Z</time>
      </trkpt>
      <trkpt lat="42.91353" lon="19.21776">
        <ele>1643.9899902344</ele>
        <time>2023-10-03T11:17:26.000Z</time>
      </trkpt>
      <trkpt lat="42.91347" lon="19.21776">
        <ele>1644.4699707031</ele>
        <time>2023-10-03T11:17:25.000Z</time>
      </trkpt>
      <trkpt lat="42.91344" lon="19.21776">
        <ele>1644.4699707031</ele>
        <time>2023-10-03T11:17:24.000Z</time>
      </trkpt>
      <trkpt lat="42.9132" lon="19.21774">
        <ele>1645.4300537109</ele>
        <time>2023-10-03T11:17:21.000Z</time>
      </trkpt>
      <trkpt lat="42.91314" lon="19.21775">
        <ele>1645.9100341797</ele>
        <time>2023-10-03T11:17:20.000Z</time>
      </trkpt>
      <trkpt lat="42.91308" lon="19.21777">
        <ele>1646.4000244141</ele>
        <time>2023-10-03T11:17:19.000Z</time>
      </trkpt>
      <trkpt lat="42.91303" lon="19.2178">
        <ele>1646.8800048828</ele>
        <time>2023-10-03T11:17:18.000Z</time>
      </trkpt>
      <trkpt lat="42.91296" lon="19.21785">
        <ele>1647.3599853516</ele>
        <time>2023-10-03T11:17:17.000Z</time>
      </trkpt>
      <trkpt lat="42.9129" lon="19.21791">
        <ele>1648.3199462891</ele>
        <time>2023-10-03T11:17:16.000Z</time>
      </trkpt>
      <trkpt lat="42.91285" lon="19.21795">
        <ele>1648.8000488281</ele>
        <time>2023-10-03T11:17:15.000Z</time>
      </trkpt>
      <trkpt lat="42.91279" lon="19.21801">
        <ele>1649.7600097656</ele>
        <time>2023-10-03T11:17:14.000Z</time>
      </trkpt>
      <trkpt lat="42.91274" lon="19.21805">
        <ele>1650.2399902344</ele>
        <time>2023-10-03T11:17:13.000Z</time>
      </trkpt>
      <trkpt lat="42.91268" lon="19.21811">
        <ele>1651.1999511719</ele>
        <time>2023-10-03T11:17:12.000Z</time>
      </trkpt>
      <trkpt lat="42.91264" lon="19.21813">
        <ele>1651.6800537109</ele>
        <time>2023-10-03T11:17:11.000Z</time>
      </trkpt>
      <trkpt lat="42.91258" lon="19.21819">
        <ele>1652.1600341797</ele>
        <time>2023-10-03T11:17:10.000Z</time>
      </trkpt>
      <trkpt lat="42.91253" lon="19.21823">
        <ele>1652.6400146484</ele>
        <time>2023-10-03T11:17:09.000Z</time>
      </trkpt>
      <trkpt lat="42.9125" lon="19.21824">
        <ele>1652.6400146484</ele>
        <time>2023-10-03T11:17:08.000Z</time>
      </trkpt>
      <trkpt lat="42.91244" lon="19.21828">
        <ele>1653.1199951172</ele>
        <time>2023-10-03T11:17:07.000Z</time>
      </trkpt>
      <trkpt lat="42.91236" lon="19.21833">
        <ele>1653.1199951172</ele>
        <time>2023-10-03T11:17:06.000Z</time>
      </trkpt>
      <trkpt lat="42.9123" lon="19.21837">
        <ele>1653.1199951172</ele>
        <time>2023-10-03T11:17:05.000Z</time>
      </trkpt>
      <trkpt lat="42.91227" lon="19.2184">
        <ele>1653.1199951172</ele>
        <time>2023-10-03T11:17:04.000Z</time>
      </trkpt>
      <trkpt lat="42.91221" lon="19.21849">
        <ele>1652.6400146484</ele>
        <time>2023-10-03T11:17:03.000Z</time>
      </trkpt>
      <trkpt lat="42.91214" lon="19.2186">
        <ele>1652.6400146484</ele>
        <time>2023-10-03T11:17:01.000Z</time>
      </trkpt>
      <trkpt lat="42.91209" lon="19.21867">
        <ele>1652.1600341797</ele>
        <time>2023-10-03T11:17:00.000Z</time>
      </trkpt>
      <trkpt lat="42.91205" lon="19.21873">
        <ele>1652.1600341797</ele>
        <time>2023-10-03T11:16:59.000Z</time>
      </trkpt>
      <trkpt lat="42.91191" lon="19.2189">
        <ele>1652.6400146484</ele>
        <time>2023-10-03T11:16:56.000Z</time>
      </trkpt>
      <trkpt lat="42.9119" lon="19.21892">
        <ele>1652.6400146484</ele>
        <time>2023-10-03T11:16:55.000Z</time>
      </trkpt>
      <trkpt lat="42.91184" lon="19.219">
        <ele>1652.6400146484</ele>
        <time>2023-10-03T11:16:39.000Z</time>
      </trkpt>
      <trkpt lat="42.9118" lon="19.21906">
        <ele>1652.6400146484</ele>
        <time>2023-10-03T11:16:32.000Z</time>
      </trkpt>
      <trkpt lat="42.91178" lon="19.2191">
        <ele>1652.6400146484</ele>
        <time>2023-10-03T11:16:31.000Z</time>
      </trkpt>
      <trkpt lat="42.91174" lon="19.21915">
        <ele>1652.6400146484</ele>
        <time>2023-10-03T11:16:30.000Z</time>
      </trkpt>
      <trkpt lat="42.91171" lon="19.21922">
        <ele>1652.6400146484</ele>
        <time>2023-10-03T11:16:29.000Z</time>
      </trkpt>
      <trkpt lat="42.91168" lon="19.21928">
        <ele>1652.6400146484</ele>
        <time>2023-10-03T11:16:28.000Z</time>
      </trkpt>
      <trkpt lat="42.91166" lon="19.21934">
        <ele>1652.1600341797</ele>
        <time>2023-10-03T11:16:27.000Z</time>
      </trkpt>
      <trkpt lat="42.91163" lon="19.21941">
        <ele>1651.6800537109</ele>
        <time>2023-10-03T11:16:26.000Z</time>
      </trkpt>
      <trkpt lat="42.91162" lon="19.21945">
        <ele>1651.1999511719</ele>
        <time>2023-10-03T11:16:25.000Z</time>
      </trkpt>
      <trkpt lat="42.91158" lon="19.21955">
        <ele>1650.2399902344</ele>
        <time>2023-10-03T11:16:24.000Z</time>
      </trkpt>
      <trkpt lat="42.91156" lon="19.21961">
        <ele>1649.2800292969</ele>
        <time>2023-10-03T11:16:23.000Z</time>
      </trkpt>
      <trkpt lat="42.91153" lon="19.21967">
        <ele>1648.8000488281</ele>
        <time>2023-10-03T11:16:22.000Z</time>
      </trkpt>
      <trkpt lat="42.9115" lon="19.21973">
        <ele>1648.3199462891</ele>
        <time>2023-10-03T11:16:21.000Z</time>
      </trkpt>
      <trkpt lat="42.91145" lon="19.21982">
        <ele>1648.3199462891</ele>
        <time>2023-10-03T11:16:20.000Z</time>
      </trkpt>
      <trkpt lat="42.9114" lon="19.21987">
        <ele>1648.3199462891</ele>
        <time>2023-10-03T11:16:19.000Z</time>
      </trkpt>
      <trkpt lat="42.91134" lon="19.21992">
        <ele>1648.3199462891</ele>
        <time>2023-10-03T11:16:18.000Z</time>
      </trkpt>
      <trkpt lat="42.91129" lon="19.21997">
        <ele>1648.3199462891</ele>
        <time>2023-10-03T11:16:17.000Z</time>
      </trkpt>
      <trkpt lat="42.91125" lon="19.22">
        <ele>1648.3199462891</ele>
        <time>2023-10-03T11:16:16.000Z</time>
      </trkpt>
      <trkpt lat="42.9112" lon="19.22005">
        <ele>1648.3199462891</ele>
        <time>2023-10-03T11:16:15.000Z</time>
      </trkpt>
      <trkpt lat="42.91115" lon="19.22008">
        <ele>1648.3199462891</ele>
        <time>2023-10-03T11:16:14.000Z</time>
      </trkpt>
      <trkpt lat="42.91111" lon="19.22011">
        <ele>1648.3199462891</ele>
        <time>2023-10-03T11:16:13.000Z</time>
      </trkpt>
      <trkpt lat="42.91105" lon="19.22014">
        <ele>1648.3199462891</ele>
        <time>2023-10-03T11:16:12.000Z</time>
      </trkpt>
      <trkpt lat="42.91101" lon="19.22017">
        <ele>1648.3199462891</ele>
        <time>2023-10-03T11:16:11.000Z</time>
      </trkpt>
      <trkpt lat="42.91097" lon="19.2202">
        <ele>1648.3199462891</ele>
        <time>2023-10-03T11:16:10.000Z</time>
      </trkpt>
      <trkpt lat="42.91096" lon="19.22022">
        <ele>1648.3199462891</ele>
        <time>2023-10-03T11:16:09.000Z</time>
      </trkpt>
      <trkpt lat="42.91089" lon="19.22029">
        <ele>1648.3199462891</ele>
        <time>2023-10-03T11:16:08.000Z</time>
      </trkpt>
      <trkpt lat="42.91083" lon="19.22034">
        <ele>1648.8000488281</ele>
        <time>2023-10-03T11:16:07.000Z</time>
      </trkpt>
      <trkpt lat="42.91078" lon="19.22039">
        <ele>1649.2800292969</ele>
        <time>2023-10-03T11:16:06.000Z</time>
      </trkpt>
      <trkpt lat="42.91072" lon="19.22043">
        <ele>1650.2399902344</ele>
        <time>2023-10-03T11:16:05.000Z</time>
      </trkpt>
      <trkpt lat="42.91066" lon="19.22045">
        <ele>1651.1999511719</ele>
        <time>2023-10-03T11:16:04.000Z</time>
      </trkpt>
      <trkpt lat="42.91061" lon="19.22047">
        <ele>1651.6800537109</ele>
        <time>2023-10-03T11:16:03.000Z</time>
      </trkpt>
      <trkpt lat="42.91055" lon="19.22049">
        <ele>1652.1600341797</ele>
        <time>2023-10-03T11:16:02.000Z</time>
      </trkpt>
      <trkpt lat="42.91049" lon="19.22052">
        <ele>1652.1600341797</ele>
        <time>2023-10-03T11:16:01.000Z</time>
      </trkpt>
      <trkpt lat="42.91045" lon="19.22056">
        <ele>1652.1600341797</ele>
        <time>2023-10-03T11:16:00.000Z</time>
      </trkpt>
      <trkpt lat="42.91042" lon="19.2206">
        <ele>1652.6400146484</ele>
        <time>2023-10-03T11:15:59.000Z</time>
      </trkpt>
      <trkpt lat="42.91038" lon="19.22065">
        <ele>1652.1600341797</ele>
        <time>2023-10-03T11:15:58.000Z</time>
      </trkpt>
      <trkpt lat="42.91035" lon="19.22071">
        <ele>1652.1600341797</ele>
        <time>2023-10-03T11:15:57.000Z</time>
      </trkpt>
      <trkpt lat="42.91032" lon="19.22075">
        <ele>1652.6400146484</ele>
        <time>2023-10-03T11:15:56.000Z</time>
      </trkpt>
      <trkpt lat="42.91028" lon="19.22079">
        <ele>1652.6400146484</ele>
        <time>2023-10-03T11:15:55.000Z</time>
      </trkpt>
      <trkpt lat="42.91022" lon="19.22081">
        <ele>1652.6400146484</ele>
        <time>2023-10-03T11:15:54.000Z</time>
      </trkpt>
      <trkpt lat="42.91017" lon="19.22082">
        <ele>1652.1600341797</ele>
        <time>2023-10-03T11:15:53.000Z</time>
      </trkpt>
      <trkpt lat="42.91009" lon="19.22084">
        <ele>1651.6800537109</ele>
        <time>2023-10-03T11:15:52.000Z</time>
      </trkpt>
      <trkpt lat="42.91003" lon="19.22087">
        <ele>1651.1999511719</ele>
        <time>2023-10-03T11:15:51.000Z</time>
      </trkpt>
      <trkpt lat="42.90999" lon="19.22091">
        <ele>1650.7199707031</ele>
        <time>2023-10-03T11:15:50.000Z</time>
      </trkpt>
      <trkpt lat="42.90994" lon="19.22095">
        <ele>1650.2399902344</ele>
        <time>2023-10-03T11:15:49.000Z</time>
      </trkpt>
      <trkpt lat="42.90992" lon="19.22097">
        <ele>1650.2399902344</ele>
        <time>2023-10-03T11:15:48.000Z</time>
      </trkpt>
      <trkpt lat="42.90984" lon="19.22103">
        <ele>1648.8000488281</ele>
        <time>2023-10-03T11:15:47.000Z</time>
      </trkpt>
      <trkpt lat="42.90979" lon="19.22105">
        <ele>1647.8399658203</ele>
        <time>2023-10-03T11:15:46.000Z</time>
      </trkpt>
      <trkpt lat="42.90975" lon="19.22106">
        <ele>1647.3599853516</ele>
        <time>2023-10-03T11:15:45.000Z</time>
      </trkpt>
      <trkpt lat="42.9097" lon="19.22106">
        <ele>1646.4000244141</ele>
        <time>2023-10-03T11:15:44.000Z</time>
      </trkpt>
      <trkpt lat="42.90966" lon="19.22106">
        <ele>1646.4000244141</ele>
        <time>2023-10-03T11:15:43.000Z</time>
      </trkpt>
      <trkpt lat="42.90959" lon="19.22105">
        <ele>1645.4300537109</ele>
        <time>2023-10-03T11:15:42.000Z</time>
      </trkpt>
      <trkpt lat="42.90954" lon="19.22105">
        <ele>1644.9499511719</ele>
        <time>2023-10-03T11:15:41.000Z</time>
      </trkpt>
      <trkpt lat="42.90952" lon="19.22105">
        <ele>1644.4699707031</ele>
        <time>2023-10-03T11:15:40.000Z</time>
      </trkpt>
      <trkpt lat="42.90943" lon="19.22117">
        <ele>1643.0300292969</ele>
        <time>2023-10-03T11:15:36.000Z</time>
      </trkpt>
      <trkpt lat="42.90944" lon="19.2212">
        <ele>1642.5500488281</ele>
        <time>2023-10-03T11:15:35.000Z</time>
      </trkpt>
      <trkpt lat="42.90946" lon="19.22127">
        <ele>1642.0699462891</ele>
        <time>2023-10-03T11:15:34.000Z</time>
      </trkpt>
      <trkpt lat="42.9095" lon="19.22133">
        <ele>1641.1099853516</ele>
        <time>2023-10-03T11:15:33.000Z</time>
      </trkpt>
      <trkpt lat="42.90954" lon="19.2214">
        <ele>1640.1500244141</ele>
        <time>2023-10-03T11:15:32.000Z</time>
      </trkpt>
      <trkpt lat="42.90957" lon="19.22149">
        <ele>1639.1899414062</ele>
        <time>2023-10-03T11:15:31.000Z</time>
      </trkpt>
      <trkpt lat="42.90961" lon="19.22159">
        <ele>1638.2199707031</ele>
        <time>2023-10-03T11:15:29.000Z</time>
      </trkpt>
      <trkpt lat="42.90967" lon="19.22176">
        <ele>1636.3000488281</ele>
        <time>2023-10-03T11:15:28.000Z</time>
      </trkpt>
      <trkpt lat="42.90971" lon="19.22194">
        <ele>1634.3800048828</ele>
        <time>2023-10-03T11:15:26.000Z</time>
      </trkpt>
      <trkpt lat="42.90972" lon="19.22202">
        <ele>1633.9000244141</ele>
        <time>2023-10-03T11:15:25.000Z</time>
      </trkpt>
      <trkpt lat="42.90974" lon="19.22211">
        <ele>1632.9399414062</ele>
        <time>2023-10-03T11:15:24.000Z</time>
      </trkpt>
      <trkpt lat="42.90976" lon="19.22218">
        <ele>1631.9799804688</ele>
        <time>2023-10-03T11:15:23.000Z</time>
      </trkpt>
      <trkpt lat="42.90978" lon="19.22226">
        <ele>1631.0100097656</ele>
        <time>2023-10-03T11:15:22.000Z</time>
      </trkpt>
      <trkpt lat="42.90979" lon="19.22235">
        <ele>1629.5699462891</ele>
        <time>2023-10-03T11:15:21.000Z</time>
      </trkpt>
      <trkpt lat="42.90979" lon="19.22242">
        <ele>1628.6099853516</ele>
        <time>2023-10-03T11:15:20.000Z</time>
      </trkpt>
      <trkpt lat="42.90979" lon="19.22252">
        <ele>1627.6500244141</ele>
        <time>2023-10-03T11:15:19.000Z</time>
      </trkpt>
      <trkpt lat="42.90977" lon="19.22259">
        <ele>1627.1700439453</ele>
        <time>2023-10-03T11:15:18.000Z</time>
      </trkpt>
      <trkpt lat="42.90975" lon="19.22267">
        <ele>1626.2099609375</ele>
        <time>2023-10-03T11:15:17.000Z</time>
      </trkpt>
      <trkpt lat="42.90973" lon="19.22274">
        <ele>1625.7299804688</ele>
        <time>2023-10-03T11:15:16.000Z</time>
      </trkpt>
      <trkpt lat="42.90972" lon="19.2228">
        <ele>1624.7700195312</ele>
        <time>2023-10-03T11:15:15.000Z</time>
      </trkpt>
      <trkpt lat="42.90971" lon="19.22285">
        <ele>1623.8000488281</ele>
        <time>2023-10-03T11:15:14.000Z</time>
      </trkpt>
      <trkpt lat="42.9097" lon="19.22292">
        <ele>1622.8399658203</ele>
        <time>2023-10-03T11:15:13.000Z</time>
      </trkpt>
      <trkpt lat="42.90971" lon="19.22299">
        <ele>1622.3599853516</ele>
        <time>2023-10-03T11:15:12.000Z</time>
      </trkpt>
      <trkpt lat="42.90971" lon="19.22306">
        <ele>1621.8800048828</ele>
        <time>2023-10-03T11:15:11.000Z</time>
      </trkpt>
      <trkpt lat="42.90971" lon="19.22316">
        <ele>1620.4399414062</ele>
        <time>2023-10-03T11:15:10.000Z</time>
      </trkpt>
      <trkpt lat="42.90971" lon="19.22328">
        <ele>1619.4799804688</ele>
        <time>2023-10-03T11:15:09.000Z</time>
      </trkpt>
      <trkpt lat="42.9097" lon="19.22335">
        <ele>1619</ele>
        <time>2023-10-03T11:15:08.000Z</time>
      </trkpt>
      <trkpt lat="42.90968" lon="19.22346">
        <ele>1618.0400390625</ele>
        <time>2023-10-03T11:15:07.000Z</time>
      </trkpt>
      <trkpt lat="42.90968" lon="19.22353">
        <ele>1617.0699462891</ele>
        <time>2023-10-03T11:15:06.000Z</time>
      </trkpt>
      <trkpt lat="42.90968" lon="19.22361">
        <ele>1616.1099853516</ele>
        <time>2023-10-03T11:15:05.000Z</time>
      </trkpt>
      <trkpt lat="42.90968" lon="19.22374">
        <ele>1614.6700439453</ele>
        <time>2023-10-03T11:15:04.000Z</time>
      </trkpt>
      <trkpt lat="42.90968" lon="19.22376">
        <ele>1614.6700439453</ele>
        <time>2023-10-03T11:15:03.000Z</time>
      </trkpt>
      <trkpt lat="42.90968" lon="19.22388">
        <ele>1613.2299804688</ele>
        <time>2023-10-03T11:15:02.000Z</time>
      </trkpt>
      <trkpt lat="42.90969" lon="19.22399">
        <ele>1612.2700195312</ele>
        <time>2023-10-03T11:15:01.000Z</time>
      </trkpt>
      <trkpt lat="42.9097" lon="19.22409">
        <ele>1611.3100585938</ele>
        <time>2023-10-03T11:15:00.000Z</time>
      </trkpt>
      <trkpt lat="42.90971" lon="19.2242">
        <ele>1610.3499755859</ele>
        <time>2023-10-03T11:14:59.000Z</time>
      </trkpt>
      <trkpt lat="42.90971" lon="19.22422">
        <ele>1609.8599853516</ele>
        <time>2023-10-03T11:14:58.000Z</time>
      </trkpt>
      <trkpt lat="42.90973" lon="19.22432">
        <ele>1609.3800048828</ele>
        <time>2023-10-03T11:14:57.000Z</time>
      </trkpt>
      <trkpt lat="42.90974" lon="19.22444">
        <ele>1607.9399414062</ele>
        <time>2023-10-03T11:14:56.000Z</time>
      </trkpt>
      <trkpt lat="42.90974" lon="19.22451">
        <ele>1607.4599609375</ele>
        <time>2023-10-03T11:14:55.000Z</time>
      </trkpt>
      <trkpt lat="42.90973" lon="19.22455">
        <ele>1606.9799804688</ele>
        <time>2023-10-03T11:14:54.000Z</time>
      </trkpt>
      <trkpt lat="42.90963" lon="19.22461">
        <ele>1606.0200195312</ele>
        <time>2023-10-03T11:14:51.000Z</time>
      </trkpt>
      <trkpt lat="42.90959" lon="19.22458">
        <ele>1605.5400390625</ele>
        <time>2023-10-03T11:14:50.000Z</time>
      </trkpt>
      <trkpt lat="42.90955" lon="19.22455">
        <ele>1605.0600585938</ele>
        <time>2023-10-03T11:14:49.000Z</time>
      </trkpt>
      <trkpt lat="42.90951" lon="19.2245">
        <ele>1604.5799560547</ele>
        <time>2023-10-03T11:14:48.000Z</time>
      </trkpt>
      <trkpt lat="42.90946" lon="19.22444">
        <ele>1604.0999755859</ele>
        <time>2023-10-03T11:14:47.000Z</time>
      </trkpt>
      <trkpt lat="42.90944" lon="19.2244">
        <ele>1603.6199951172</ele>
        <time>2023-10-03T11:14:46.000Z</time>
      </trkpt>
      <trkpt lat="42.9094" lon="19.22434">
        <ele>1603.1400146484</ele>
        <time>2023-10-03T11:14:45.000Z</time>
      </trkpt>
      <trkpt lat="42.90931" lon="19.2242">
        <ele>1601.6899414062</ele>
        <time>2023-10-03T11:14:43.000Z</time>
      </trkpt>
      <trkpt lat="42.90927" lon="19.22414">
        <ele>1601.2099609375</ele>
        <time>2023-10-03T11:14:42.000Z</time>
      </trkpt>
      <trkpt lat="42.90922" lon="19.22411">
        <ele>1600.25</ele>
        <time>2023-10-03T11:14:41.000Z</time>
      </trkpt>
      <trkpt lat="42.90918" lon="19.22409">
        <ele>1599.2900390625</ele>
        <time>2023-10-03T11:14:40.000Z</time>
      </trkpt>
      <trkpt lat="42.90914" lon="19.22409">
        <ele>1598.3299560547</ele>
        <time>2023-10-03T11:14:39.000Z</time>
      </trkpt>
      <trkpt lat="42.90907" lon="19.22414">
        <ele>1597.3699951172</ele>
        <time>2023-10-03T11:14:37.000Z</time>
      </trkpt>
      <trkpt lat="42.90905" lon="19.2242">
        <ele>1596.4100341797</ele>
        <time>2023-10-03T11:14:36.000Z</time>
      </trkpt>
      <trkpt lat="42.90905" lon="19.22422">
        <ele>1596.4100341797</ele>
        <time>2023-10-03T11:14:35.000Z</time>
      </trkpt>
      <trkpt lat="42.90903" lon="19.22431">
        <ele>1595.4499511719</ele>
        <time>2023-10-03T11:14:34.000Z</time>
      </trkpt>
      <trkpt lat="42.909" lon="19.22448">
        <ele>1594</ele>
        <time>2023-10-03T11:14:33.000Z</time>
      </trkpt>
      <trkpt lat="42.90897" lon="19.22461">
        <ele>1594</ele>
        <time>2023-10-03T11:14:32.000Z</time>
      </trkpt>
      <trkpt lat="42.90895" lon="19.22473">
        <ele>1594</ele>
        <time>2023-10-03T11:14:31.000Z</time>
      </trkpt>
      <trkpt lat="42.90894" lon="19.22486">
        <ele>1594</ele>
        <time>2023-10-03T11:14:30.000Z</time>
      </trkpt>
      <trkpt lat="42.90894" lon="19.22489">
        <ele>1594</ele>
        <time>2023-10-03T11:14:29.000Z</time>
      </trkpt>
      <trkpt lat="42.90894" lon="19.22507">
        <ele>1594.4799804688</ele>
        <time>2023-10-03T11:14:28.000Z</time>
      </trkpt>
      <trkpt lat="42.90894" lon="19.22525">
        <ele>1594.4799804688</ele>
        <time>2023-10-03T11:14:27.000Z</time>
      </trkpt>
      <trkpt lat="42.90897" lon="19.22566">
        <ele>1595.4499511719</ele>
        <time>2023-10-03T11:14:24.000Z</time>
      </trkpt>
      <trkpt lat="42.90896" lon="19.22578">
        <ele>1595.9300537109</ele>
        <time>2023-10-03T11:14:23.000Z</time>
      </trkpt>
      <trkpt lat="42.90896" lon="19.22584">
        <ele>1595.9300537109</ele>
        <time>2023-10-03T11:14:22.000Z</time>
      </trkpt>
      <trkpt lat="42.90895" lon="19.22592">
        <ele>1595.9300537109</ele>
        <time>2023-10-03T11:14:21.000Z</time>
      </trkpt>
      <trkpt lat="42.90893" lon="19.22603">
        <ele>1596.4100341797</ele>
        <time>2023-10-03T11:14:20.000Z</time>
      </trkpt>
      <trkpt lat="42.90888" lon="19.22635">
        <ele>1597.8499755859</ele>
        <time>2023-10-03T11:14:18.000Z</time>
      </trkpt>
      <trkpt lat="42.90884" lon="19.22663">
        <ele>1600.25</ele>
        <time>2023-10-03T11:14:16.000Z</time>
      </trkpt>
      <trkpt lat="42.90884" lon="19.22674">
        <ele>1600.7299804688</ele>
        <time>2023-10-03T11:14:15.000Z</time>
      </trkpt>
      <trkpt lat="42.90883" lon="19.22691">
        <ele>1602.1700439453</ele>
        <time>2023-10-03T11:14:14.000Z</time>
      </trkpt>
      <trkpt lat="42.90883" lon="19.22699">
        <ele>1602.6600341797</ele>
        <time>2023-10-03T11:14:13.000Z</time>
      </trkpt>
      <trkpt lat="42.90882" lon="19.22712">
        <ele>1603.6199951172</ele>
        <time>2023-10-03T11:14:12.000Z</time>
      </trkpt>
      <trkpt lat="42.90883" lon="19.22724">
        <ele>1605.0600585938</ele>
        <time>2023-10-03T11:14:11.000Z</time>
      </trkpt>
      <trkpt lat="42.90884" lon="19.22736">
        <ele>1606.0200195312</ele>
        <time>2023-10-03T11:14:10.000Z</time>
      </trkpt>
      <trkpt lat="42.90884" lon="19.22747">
        <ele>1606.9799804688</ele>
        <time>2023-10-03T11:14:09.000Z</time>
      </trkpt>
      <trkpt lat="42.90883" lon="19.22755">
        <ele>1607.4599609375</ele>
        <time>2023-10-03T11:14:08.000Z</time>
      </trkpt>
      <trkpt lat="42.90883" lon="19.2276">
        <ele>1607.9399414062</ele>
        <time>2023-10-03T11:14:07.000Z</time>
      </trkpt>
      <trkpt lat="42.90882" lon="19.22769">
        <ele>1607.9399414062</ele>
        <time>2023-10-03T11:14:06.000Z</time>
      </trkpt>
      <trkpt lat="42.90882" lon="19.22777">
        <ele>1608.4200439453</ele>
        <time>2023-10-03T11:14:05.000Z</time>
      </trkpt>
      <trkpt lat="42.90884" lon="19.22786">
        <ele>1608.9000244141</ele>
        <time>2023-10-03T11:14:04.000Z</time>
      </trkpt>
      <trkpt lat="42.90887" lon="19.22796">
        <ele>1609.3800048828</ele>
        <time>2023-10-03T11:14:03.000Z</time>
      </trkpt>
      <trkpt lat="42.90889" lon="19.22806">
        <ele>1609.8599853516</ele>
        <time>2023-10-03T11:14:02.000Z</time>
      </trkpt>
      <trkpt lat="42.9089" lon="19.22817">
        <ele>1610.3499755859</ele>
        <time>2023-10-03T11:14:01.000Z</time>
      </trkpt>
      <trkpt lat="42.90891" lon="19.22828">
        <ele>1611.3100585938</ele>
        <time>2023-10-03T11:14:00.000Z</time>
      </trkpt>
      <trkpt lat="42.90891" lon="19.22838">
        <ele>1612.75</ele>
        <time>2023-10-03T11:13:59.000Z</time>
      </trkpt>
      <trkpt lat="42.9089" lon="19.22846">
        <ele>1613.2299804688</ele>
        <time>2023-10-03T11:13:58.000Z</time>
      </trkpt>
      <trkpt lat="42.9089" lon="19.22857">
        <ele>1614.1899414062</ele>
        <time>2023-10-03T11:13:57.000Z</time>
      </trkpt>
      <trkpt lat="42.9089" lon="19.22866">
        <ele>1614.1899414062</ele>
        <time>2023-10-03T11:13:56.000Z</time>
      </trkpt>
      <trkpt lat="42.90891" lon="19.22871">
        <ele>1614.1899414062</ele>
        <time>2023-10-03T11:13:55.000Z</time>
      </trkpt>
      <trkpt lat="42.90892" lon="19.22879">
        <ele>1614.6700439453</ele>
        <time>2023-10-03T11:13:54.000Z</time>
      </trkpt>
      <trkpt lat="42.90893" lon="19.2289">
        <ele>1614.6700439453</ele>
        <time>2023-10-03T11:13:53.000Z</time>
      </trkpt>
      <trkpt lat="42.90893" lon="19.22899">
        <ele>1614.6700439453</ele>
        <time>2023-10-03T11:13:52.000Z</time>
      </trkpt>
      <trkpt lat="42.90893" lon="19.22906">
        <ele>1615.1500244141</ele>
        <time>2023-10-03T11:13:51.000Z</time>
      </trkpt>
      <trkpt lat="42.90891" lon="19.22916">
        <ele>1616.1099853516</ele>
        <time>2023-10-03T11:13:50.000Z</time>
      </trkpt>
      <trkpt lat="42.90889" lon="19.22923">
        <ele>1617.0699462891</ele>
        <time>2023-10-03T11:13:49.000Z</time>
      </trkpt>
      <trkpt lat="42.90887" lon="19.22932">
        <ele>1618.0400390625</ele>
        <time>2023-10-03T11:13:48.000Z</time>
      </trkpt>
      <trkpt lat="42.90887" lon="19.22939">
        <ele>1618.5200195312</ele>
        <time>2023-10-03T11:13:47.000Z</time>
      </trkpt>
      <trkpt lat="42.90887" lon="19.22945">
        <ele>1618.5200195312</ele>
        <time>2023-10-03T11:13:46.000Z</time>
      </trkpt>
      <trkpt lat="42.90888" lon="19.22952">
        <ele>1618.5200195312</ele>
        <time>2023-10-03T11:13:45.000Z</time>
      </trkpt>
      <trkpt lat="42.90889" lon="19.22958">
        <ele>1618.5200195312</ele>
        <time>2023-10-03T11:13:44.000Z</time>
      </trkpt>
      <trkpt lat="42.90892" lon="19.22968">
        <ele>1618.5200195312</ele>
        <time>2023-10-03T11:13:43.000Z</time>
      </trkpt>
      <trkpt lat="42.90895" lon="19.22976">
        <ele>1619</ele>
        <time>2023-10-03T11:13:42.000Z</time>
      </trkpt>
      <trkpt lat="42.90898" lon="19.2298">
        <ele>1619</ele>
        <time>2023-10-03T11:13:41.000Z</time>
      </trkpt>
      <trkpt lat="42.90906" lon="19.22993">
        <ele>1620.4399414062</ele>
        <time>2023-10-03T11:13:40.000Z</time>
      </trkpt>
      <trkpt lat="42.9091" lon="19.23002">
        <ele>1620.9200439453</ele>
        <time>2023-10-03T11:13:39.000Z</time>
      </trkpt>
      <trkpt lat="42.90915" lon="19.23014">
        <ele>1622.3599853516</ele>
        <time>2023-10-03T11:13:38.000Z</time>
      </trkpt>
      <trkpt lat="42.90918" lon="19.23023">
        <ele>1623.3199462891</ele>
        <time>2023-10-03T11:13:37.000Z</time>
      </trkpt>
      <trkpt lat="42.90922" lon="19.23035">
        <ele>1625.25</ele>
        <time>2023-10-03T11:13:36.000Z</time>
      </trkpt>
      <trkpt lat="42.90924" lon="19.23044">
        <ele>1626.6899414062</ele>
        <time>2023-10-03T11:13:35.000Z</time>
      </trkpt>
      <trkpt lat="42.90924" lon="19.23046">
        <ele>1626.6899414062</ele>
        <time>2023-10-03T11:13:34.000Z</time>
      </trkpt>
      <trkpt lat="42.90928" lon="19.23062">
        <ele>1629.0899658203</ele>
        <time>2023-10-03T11:13:33.000Z</time>
      </trkpt>
      <trkpt lat="42.9093" lon="19.23069">
        <ele>1630.0500488281</ele>
        <time>2023-10-03T11:13:32.000Z</time>
      </trkpt>
      <trkpt lat="42.90932" lon="19.23074">
        <ele>1630.5300292969</ele>
        <time>2023-10-03T11:13:31.000Z</time>
      </trkpt>
      <trkpt lat="42.90933" lon="19.2308">
        <ele>1631.0100097656</ele>
        <time>2023-10-03T11:13:30.000Z</time>
      </trkpt>
      <trkpt lat="42.90934" lon="19.23092">
        <ele>1631.9799804688</ele>
        <time>2023-10-03T11:13:28.000Z</time>
      </trkpt>
      <trkpt lat="42.90932" lon="19.23098">
        <ele>1631.4899902344</ele>
        <time>2023-10-03T11:13:27.000Z</time>
      </trkpt>
      <trkpt lat="42.90929" lon="19.23103">
        <ele>1630.5300292969</ele>
        <time>2023-10-03T11:13:26.000Z</time>
      </trkpt>
      <trkpt lat="42.90925" lon="19.23109">
        <ele>1629.0899658203</ele>
        <time>2023-10-03T11:13:25.000Z</time>
      </trkpt>
      <trkpt lat="42.90918" lon="19.23113">
        <ele>1627.1700439453</ele>
        <time>2023-10-03T11:13:24.000Z</time>
      </trkpt>
      <trkpt lat="42.90911" lon="19.23118">
        <ele>1625.7299804688</ele>
        <time>2023-10-03T11:13:23.000Z</time>
      </trkpt>
      <trkpt lat="42.90905" lon="19.23124">
        <ele>1624.2800292969</ele>
        <time>2023-10-03T11:13:22.000Z</time>
      </trkpt>
      <trkpt lat="42.909" lon="19.23128">
        <ele>1623.8000488281</ele>
        <time>2023-10-03T11:13:21.000Z</time>
      </trkpt>
      <trkpt lat="42.90887" lon="19.23144">
        <ele>1621.4000244141</ele>
        <time>2023-10-03T11:13:19.000Z</time>
      </trkpt>
      <trkpt lat="42.90883" lon="19.2315">
        <ele>1620.4399414062</ele>
        <time>2023-10-03T11:13:18.000Z</time>
      </trkpt>
      <trkpt lat="42.90878" lon="19.23157">
        <ele>1619.9599609375</ele>
        <time>2023-10-03T11:13:17.000Z</time>
      </trkpt>
      <trkpt lat="42.90876" lon="19.23165">
        <ele>1619.4799804688</ele>
        <time>2023-10-03T11:13:16.000Z</time>
      </trkpt>
      <trkpt lat="42.90874" lon="19.23172">
        <ele>1619</ele>
        <time>2023-10-03T11:13:15.000Z</time>
      </trkpt>
      <trkpt lat="42.90872" lon="19.23181">
        <ele>1618.5200195312</ele>
        <time>2023-10-03T11:13:14.000Z</time>
      </trkpt>
      <trkpt lat="42.90871" lon="19.23184">
        <ele>1618.5200195312</ele>
        <time>2023-10-03T11:13:13.000Z</time>
      </trkpt>
      <trkpt lat="42.90869" lon="19.23188">
        <ele>1618.5200195312</ele>
        <time>2023-10-03T11:13:12.000Z</time>
      </trkpt>
      <trkpt lat="42.90869" lon="19.23189">
        <ele>1618.5200195312</ele>
        <time>2023-10-03T11:12:38.000Z</time>
      </trkpt>
      <trkpt lat="42.90861" lon="19.23191">
        <ele>1618.0400390625</ele>
        <time>2023-10-03T11:12:31.000Z</time>
      </trkpt>
      <trkpt lat="42.90858" lon="19.23191">
        <ele>1617.5600585938</ele>
        <time>2023-10-03T11:12:30.000Z</time>
      </trkpt>
      <trkpt lat="42.90853" lon="19.2319">
        <ele>1616.5899658203</ele>
        <time>2023-10-03T11:12:29.000Z</time>
      </trkpt>
      <trkpt lat="42.90837" lon="19.23188">
        <ele>1614.6700439453</ele>
        <time>2023-10-03T11:12:27.000Z</time>
      </trkpt>
      <trkpt lat="42.9083" lon="19.23185">
        <ele>1613.7099609375</ele>
        <time>2023-10-03T11:12:26.000Z</time>
      </trkpt>
      <trkpt lat="42.90822" lon="19.23182">
        <ele>1613.2299804688</ele>
        <time>2023-10-03T11:12:25.000Z</time>
      </trkpt>
      <trkpt lat="42.90815" lon="19.2318">
        <ele>1612.75</ele>
        <time>2023-10-03T11:12:24.000Z</time>
      </trkpt>
      <trkpt lat="42.90808" lon="19.2318">
        <ele>1611.7900390625</ele>
        <time>2023-10-03T11:12:23.000Z</time>
      </trkpt>
      <trkpt lat="42.90801" lon="19.23182">
        <ele>1611.3100585938</ele>
        <time>2023-10-03T11:12:22.000Z</time>
      </trkpt>
      <trkpt lat="42.90793" lon="19.23187">
        <ele>1610.3499755859</ele>
        <time>2023-10-03T11:12:21.000Z</time>
      </trkpt>
      <trkpt lat="42.90786" lon="19.23189">
        <ele>1609.3800048828</ele>
        <time>2023-10-03T11:12:20.000Z</time>
      </trkpt>
      <trkpt lat="42.9078" lon="19.2319">
        <ele>1608.4200439453</ele>
        <time>2023-10-03T11:12:19.000Z</time>
      </trkpt>
      <trkpt lat="42.9077" lon="19.23191">
        <ele>1606.9799804688</ele>
        <time>2023-10-03T11:12:18.000Z</time>
      </trkpt>
      <trkpt lat="42.90761" lon="19.23193">
        <ele>1606.0200195312</ele>
        <time>2023-10-03T11:12:17.000Z</time>
      </trkpt>
      <trkpt lat="42.90752" lon="19.23198">
        <ele>1605.5400390625</ele>
        <time>2023-10-03T11:12:16.000Z</time>
      </trkpt>
      <trkpt lat="42.90747" lon="19.23201">
        <ele>1605.5400390625</ele>
        <time>2023-10-03T11:12:15.000Z</time>
      </trkpt>
      <trkpt lat="42.90734" lon="19.23212">
        <ele>1604.5799560547</ele>
        <time>2023-10-03T11:12:14.000Z</time>
      </trkpt>
      <trkpt lat="42.90726" lon="19.23218">
        <ele>1603.1400146484</ele>
        <time>2023-10-03T11:12:13.000Z</time>
      </trkpt>
      <trkpt lat="42.90718" lon="19.23225">
        <ele>1603.1400146484</ele>
        <time>2023-10-03T11:12:12.000Z</time>
      </trkpt>
      <trkpt lat="42.90712" lon="19.23234">
        <ele>1603.1400146484</ele>
        <time>2023-10-03T11:12:11.000Z</time>
      </trkpt>
      <trkpt lat="42.90706" lon="19.23243">
        <ele>1603.1400146484</ele>
        <time>2023-10-03T11:12:10.000Z</time>
      </trkpt>
      <trkpt lat="42.90703" lon="19.23254">
        <ele>1603.1400146484</ele>
        <time>2023-10-03T11:12:09.000Z</time>
      </trkpt>
      <trkpt lat="42.90698" lon="19.23265">
        <ele>1603.1400146484</ele>
        <time>2023-10-03T11:12:08.000Z</time>
      </trkpt>
      <trkpt lat="42.90695" lon="19.23269">
        <ele>1603.1400146484</ele>
        <time>2023-10-03T11:12:07.000Z</time>
      </trkpt>
      <trkpt lat="42.90687" lon="19.2328">
        <ele>1603.1400146484</ele>
        <time>2023-10-03T11:12:06.000Z</time>
      </trkpt>
      <trkpt lat="42.90679" lon="19.23294">
        <ele>1603.6199951172</ele>
        <time>2023-10-03T11:12:05.000Z</time>
      </trkpt>
      <trkpt lat="42.90673" lon="19.23305">
        <ele>1604.0999755859</ele>
        <time>2023-10-03T11:12:04.000Z</time>
      </trkpt>
      <trkpt lat="42.90663" lon="19.23331">
        <ele>1606.5</ele>
        <time>2023-10-03T11:12:02.000Z</time>
      </trkpt>
      <trkpt lat="42.90658" lon="19.23343">
        <ele>1607.4599609375</ele>
        <time>2023-10-03T11:12:01.000Z</time>
      </trkpt>
      <trkpt lat="42.90653" lon="19.23355">
        <ele>1608.9000244141</ele>
        <time>2023-10-03T11:12:00.000Z</time>
      </trkpt>
      <trkpt lat="42.90648" lon="19.23364">
        <ele>1609.8599853516</ele>
        <time>2023-10-03T11:11:59.000Z</time>
      </trkpt>
      <trkpt lat="42.90643" lon="19.23374">
        <ele>1610.3499755859</ele>
        <time>2023-10-03T11:11:58.000Z</time>
      </trkpt>
      <trkpt lat="42.9064" lon="19.23382">
        <ele>1610.8299560547</ele>
        <time>2023-10-03T11:11:57.000Z</time>
      </trkpt>
      <trkpt lat="42.90637" lon="19.23387">
        <ele>1610.8299560547</ele>
        <time>2023-10-03T11:11:56.000Z</time>
      </trkpt>
      <trkpt lat="42.90632" lon="19.23396">
        <ele>1610.3499755859</ele>
        <time>2023-10-03T11:11:55.000Z</time>
      </trkpt>
      <trkpt lat="42.90629" lon="19.23403">
        <ele>1609.3800048828</ele>
        <time>2023-10-03T11:11:54.000Z</time>
      </trkpt>
      <trkpt lat="42.90626" lon="19.23415">
        <ele>1608.4200439453</ele>
        <time>2023-10-03T11:11:53.000Z</time>
      </trkpt>
      <trkpt lat="42.90622" lon="19.23426">
        <ele>1607.4599609375</ele>
        <time>2023-10-03T11:11:52.000Z</time>
      </trkpt>
      <trkpt lat="42.90619" lon="19.23436">
        <ele>1606.5</ele>
        <time>2023-10-03T11:11:51.000Z</time>
      </trkpt>
      <trkpt lat="42.90615" lon="19.23445">
        <ele>1605.5400390625</ele>
        <time>2023-10-03T11:11:50.000Z</time>
      </trkpt>
      <trkpt lat="42.90614" lon="19.23448">
        <ele>1605.0600585938</ele>
        <time>2023-10-03T11:11:49.000Z</time>
      </trkpt>
      <trkpt lat="42.90603" lon="19.23468">
        <ele>1604.0999755859</ele>
        <time>2023-10-03T11:11:48.000Z</time>
      </trkpt>
      <trkpt lat="42.90598" lon="19.23478">
        <ele>1603.6199951172</ele>
        <time>2023-10-03T11:11:47.000Z</time>
      </trkpt>
      <trkpt lat="42.90595" lon="19.23489">
        <ele>1603.1400146484</ele>
        <time>2023-10-03T11:11:46.000Z</time>
      </trkpt>
      <trkpt lat="42.90592" lon="19.23499">
        <ele>1603.1400146484</ele>
        <time>2023-10-03T11:11:45.000Z</time>
      </trkpt>
      <trkpt lat="42.90589" lon="19.23512">
        <ele>1602.6600341797</ele>
        <time>2023-10-03T11:11:44.000Z</time>
      </trkpt>
      <trkpt lat="42.90585" lon="19.23522">
        <ele>1602.1700439453</ele>
        <time>2023-10-03T11:11:43.000Z</time>
      </trkpt>
      <trkpt lat="42.90578" lon="19.23536">
        <ele>1601.2099609375</ele>
        <time>2023-10-03T11:11:42.000Z</time>
      </trkpt>
      <trkpt lat="42.90573" lon="19.23547">
        <ele>1601.2099609375</ele>
        <time>2023-10-03T11:11:41.000Z</time>
      </trkpt>
      <trkpt lat="42.90565" lon="19.23568">
        <ele>1601.2099609375</ele>
        <time>2023-10-03T11:11:39.000Z</time>
      </trkpt>
      <trkpt lat="42.90562" lon="19.23575">
        <ele>1601.2099609375</ele>
        <time>2023-10-03T11:11:38.000Z</time>
      </trkpt>
      <trkpt lat="42.90561" lon="19.23577">
        <ele>1601.2099609375</ele>
        <time>2023-10-03T11:11:37.000Z</time>
      </trkpt>
      <trkpt lat="42.90558" lon="19.23586">
        <ele>1602.1700439453</ele>
        <time>2023-10-03T11:11:08.000Z</time>
      </trkpt>
      <trkpt lat="42.90555" lon="19.2359">
        <ele>1601.6899414062</ele>
        <time>2023-10-03T11:11:02.000Z</time>
      </trkpt>
      <trkpt lat="42.90551" lon="19.23597">
        <ele>1601.2099609375</ele>
        <time>2023-10-03T11:11:01.000Z</time>
      </trkpt>
      <trkpt lat="42.90548" lon="19.23605">
        <ele>1601.2099609375</ele>
        <time>2023-10-03T11:11:00.000Z</time>
      </trkpt>
      <trkpt lat="42.90544" lon="19.23612">
        <ele>1601.2099609375</ele>
        <time>2023-10-03T11:10:59.000Z</time>
      </trkpt>
      <trkpt lat="42.90539" lon="19.23618">
        <ele>1600.7299804688</ele>
        <time>2023-10-03T11:10:58.000Z</time>
      </trkpt>
      <trkpt lat="42.90532" lon="19.23624">
        <ele>1599.7700195312</ele>
        <time>2023-10-03T11:10:57.000Z</time>
      </trkpt>
      <trkpt lat="42.90523" lon="19.23631">
        <ele>1598.8100585938</ele>
        <time>2023-10-03T11:10:56.000Z</time>
      </trkpt>
      <trkpt lat="42.90514" lon="19.23639">
        <ele>1597.8499755859</ele>
        <time>2023-10-03T11:10:55.000Z</time>
      </trkpt>
      <trkpt lat="42.905" lon="19.23653">
        <ele>1595.9300537109</ele>
        <time>2023-10-03T11:10:53.000Z</time>
      </trkpt>
      <trkpt lat="42.90489" lon="19.23663">
        <ele>1594.9599609375</ele>
        <time>2023-10-03T11:10:52.000Z</time>
      </trkpt>
      <trkpt lat="42.90484" lon="19.23669">
        <ele>1594.9599609375</ele>
        <time>2023-10-03T11:10:51.000Z</time>
      </trkpt>
      <trkpt lat="42.90475" lon="19.23681">
        <ele>1594.4799804688</ele>
        <time>2023-10-03T11:10:50.000Z</time>
      </trkpt>
      <trkpt lat="42.90473" lon="19.23683">
        <ele>1594</ele>
        <time>2023-10-03T11:10:49.000Z</time>
      </trkpt>
      <trkpt lat="42.90461" lon="19.23696">
        <ele>1593.0400390625</ele>
        <time>2023-10-03T11:10:48.000Z</time>
      </trkpt>
      <trkpt lat="42.90452" lon="19.23705">
        <ele>1592.5600585938</ele>
        <time>2023-10-03T11:10:46.000Z</time>
      </trkpt>
      <trkpt lat="42.90436" lon="19.23722">
        <ele>1592.5600585938</ele>
        <time>2023-10-03T11:10:44.000Z</time>
      </trkpt>
      <trkpt lat="42.90433" lon="19.23725">
        <ele>1592.5600585938</ele>
        <time>2023-10-03T11:10:43.000Z</time>
      </trkpt>
      <trkpt lat="42.90415" lon="19.23746">
        <ele>1592.0799560547</ele>
        <time>2023-10-03T11:10:40.000Z</time>
      </trkpt>
      <trkpt lat="42.9041" lon="19.23751">
        <ele>1592.0799560547</ele>
        <time>2023-10-03T11:10:39.000Z</time>
      </trkpt>
      <trkpt lat="42.90403" lon="19.2376">
        <ele>1592.0799560547</ele>
        <time>2023-10-03T11:10:38.000Z</time>
      </trkpt>
      <trkpt lat="42.90397" lon="19.23766">
        <ele>1592.5600585938</ele>
        <time>2023-10-03T11:10:37.000Z</time>
      </trkpt>
      <trkpt lat="42.90395" lon="19.23767">
        <ele>1592.5600585938</ele>
        <time>2023-10-03T11:10:36.000Z</time>
      </trkpt>
      <trkpt lat="42.90384" lon="19.23774">
        <ele>1593.5200195312</ele>
        <time>2023-10-03T11:10:35.000Z</time>
      </trkpt>
      <trkpt lat="42.9038" lon="19.23779">
        <ele>1594.4799804688</ele>
        <time>2023-10-03T11:10:34.000Z</time>
      </trkpt>
      <trkpt lat="42.90374" lon="19.23787">
        <ele>1594.9599609375</ele>
        <time>2023-10-03T11:10:33.000Z</time>
      </trkpt>
      <trkpt lat="42.90369" lon="19.23793">
        <ele>1596.4100341797</ele>
        <time>2023-10-03T11:10:32.000Z</time>
      </trkpt>
      <trkpt lat="42.90365" lon="19.23799">
        <ele>1597.8499755859</ele>
        <time>2023-10-03T11:10:31.000Z</time>
      </trkpt>
      <trkpt lat="42.90361" lon="19.23807">
        <ele>1598.3299560547</ele>
        <time>2023-10-03T11:10:30.000Z</time>
      </trkpt>
      <trkpt lat="42.90358" lon="19.23814">
        <ele>1598.8100585938</ele>
        <time>2023-10-03T11:10:29.000Z</time>
      </trkpt>
      <trkpt lat="42.90355" lon="19.23823">
        <ele>1598.8100585938</ele>
        <time>2023-10-03T11:10:28.000Z</time>
      </trkpt>
      <trkpt lat="42.90352" lon="19.23829">
        <ele>1598.8100585938</ele>
        <time>2023-10-03T11:10:27.000Z</time>
      </trkpt>
      <trkpt lat="42.90347" lon="19.23838">
        <ele>1598.3299560547</ele>
        <time>2023-10-03T11:10:26.000Z</time>
      </trkpt>
      <trkpt lat="42.90345" lon="19.23841">
        <ele>1598.3299560547</ele>
        <time>2023-10-03T11:10:25.000Z</time>
      </trkpt>
      <trkpt lat="42.90337" lon="19.23855">
        <ele>1598.3299560547</ele>
        <time>2023-10-03T11:10:24.000Z</time>
      </trkpt>
      <trkpt lat="42.90322" lon="19.23878">
        <ele>1598.3299560547</ele>
        <time>2023-10-03T11:10:21.000Z</time>
      </trkpt>
      <trkpt lat="42.90316" lon="19.23888">
        <ele>1598.3299560547</ele>
        <time>2023-10-03T11:10:20.000Z</time>
      </trkpt>
      <trkpt lat="42.90311" lon="19.23894">
        <ele>1598.3299560547</ele>
        <time>2023-10-03T11:10:19.000Z</time>
      </trkpt>
      <trkpt lat="42.90306" lon="19.239">
        <ele>1598.3299560547</ele>
        <time>2023-10-03T11:10:18.000Z</time>
      </trkpt>
      <trkpt lat="42.90297" lon="19.23909">
        <ele>1598.3299560547</ele>
        <time>2023-10-03T11:10:16.000Z</time>
      </trkpt>
      <trkpt lat="42.90289" lon="19.23917">
        <ele>1598.3299560547</ele>
        <time>2023-10-03T11:10:15.000Z</time>
      </trkpt>
      <trkpt lat="42.90285" lon="19.23921">
        <ele>1598.3299560547</ele>
        <time>2023-10-03T11:10:14.000Z</time>
      </trkpt>
      <trkpt lat="42.90277" lon="19.23928">
        <ele>1598.3299560547</ele>
        <time>2023-10-03T11:10:13.000Z</time>
      </trkpt>
      <trkpt lat="42.90272" lon="19.23933">
        <ele>1598.3299560547</ele>
        <time>2023-10-03T11:10:12.000Z</time>
      </trkpt>
      <trkpt lat="42.90267" lon="19.23939">
        <ele>1597.8499755859</ele>
        <time>2023-10-03T11:10:11.000Z</time>
      </trkpt>
      <trkpt lat="42.90265" lon="19.23942">
        <ele>1597.8499755859</ele>
        <time>2023-10-03T11:10:10.000Z</time>
      </trkpt>
      <trkpt lat="42.9026" lon="19.23948">
        <ele>1597.8499755859</ele>
        <time>2023-10-03T11:10:09.000Z</time>
      </trkpt>
    </trkseg>
  </trk>
</gpx>